<?xml version="1.0" encoding="UTF-8" standalone="no" ?>
<gpx xmlns="http://www.topografix.com/GPX/1/1" xmlns:xsi="http://www.w3.org/2001/XMLSchema-instance" xsi:schemaLocation="http://www.topografix.com/GPX/1/1 http://www.topografix.com/GPX/1/1/gpx.xsd" version="1.1" creator="VisuGPX - https://www.visugpx.com">
  <metadata>
    <name>Bielsa comodoto-integral v2</name>
    <desc><![CDATA[
Ruta clásica de ascensión al comodoto en bici mejorada con un tramo nuevo de sendero al final. Ruta espectacular en todos los aspectos. Existe un porteo de 250 metros para alcanzar la cima, la bajada es casi toda por sendero de montaña así que hay que saber gobernar la bici.]]></desc>
  </metadata>
  <trk>
    <name><![CDATA[comodoto-integral v2]]></name>
    <desc><![CDATA[Ruta clásica de ascensión al comodoto en bici mejorada con un tramo nuevo de sendero al final. Ruta espectacular en todos los aspectos. Existe un porteo de 250 metros para alcanzar la cima, la bajada es casi toda por sendero de montaña así que hay que saber gobernar la bici.]]></desc>
    <trkseg>
      <trkpt lat="42.65158" lon="0.14269">
        <ele>1232.6</ele>
        <time>2015-10-11T07:51:20Z</time>
      </trkpt>
      <trkpt lat="42.65158" lon="0.14271">
        <ele>1232.6</ele>
        <time>2015-10-11T07:51:21Z</time>
      </trkpt>
      <trkpt lat="42.65155" lon="0.14277">
        <ele>1232.1</ele>
        <time>2015-10-11T07:51:23Z</time>
      </trkpt>
      <trkpt lat="42.65154" lon="0.14281">
        <ele>1232.1</ele>
        <time>2015-10-11T07:51:24Z</time>
      </trkpt>
      <trkpt lat="42.65147" lon="0.14307">
        <ele>1231.1</ele>
        <time>2015-10-11T07:51:30Z</time>
      </trkpt>
      <trkpt lat="42.65144" lon="0.14317">
        <ele>1230.6</ele>
        <time>2015-10-11T07:51:32Z</time>
      </trkpt>
      <trkpt lat="42.65143" lon="0.14322">
        <ele>1230.1</ele>
        <time>2015-10-11T07:51:33Z</time>
      </trkpt>
      <trkpt lat="42.65141" lon="0.14328">
        <ele>1230.1</ele>
        <time>2015-10-11T07:51:34Z</time>
      </trkpt>
      <trkpt lat="42.65139" lon="0.14333">
        <ele>1229.7</ele>
        <time>2015-10-11T07:51:35Z</time>
      </trkpt>
      <trkpt lat="42.65137" lon="0.14338">
        <ele>1229.7</ele>
        <time>2015-10-11T07:51:36Z</time>
      </trkpt>
      <trkpt lat="42.65134" lon="0.14343">
        <ele>1229.7</ele>
        <time>2015-10-11T07:51:37Z</time>
      </trkpt>
      <trkpt lat="42.65132" lon="0.14348">
        <ele>1229.7</ele>
        <time>2015-10-11T07:51:38Z</time>
      </trkpt>
      <trkpt lat="42.65126" lon="0.14356">
        <ele>1228.7</ele>
        <time>2015-10-11T07:51:40Z</time>
      </trkpt>
      <trkpt lat="42.65123" lon="0.14361">
        <ele>1228.7</ele>
        <time>2015-10-11T07:51:41Z</time>
      </trkpt>
      <trkpt lat="42.6512" lon="0.14365">
        <ele>1228.7</ele>
        <time>2015-10-11T07:51:42Z</time>
      </trkpt>
      <trkpt lat="42.65116" lon="0.14368">
        <ele>1228.7</ele>
        <time>2015-10-11T07:51:43Z</time>
      </trkpt>
      <trkpt lat="42.65113" lon="0.14372">
        <ele>1228.7</ele>
        <time>2015-10-11T07:51:44Z</time>
      </trkpt>
      <trkpt lat="42.65092" lon="0.14399">
        <ele>1227.7</ele>
        <time>2015-10-11T07:51:51Z</time>
      </trkpt>
      <trkpt lat="42.65088" lon="0.14403">
        <ele>1227.7</ele>
        <time>2015-10-11T07:51:52Z</time>
      </trkpt>
      <trkpt lat="42.65075" lon="0.14407">
        <ele>1227.7</ele>
        <time>2015-10-11T07:51:55Z</time>
      </trkpt>
      <trkpt lat="42.6507" lon="0.14412">
        <ele>1227.7</ele>
        <time>2015-10-11T07:51:56Z</time>
      </trkpt>
      <trkpt lat="42.65067" lon="0.14418">
        <ele>1227.7</ele>
        <time>2015-10-11T07:51:57Z</time>
      </trkpt>
      <trkpt lat="42.65064" lon="0.14422">
        <ele>1226.8</ele>
        <time>2015-10-11T07:51:58Z</time>
      </trkpt>
      <trkpt lat="42.65062" lon="0.14427">
        <ele>1226.8</ele>
        <time>2015-10-11T07:51:59Z</time>
      </trkpt>
      <trkpt lat="42.65053" lon="0.1444">
        <ele>1226.8</ele>
        <time>2015-10-11T07:52:02Z</time>
      </trkpt>
      <trkpt lat="42.6503" lon="0.14475">
        <ele>1226.3</ele>
        <time>2015-10-11T07:52:10Z</time>
      </trkpt>
      <trkpt lat="42.65007" lon="0.14524">
        <ele>1225.3</ele>
        <time>2015-10-11T07:52:20Z</time>
      </trkpt>
      <trkpt lat="42.64986" lon="0.14567">
        <ele>1223.4</ele>
        <time>2015-10-11T07:52:29Z</time>
      </trkpt>
      <trkpt lat="42.64983" lon="0.14572">
        <ele>1222.9</ele>
        <time>2015-10-11T07:52:30Z</time>
      </trkpt>
      <trkpt lat="42.64976" lon="0.14587">
        <ele>1222.4</ele>
        <time>2015-10-11T07:52:33Z</time>
      </trkpt>
      <trkpt lat="42.64974" lon="0.14592">
        <ele>1222.4</ele>
        <time>2015-10-11T07:52:34Z</time>
      </trkpt>
      <trkpt lat="42.64954" lon="0.14637">
        <ele>1221.5</ele>
        <time>2015-10-11T07:52:43Z</time>
      </trkpt>
      <trkpt lat="42.64944" lon="0.14663">
        <ele>1221</ele>
        <time>2015-10-11T07:52:48Z</time>
      </trkpt>
      <trkpt lat="42.64931" lon="0.1471">
        <ele>1220.1</ele>
        <time>2015-10-11T07:52:57Z</time>
      </trkpt>
      <trkpt lat="42.64919" lon="0.14753">
        <ele>1219.6</ele>
        <time>2015-10-11T07:53:06Z</time>
      </trkpt>
      <trkpt lat="42.64904" lon="0.14806">
        <ele>1218.6</ele>
        <time>2015-10-11T07:53:17Z</time>
      </trkpt>
      <trkpt lat="42.64891" lon="0.1485">
        <ele>1217.2</ele>
        <time>2015-10-11T07:53:26Z</time>
      </trkpt>
      <trkpt lat="42.64889" lon="0.1486">
        <ele>1216.7</ele>
        <time>2015-10-11T07:53:28Z</time>
      </trkpt>
      <trkpt lat="42.64887" lon="0.14865">
        <ele>1215.7</ele>
        <time>2015-10-11T07:53:29Z</time>
      </trkpt>
      <trkpt lat="42.64873" lon="0.14919">
        <ele>1212.8</ele>
        <time>2015-10-11T07:53:39Z</time>
      </trkpt>
      <trkpt lat="42.64861" lon="0.14962">
        <ele>1211.4</ele>
        <time>2015-10-11T07:53:46Z</time>
      </trkpt>
      <trkpt lat="42.64847" lon="0.15008">
        <ele>1209</ele>
        <time>2015-10-11T07:53:54Z</time>
      </trkpt>
      <trkpt lat="42.6484" lon="0.15036">
        <ele>1208.5</ele>
        <time>2015-10-11T07:53:59Z</time>
      </trkpt>
      <trkpt lat="42.64832" lon="0.15091">
        <ele>1207.1</ele>
        <time>2015-10-11T07:54:09Z</time>
      </trkpt>
      <trkpt lat="42.64831" lon="0.15097">
        <ele>1206.6</ele>
        <time>2015-10-11T07:54:10Z</time>
      </trkpt>
      <trkpt lat="42.64829" lon="0.15102">
        <ele>1206.6</ele>
        <time>2015-10-11T07:54:11Z</time>
      </trkpt>
      <trkpt lat="42.64828" lon="0.15107">
        <ele>1206.1</ele>
        <time>2015-10-11T07:54:12Z</time>
      </trkpt>
      <trkpt lat="42.64826" lon="0.15113">
        <ele>1206.1</ele>
        <time>2015-10-11T07:54:13Z</time>
      </trkpt>
      <trkpt lat="42.64825" lon="0.15118">
        <ele>1206.1</ele>
        <time>2015-10-11T07:54:14Z</time>
      </trkpt>
      <trkpt lat="42.64817" lon="0.15143">
        <ele>1205.6</ele>
        <time>2015-10-11T07:54:19Z</time>
      </trkpt>
      <trkpt lat="42.64815" lon="0.15148">
        <ele>1205.6</ele>
        <time>2015-10-11T07:54:20Z</time>
      </trkpt>
      <trkpt lat="42.64797" lon="0.15202">
        <ele>1204.2</ele>
        <time>2015-10-11T07:54:30Z</time>
      </trkpt>
      <trkpt lat="42.64795" lon="0.15208">
        <ele>1203.7</ele>
        <time>2015-10-11T07:54:31Z</time>
      </trkpt>
      <trkpt lat="42.64793" lon="0.15213">
        <ele>1203.7</ele>
        <time>2015-10-11T07:54:32Z</time>
      </trkpt>
      <trkpt lat="42.64791" lon="0.1522">
        <ele>1203.7</ele>
        <time>2015-10-11T07:54:33Z</time>
      </trkpt>
      <trkpt lat="42.6479" lon="0.15226">
        <ele>1203.2</ele>
        <time>2015-10-11T07:54:34Z</time>
      </trkpt>
      <trkpt lat="42.64788" lon="0.15232">
        <ele>1203.2</ele>
        <time>2015-10-11T07:54:35Z</time>
      </trkpt>
      <trkpt lat="42.64786" lon="0.15237">
        <ele>1203.2</ele>
        <time>2015-10-11T07:54:36Z</time>
      </trkpt>
      <trkpt lat="42.64784" lon="0.15243">
        <ele>1203.2</ele>
        <time>2015-10-11T07:54:37Z</time>
      </trkpt>
      <trkpt lat="42.64764" lon="0.15303">
        <ele>1201.8</ele>
        <time>2015-10-11T07:54:48Z</time>
      </trkpt>
      <trkpt lat="42.64748" lon="0.15355">
        <ele>1202.3</ele>
        <time>2015-10-11T07:54:59Z</time>
      </trkpt>
      <trkpt lat="42.64739" lon="0.15398">
        <ele>1201.3</ele>
        <time>2015-10-11T07:55:08Z</time>
      </trkpt>
      <trkpt lat="42.64732" lon="0.15449">
        <ele>1200.3</ele>
        <time>2015-10-11T07:55:17Z</time>
      </trkpt>
      <trkpt lat="42.64724" lon="0.155">
        <ele>1198.9</ele>
        <time>2015-10-11T07:55:26Z</time>
      </trkpt>
      <trkpt lat="42.64712" lon="0.15551">
        <ele>1197.5</ele>
        <time>2015-10-11T07:55:35Z</time>
      </trkpt>
      <trkpt lat="42.6471" lon="0.15563">
        <ele>1197.5</ele>
        <time>2015-10-11T07:55:37Z</time>
      </trkpt>
      <trkpt lat="42.64699" lon="0.15621">
        <ele>1196</ele>
        <time>2015-10-11T07:55:46Z</time>
      </trkpt>
      <trkpt lat="42.64693" lon="0.15663">
        <ele>1196</ele>
        <time>2015-10-11T07:55:54Z</time>
      </trkpt>
      <trkpt lat="42.64686" lon="0.15689">
        <ele>1197.5</ele>
        <time>2015-10-11T07:56:00Z</time>
      </trkpt>
      <trkpt lat="42.64684" lon="0.15693">
        <ele>1197.5</ele>
        <time>2015-10-11T07:56:01Z</time>
      </trkpt>
      <trkpt lat="42.64675" lon="0.15718">
        <ele>1197.9</ele>
        <time>2015-10-11T07:56:08Z</time>
      </trkpt>
      <trkpt lat="42.64662" lon="0.15752">
        <ele>1198.4</ele>
        <time>2015-10-11T07:56:17Z</time>
      </trkpt>
      <trkpt lat="42.64651" lon="0.15785">
        <ele>1199.4</ele>
        <time>2015-10-11T07:56:26Z</time>
      </trkpt>
      <trkpt lat="42.64644" lon="0.15806">
        <ele>1199.9</ele>
        <time>2015-10-11T07:56:32Z</time>
      </trkpt>
      <trkpt lat="42.64641" lon="0.15817">
        <ele>1199.9</ele>
        <time>2015-10-11T07:56:35Z</time>
      </trkpt>
      <trkpt lat="42.64641" lon="0.15821">
        <ele>1199.9</ele>
        <time>2015-10-11T07:56:36Z</time>
      </trkpt>
      <trkpt lat="42.64641" lon="0.15824">
        <ele>1199.9</ele>
        <time>2015-10-11T07:56:37Z</time>
      </trkpt>
      <trkpt lat="42.64643" lon="0.15828">
        <ele>1199.9</ele>
        <time>2015-10-11T07:56:38Z</time>
      </trkpt>
      <trkpt lat="42.64644" lon="0.15832">
        <ele>1199.9</ele>
        <time>2015-10-11T07:56:39Z</time>
      </trkpt>
      <trkpt lat="42.64648" lon="0.15847">
        <ele>1201.8</ele>
        <time>2015-10-11T07:56:46Z</time>
      </trkpt>
      <trkpt lat="42.64648" lon="0.15849">
        <ele>1201.8</ele>
        <time>2015-10-11T07:56:47Z</time>
      </trkpt>
      <trkpt lat="42.64652" lon="0.1587">
        <ele>1203.2</ele>
        <time>2015-10-11T07:56:56Z</time>
      </trkpt>
      <trkpt lat="42.64662" lon="0.15879">
        <ele>1204.7</ele>
        <time>2015-10-11T07:57:03Z</time>
      </trkpt>
      <trkpt lat="42.64673" lon="0.15873">
        <ele>1206.1</ele>
        <time>2015-10-11T07:57:11Z</time>
      </trkpt>
      <trkpt lat="42.64677" lon="0.15867">
        <ele>1206.6</ele>
        <time>2015-10-11T07:57:15Z</time>
      </trkpt>
      <trkpt lat="42.64677" lon="0.15865">
        <ele>1207.1</ele>
        <time>2015-10-11T07:57:16Z</time>
      </trkpt>
      <trkpt lat="42.64678" lon="0.15863">
        <ele>1207.1</ele>
        <time>2015-10-11T07:57:17Z</time>
      </trkpt>
      <trkpt lat="42.64679" lon="0.15862">
        <ele>1207.1</ele>
        <time>2015-10-11T07:57:18Z</time>
      </trkpt>
      <trkpt lat="42.6468" lon="0.1586">
        <ele>1207.1</ele>
        <time>2015-10-11T07:57:19Z</time>
      </trkpt>
      <trkpt lat="42.64687" lon="0.1585">
        <ele>1209</ele>
        <time>2015-10-11T07:57:27Z</time>
      </trkpt>
      <trkpt lat="42.64688" lon="0.1585">
        <ele>1209</ele>
        <time>2015-10-11T07:57:28Z</time>
      </trkpt>
      <trkpt lat="42.6469" lon="0.15851">
        <ele>1209.5</ele>
        <time>2015-10-11T07:57:29Z</time>
      </trkpt>
      <trkpt lat="42.64691" lon="0.1585">
        <ele>1209.5</ele>
        <time>2015-10-11T07:57:30Z</time>
      </trkpt>
      <trkpt lat="42.64692" lon="0.15851">
        <ele>1210</ele>
        <time>2015-10-11T07:57:31Z</time>
      </trkpt>
      <trkpt lat="42.64695" lon="0.15852">
        <ele>1210</ele>
        <time>2015-10-11T07:57:33Z</time>
      </trkpt>
      <trkpt lat="42.64696" lon="0.15853">
        <ele>1210.4</ele>
        <time>2015-10-11T07:57:34Z</time>
      </trkpt>
      <trkpt lat="42.64698" lon="0.15864">
        <ele>1211.4</ele>
        <time>2015-10-11T07:57:40Z</time>
      </trkpt>
      <trkpt lat="42.64697" lon="0.15869">
        <ele>1211.9</ele>
        <time>2015-10-11T07:57:43Z</time>
      </trkpt>
      <trkpt lat="42.64699" lon="0.15888">
        <ele>1213.3</ele>
        <time>2015-10-11T07:57:53Z</time>
      </trkpt>
      <trkpt lat="42.64703" lon="0.15892">
        <ele>1213.8</ele>
        <time>2015-10-11T07:57:56Z</time>
      </trkpt>
      <trkpt lat="42.64711" lon="0.15891">
        <ele>1214.8</ele>
        <time>2015-10-11T07:58:01Z</time>
      </trkpt>
      <trkpt lat="42.6472" lon="0.15884">
        <ele>1216.2</ele>
        <time>2015-10-11T07:58:09Z</time>
      </trkpt>
      <trkpt lat="42.64731" lon="0.15874">
        <ele>1218.6</ele>
        <time>2015-10-11T07:58:19Z</time>
      </trkpt>
      <trkpt lat="42.64739" lon="0.15864">
        <ele>1220.1</ele>
        <time>2015-10-11T07:58:27Z</time>
      </trkpt>
      <trkpt lat="42.64745" lon="0.1585">
        <ele>1222</ele>
        <time>2015-10-11T07:58:36Z</time>
      </trkpt>
      <trkpt lat="42.64745" lon="0.15848">
        <ele>1222.4</ele>
        <time>2015-10-11T07:58:37Z</time>
      </trkpt>
      <trkpt lat="42.64743" lon="0.15837">
        <ele>1222.9</ele>
        <time>2015-10-11T07:58:43Z</time>
      </trkpt>
      <trkpt lat="42.6474" lon="0.1583">
        <ele>1224.4</ele>
        <time>2015-10-11T07:58:48Z</time>
      </trkpt>
      <trkpt lat="42.64732" lon="0.1581">
        <ele>1225.8</ele>
        <time>2015-10-11T07:58:59Z</time>
      </trkpt>
      <trkpt lat="42.64729" lon="0.15795">
        <ele>1227.3</ele>
        <time>2015-10-11T07:59:07Z</time>
      </trkpt>
      <trkpt lat="42.64732" lon="0.15777">
        <ele>1228.7</ele>
        <time>2015-10-11T07:59:16Z</time>
      </trkpt>
      <trkpt lat="42.64735" lon="0.15768">
        <ele>1230.1</ele>
        <time>2015-10-11T07:59:21Z</time>
      </trkpt>
      <trkpt lat="42.64737" lon="0.15761">
        <ele>1230.6</ele>
        <time>2015-10-11T07:59:25Z</time>
      </trkpt>
      <trkpt lat="42.64745" lon="0.15739">
        <ele>1232.6</ele>
        <time>2015-10-11T07:59:37Z</time>
      </trkpt>
      <trkpt lat="42.64747" lon="0.15734">
        <ele>1233</ele>
        <time>2015-10-11T07:59:40Z</time>
      </trkpt>
      <trkpt lat="42.64751" lon="0.15721">
        <ele>1234.5</ele>
        <time>2015-10-11T07:59:47Z</time>
      </trkpt>
      <trkpt lat="42.64756" lon="0.15707">
        <ele>1235.9</ele>
        <time>2015-10-11T07:59:55Z</time>
      </trkpt>
      <trkpt lat="42.64759" lon="0.15689">
        <ele>1237.3</ele>
        <time>2015-10-11T08:00:04Z</time>
      </trkpt>
      <trkpt lat="42.64761" lon="0.15673">
        <ele>1238.8</ele>
        <time>2015-10-11T08:00:13Z</time>
      </trkpt>
      <trkpt lat="42.64764" lon="0.15651">
        <ele>1240.7</ele>
        <time>2015-10-11T08:00:24Z</time>
      </trkpt>
      <trkpt lat="42.64768" lon="0.15635">
        <ele>1242.2</ele>
        <time>2015-10-11T08:00:32Z</time>
      </trkpt>
      <trkpt lat="42.64772" lon="0.15619">
        <ele>1243.1</ele>
        <time>2015-10-11T08:00:40Z</time>
      </trkpt>
      <trkpt lat="42.64777" lon="0.15602">
        <ele>1245</ele>
        <time>2015-10-11T08:00:49Z</time>
      </trkpt>
      <trkpt lat="42.64784" lon="0.15581">
        <ele>1247</ele>
        <time>2015-10-11T08:01:00Z</time>
      </trkpt>
      <trkpt lat="42.64787" lon="0.15574">
        <ele>1247.4</ele>
        <time>2015-10-11T08:01:04Z</time>
      </trkpt>
      <trkpt lat="42.64794" lon="0.1556">
        <ele>1248.9</ele>
        <time>2015-10-11T08:01:12Z</time>
      </trkpt>
      <trkpt lat="42.64795" lon="0.15555">
        <ele>1249.4</ele>
        <time>2015-10-11T08:01:15Z</time>
      </trkpt>
      <trkpt lat="42.64798" lon="0.15539">
        <ele>1250.8</ele>
        <time>2015-10-11T08:01:24Z</time>
      </trkpt>
      <trkpt lat="42.64805" lon="0.1553">
        <ele>1252.2</ele>
        <time>2015-10-11T08:01:31Z</time>
      </trkpt>
      <trkpt lat="42.64808" lon="0.15532">
        <ele>1252.7</ele>
        <time>2015-10-11T08:01:34Z</time>
      </trkpt>
      <trkpt lat="42.64809" lon="0.15537">
        <ele>1253.7</ele>
        <time>2015-10-11T08:01:38Z</time>
      </trkpt>
      <trkpt lat="42.64809" lon="0.15544">
        <ele>1254.7</ele>
        <time>2015-10-11T08:01:42Z</time>
      </trkpt>
      <trkpt lat="42.64805" lon="0.15563">
        <ele>1255.6</ele>
        <time>2015-10-11T08:01:52Z</time>
      </trkpt>
      <trkpt lat="42.64801" lon="0.15577">
        <ele>1256.6</ele>
        <time>2015-10-11T08:02:00Z</time>
      </trkpt>
      <trkpt lat="42.64797" lon="0.15588">
        <ele>1258</ele>
        <time>2015-10-11T08:02:09Z</time>
      </trkpt>
      <trkpt lat="42.64794" lon="0.15608">
        <ele>1259.9</ele>
        <time>2015-10-11T08:02:20Z</time>
      </trkpt>
      <trkpt lat="42.64794" lon="0.15609">
        <ele>1260.4</ele>
        <time>2015-10-11T08:02:21Z</time>
      </trkpt>
      <trkpt lat="42.64794" lon="0.15632">
        <ele>1261.9</ele>
        <time>2015-10-11T08:02:32Z</time>
      </trkpt>
      <trkpt lat="42.64795" lon="0.15649">
        <ele>1263.3</ele>
        <time>2015-10-11T08:02:41Z</time>
      </trkpt>
      <trkpt lat="42.64796" lon="0.15667">
        <ele>1264.8</ele>
        <time>2015-10-11T08:02:51Z</time>
      </trkpt>
      <trkpt lat="42.64798" lon="0.15681">
        <ele>1266.2</ele>
        <time>2015-10-11T08:02:59Z</time>
      </trkpt>
      <trkpt lat="42.64798" lon="0.15683">
        <ele>1266.7</ele>
        <time>2015-10-11T08:03:00Z</time>
      </trkpt>
      <trkpt lat="42.64798" lon="0.1569">
        <ele>1267.2</ele>
        <time>2015-10-11T08:03:04Z</time>
      </trkpt>
      <trkpt lat="42.648" lon="0.15707">
        <ele>1269.1</ele>
        <time>2015-10-11T08:03:13Z</time>
      </trkpt>
      <trkpt lat="42.64799" lon="0.15723">
        <ele>1270.5</ele>
        <time>2015-10-11T08:03:20Z</time>
      </trkpt>
      <trkpt lat="42.64799" lon="0.15734">
        <ele>1271.5</ele>
        <time>2015-10-11T08:03:25Z</time>
      </trkpt>
      <trkpt lat="42.64798" lon="0.15746">
        <ele>1272.4</ele>
        <time>2015-10-11T08:03:30Z</time>
      </trkpt>
      <trkpt lat="42.64799" lon="0.15764">
        <ele>1273.9</ele>
        <time>2015-10-11T08:03:38Z</time>
      </trkpt>
      <trkpt lat="42.648" lon="0.15769">
        <ele>1273.9</ele>
        <time>2015-10-11T08:03:40Z</time>
      </trkpt>
      <trkpt lat="42.64801" lon="0.15776">
        <ele>1274.4</ele>
        <time>2015-10-11T08:03:43Z</time>
      </trkpt>
      <trkpt lat="42.64809" lon="0.15787">
        <ele>1275.8</ele>
        <time>2015-10-11T08:03:50Z</time>
      </trkpt>
      <trkpt lat="42.6482" lon="0.15778">
        <ele>1277.2</ele>
        <time>2015-10-11T08:03:58Z</time>
      </trkpt>
      <trkpt lat="42.6482" lon="0.15772">
        <ele>1277.7</ele>
        <time>2015-10-11T08:04:01Z</time>
      </trkpt>
      <trkpt lat="42.64817" lon="0.15753">
        <ele>1280.1</ele>
        <time>2015-10-11T08:04:12Z</time>
      </trkpt>
      <trkpt lat="42.64816" lon="0.15752">
        <ele>1280.6</ele>
        <time>2015-10-11T08:04:18Z</time>
      </trkpt>
      <trkpt lat="42.64817" lon="0.15753">
        <ele>1280.6</ele>
        <time>2015-10-11T08:04:32Z</time>
      </trkpt>
      <trkpt lat="42.64816" lon="0.15751">
        <ele>1280.6</ele>
        <time>2015-10-11T08:04:45Z</time>
      </trkpt>
      <trkpt lat="42.64816" lon="0.15748">
        <ele>1280.6</ele>
        <time>2015-10-11T08:04:51Z</time>
      </trkpt>
      <trkpt lat="42.64817" lon="0.15744">
        <ele>1281.1</ele>
        <time>2015-10-11T08:05:08Z</time>
      </trkpt>
      <trkpt lat="42.64817" lon="0.15745">
        <ele>1281.1</ele>
        <time>2015-10-11T08:05:23Z</time>
      </trkpt>
      <trkpt lat="42.64816" lon="0.15744">
        <ele>1281.1</ele>
        <time>2015-10-11T08:05:38Z</time>
      </trkpt>
      <trkpt lat="42.64817" lon="0.15745">
        <ele>1281.1</ele>
        <time>2015-10-11T08:05:53Z</time>
      </trkpt>
      <trkpt lat="42.64819" lon="0.15745">
        <ele>1281.1</ele>
        <time>2015-10-11T08:06:01Z</time>
      </trkpt>
      <trkpt lat="42.64817" lon="0.15746">
        <ele>1281.1</ele>
        <time>2015-10-11T08:06:12Z</time>
      </trkpt>
      <trkpt lat="42.64817" lon="0.15743">
        <ele>1281.1</ele>
        <time>2015-10-11T08:06:18Z</time>
      </trkpt>
      <trkpt lat="42.6482" lon="0.15733">
        <ele>1282.1</ele>
        <time>2015-10-11T08:06:26Z</time>
      </trkpt>
      <trkpt lat="42.64823" lon="0.15718">
        <ele>1283.5</ele>
        <time>2015-10-11T08:06:34Z</time>
      </trkpt>
      <trkpt lat="42.64827" lon="0.15699">
        <ele>1285.4</ele>
        <time>2015-10-11T08:06:45Z</time>
      </trkpt>
      <trkpt lat="42.64829" lon="0.15688">
        <ele>1286.4</ele>
        <time>2015-10-11T08:06:51Z</time>
      </trkpt>
      <trkpt lat="42.64832" lon="0.1567">
        <ele>1287.8</ele>
        <time>2015-10-11T08:07:00Z</time>
      </trkpt>
      <trkpt lat="42.64837" lon="0.15653">
        <ele>1289.3</ele>
        <time>2015-10-11T08:07:09Z</time>
      </trkpt>
      <trkpt lat="42.64841" lon="0.15641">
        <ele>1290.2</ele>
        <time>2015-10-11T08:07:16Z</time>
      </trkpt>
      <trkpt lat="42.64847" lon="0.15626">
        <ele>1291.7</ele>
        <time>2015-10-11T08:07:25Z</time>
      </trkpt>
      <trkpt lat="42.64858" lon="0.15604">
        <ele>1292.6</ele>
        <time>2015-10-11T08:07:36Z</time>
      </trkpt>
      <trkpt lat="42.64869" lon="0.15592">
        <ele>1294.1</ele>
        <time>2015-10-11T08:07:44Z</time>
      </trkpt>
      <trkpt lat="42.64882" lon="0.15579">
        <ele>1295.5</ele>
        <time>2015-10-11T08:07:54Z</time>
      </trkpt>
      <trkpt lat="42.64894" lon="0.15565">
        <ele>1297.4</ele>
        <time>2015-10-11T08:08:04Z</time>
      </trkpt>
      <trkpt lat="42.64909" lon="0.15558">
        <ele>1299.4</ele>
        <time>2015-10-11T08:08:15Z</time>
      </trkpt>
      <trkpt lat="42.64923" lon="0.15555">
        <ele>1300.8</ele>
        <time>2015-10-11T08:08:24Z</time>
      </trkpt>
      <trkpt lat="42.64933" lon="0.1555">
        <ele>1302.2</ele>
        <time>2015-10-11T08:08:31Z</time>
      </trkpt>
      <trkpt lat="42.64948" lon="0.15543">
        <ele>1303.7</ele>
        <time>2015-10-11T08:08:41Z</time>
      </trkpt>
      <trkpt lat="42.64963" lon="0.15535">
        <ele>1305.1</ele>
        <time>2015-10-11T08:08:51Z</time>
      </trkpt>
      <trkpt lat="42.64974" lon="0.15525">
        <ele>1307.1</ele>
        <time>2015-10-11T08:09:00Z</time>
      </trkpt>
      <trkpt lat="42.64987" lon="0.1551">
        <ele>1309</ele>
        <time>2015-10-11T08:09:11Z</time>
      </trkpt>
      <trkpt lat="42.65" lon="0.15498">
        <ele>1310.4</ele>
        <time>2015-10-11T08:09:21Z</time>
      </trkpt>
      <trkpt lat="42.65006" lon="0.15501">
        <ele>1311.4</ele>
        <time>2015-10-11T08:09:27Z</time>
      </trkpt>
      <trkpt lat="42.65008" lon="0.15503">
        <ele>1312.3</ele>
        <time>2015-10-11T08:09:29Z</time>
      </trkpt>
      <trkpt lat="42.65005" lon="0.15514">
        <ele>1313.8</ele>
        <time>2015-10-11T08:09:36Z</time>
      </trkpt>
      <trkpt lat="42.65002" lon="0.15516">
        <ele>1313.8</ele>
        <time>2015-10-11T08:09:38Z</time>
      </trkpt>
      <trkpt lat="42.64997" lon="0.1552">
        <ele>1314.7</ele>
        <time>2015-10-11T08:09:42Z</time>
      </trkpt>
      <trkpt lat="42.64985" lon="0.15537">
        <ele>1315.7</ele>
        <time>2015-10-11T08:09:52Z</time>
      </trkpt>
      <trkpt lat="42.64976" lon="0.15554">
        <ele>1316.7</ele>
        <time>2015-10-11T08:10:00Z</time>
      </trkpt>
      <trkpt lat="42.64967" lon="0.15565">
        <ele>1317.6</ele>
        <time>2015-10-11T08:10:07Z</time>
      </trkpt>
      <trkpt lat="42.64964" lon="0.15568">
        <ele>1317.6</ele>
        <time>2015-10-11T08:10:09Z</time>
      </trkpt>
      <trkpt lat="42.64948" lon="0.15582">
        <ele>1318.6</ele>
        <time>2015-10-11T08:10:19Z</time>
      </trkpt>
      <trkpt lat="42.64935" lon="0.15594">
        <ele>1319.6</ele>
        <time>2015-10-11T08:10:27Z</time>
      </trkpt>
      <trkpt lat="42.64918" lon="0.15617">
        <ele>1321</ele>
        <time>2015-10-11T08:10:38Z</time>
      </trkpt>
      <trkpt lat="42.64912" lon="0.15638">
        <ele>1321.9</ele>
        <time>2015-10-11T08:10:46Z</time>
      </trkpt>
      <trkpt lat="42.64911" lon="0.15655">
        <ele>1322.9</ele>
        <time>2015-10-11T08:10:53Z</time>
      </trkpt>
      <trkpt lat="42.64913" lon="0.15673">
        <ele>1323.9</ele>
        <time>2015-10-11T08:11:01Z</time>
      </trkpt>
      <trkpt lat="42.64921" lon="0.15681">
        <ele>1324.8</ele>
        <time>2015-10-11T08:11:08Z</time>
      </trkpt>
      <trkpt lat="42.64934" lon="0.15686">
        <ele>1326.3</ele>
        <time>2015-10-11T08:11:14Z</time>
      </trkpt>
      <trkpt lat="42.64951" lon="0.15686">
        <ele>1327.7</ele>
        <time>2015-10-11T08:11:23Z</time>
      </trkpt>
      <trkpt lat="42.64966" lon="0.15687">
        <ele>1329.2</ele>
        <time>2015-10-11T08:11:31Z</time>
      </trkpt>
      <trkpt lat="42.64985" lon="0.15689">
        <ele>1330.6</ele>
        <time>2015-10-11T08:11:41Z</time>
      </trkpt>
      <trkpt lat="42.64994" lon="0.15689">
        <ele>1331.6</ele>
        <time>2015-10-11T08:11:47Z</time>
      </trkpt>
      <trkpt lat="42.6501" lon="0.15696">
        <ele>1333</ele>
        <time>2015-10-11T08:11:56Z</time>
      </trkpt>
      <trkpt lat="42.65023" lon="0.15704">
        <ele>1334.4</ele>
        <time>2015-10-11T08:12:03Z</time>
      </trkpt>
      <trkpt lat="42.65035" lon="0.15717">
        <ele>1335.4</ele>
        <time>2015-10-11T08:12:11Z</time>
      </trkpt>
      <trkpt lat="42.65046" lon="0.1573">
        <ele>1336.8</ele>
        <time>2015-10-11T08:12:19Z</time>
      </trkpt>
      <trkpt lat="42.65058" lon="0.15736">
        <ele>1338.3</ele>
        <time>2015-10-11T08:12:26Z</time>
      </trkpt>
      <trkpt lat="42.6507" lon="0.15724">
        <ele>1340.2</ele>
        <time>2015-10-11T08:12:35Z</time>
      </trkpt>
      <trkpt lat="42.65073" lon="0.15708">
        <ele>1341.7</ele>
        <time>2015-10-11T08:12:42Z</time>
      </trkpt>
      <trkpt lat="42.65072" lon="0.15688">
        <ele>1343.6</ele>
        <time>2015-10-11T08:12:50Z</time>
      </trkpt>
      <trkpt lat="42.65066" lon="0.15675">
        <ele>1345</ele>
        <time>2015-10-11T08:12:56Z</time>
      </trkpt>
      <trkpt lat="42.65065" lon="0.15673">
        <ele>1345</ele>
        <time>2015-10-11T08:12:57Z</time>
      </trkpt>
      <trkpt lat="42.65063" lon="0.15672">
        <ele>1345</ele>
        <time>2015-10-11T08:12:58Z</time>
      </trkpt>
      <trkpt lat="42.65062" lon="0.1567">
        <ele>1345</ele>
        <time>2015-10-11T08:12:59Z</time>
      </trkpt>
      <trkpt lat="42.6506" lon="0.15668">
        <ele>1345</ele>
        <time>2015-10-11T08:13:00Z</time>
      </trkpt>
      <trkpt lat="42.65045" lon="0.15653">
        <ele>1347.4</ele>
        <time>2015-10-11T08:13:10Z</time>
      </trkpt>
      <trkpt lat="42.65031" lon="0.15638">
        <ele>1348.9</ele>
        <time>2015-10-11T08:13:19Z</time>
      </trkpt>
      <trkpt lat="42.65024" lon="0.15617">
        <ele>1350.3</ele>
        <time>2015-10-11T08:13:28Z</time>
      </trkpt>
      <trkpt lat="42.65027" lon="0.15606">
        <ele>1350.8</ele>
        <time>2015-10-11T08:13:33Z</time>
      </trkpt>
      <trkpt lat="42.65029" lon="0.15605">
        <ele>1350.8</ele>
        <time>2015-10-11T08:13:34Z</time>
      </trkpt>
      <trkpt lat="42.6503" lon="0.15604">
        <ele>1351.3</ele>
        <time>2015-10-11T08:13:35Z</time>
      </trkpt>
      <trkpt lat="42.65032" lon="0.15603">
        <ele>1351.3</ele>
        <time>2015-10-11T08:13:36Z</time>
      </trkpt>
      <trkpt lat="42.65034" lon="0.15603">
        <ele>1351.8</ele>
        <time>2015-10-11T08:13:37Z</time>
      </trkpt>
      <trkpt lat="42.65035" lon="0.15603">
        <ele>1351.8</ele>
        <time>2015-10-11T08:13:38Z</time>
      </trkpt>
      <trkpt lat="42.65037" lon="0.15603">
        <ele>1351.8</ele>
        <time>2015-10-11T08:13:39Z</time>
      </trkpt>
      <trkpt lat="42.65038" lon="0.15604">
        <ele>1352.2</ele>
        <time>2015-10-11T08:13:40Z</time>
      </trkpt>
      <trkpt lat="42.6504" lon="0.15604">
        <ele>1352.7</ele>
        <time>2015-10-11T08:13:41Z</time>
      </trkpt>
      <trkpt lat="42.65042" lon="0.15604">
        <ele>1352.7</ele>
        <time>2015-10-11T08:13:42Z</time>
      </trkpt>
      <trkpt lat="42.65056" lon="0.15608">
        <ele>1354.2</ele>
        <time>2015-10-11T08:13:50Z</time>
      </trkpt>
      <trkpt lat="42.65076" lon="0.15614">
        <ele>1355.6</ele>
        <time>2015-10-11T08:14:00Z</time>
      </trkpt>
      <trkpt lat="42.65092" lon="0.15619">
        <ele>1357</ele>
        <time>2015-10-11T08:14:09Z</time>
      </trkpt>
      <trkpt lat="42.65106" lon="0.15624">
        <ele>1358</ele>
        <time>2015-10-11T08:14:17Z</time>
      </trkpt>
      <trkpt lat="42.65123" lon="0.15627">
        <ele>1359.9</ele>
        <time>2015-10-11T08:14:27Z</time>
      </trkpt>
      <trkpt lat="42.65139" lon="0.1562">
        <ele>1361.4</ele>
        <time>2015-10-11T08:14:36Z</time>
      </trkpt>
      <trkpt lat="42.65155" lon="0.15609">
        <ele>1363.8</ele>
        <time>2015-10-11T08:14:46Z</time>
      </trkpt>
      <trkpt lat="42.65169" lon="0.15595">
        <ele>1366.2</ele>
        <time>2015-10-11T08:14:56Z</time>
      </trkpt>
      <trkpt lat="42.65177" lon="0.15576">
        <ele>1368.1</ele>
        <time>2015-10-11T08:15:06Z</time>
      </trkpt>
      <trkpt lat="42.65187" lon="0.15559">
        <ele>1370.5</ele>
        <time>2015-10-11T08:15:16Z</time>
      </trkpt>
      <trkpt lat="42.65188" lon="0.1556">
        <ele>1370.5</ele>
        <time>2015-10-11T08:15:17Z</time>
      </trkpt>
      <trkpt lat="42.65191" lon="0.15562">
        <ele>1371</ele>
        <time>2015-10-11T08:15:19Z</time>
      </trkpt>
      <trkpt lat="42.65192" lon="0.15564">
        <ele>1371.5</ele>
        <time>2015-10-11T08:15:20Z</time>
      </trkpt>
      <trkpt lat="42.65193" lon="0.15567">
        <ele>1371.5</ele>
        <time>2015-10-11T08:15:21Z</time>
      </trkpt>
      <trkpt lat="42.65195" lon="0.15586">
        <ele>1373.4</ele>
        <time>2015-10-11T08:15:29Z</time>
      </trkpt>
      <trkpt lat="42.65194" lon="0.15609">
        <ele>1374.8</ele>
        <time>2015-10-11T08:15:38Z</time>
      </trkpt>
      <trkpt lat="42.65196" lon="0.15627">
        <ele>1374.8</ele>
        <time>2015-10-11T08:15:45Z</time>
      </trkpt>
      <trkpt lat="42.65205" lon="0.15647">
        <ele>1376.3</ele>
        <time>2015-10-11T08:15:54Z</time>
      </trkpt>
      <trkpt lat="42.65218" lon="0.15663">
        <ele>1377.7</ele>
        <time>2015-10-11T08:16:03Z</time>
      </trkpt>
      <trkpt lat="42.65227" lon="0.1568">
        <ele>1378.7</ele>
        <time>2015-10-11T08:16:11Z</time>
      </trkpt>
      <trkpt lat="42.65232" lon="0.15703">
        <ele>1380.1</ele>
        <time>2015-10-11T08:16:20Z</time>
      </trkpt>
      <trkpt lat="42.65236" lon="0.15726">
        <ele>1381.1</ele>
        <time>2015-10-11T08:16:29Z</time>
      </trkpt>
      <trkpt lat="42.6524" lon="0.15738">
        <ele>1381.6</ele>
        <time>2015-10-11T08:16:34Z</time>
      </trkpt>
      <trkpt lat="42.65241" lon="0.15739">
        <ele>1381.6</ele>
        <time>2015-10-11T08:16:35Z</time>
      </trkpt>
      <trkpt lat="42.65243" lon="0.15741">
        <ele>1381.6</ele>
        <time>2015-10-11T08:16:36Z</time>
      </trkpt>
      <trkpt lat="42.65244" lon="0.15742">
        <ele>1381.6</ele>
        <time>2015-10-11T08:16:37Z</time>
      </trkpt>
      <trkpt lat="42.65245" lon="0.15744">
        <ele>1382</ele>
        <time>2015-10-11T08:16:38Z</time>
      </trkpt>
      <trkpt lat="42.65247" lon="0.15744">
        <ele>1382.5</ele>
        <time>2015-10-11T08:16:39Z</time>
      </trkpt>
      <trkpt lat="42.65248" lon="0.15744">
        <ele>1382.5</ele>
        <time>2015-10-11T08:16:40Z</time>
      </trkpt>
      <trkpt lat="42.6525" lon="0.15744">
        <ele>1383</ele>
        <time>2015-10-11T08:16:41Z</time>
      </trkpt>
      <trkpt lat="42.65251" lon="0.15742">
        <ele>1383</ele>
        <time>2015-10-11T08:16:42Z</time>
      </trkpt>
      <trkpt lat="42.65253" lon="0.15741">
        <ele>1383</ele>
        <time>2015-10-11T08:16:43Z</time>
      </trkpt>
      <trkpt lat="42.65254" lon="0.15739">
        <ele>1383.5</ele>
        <time>2015-10-11T08:16:44Z</time>
      </trkpt>
      <trkpt lat="42.65256" lon="0.1572">
        <ele>1384.9</ele>
        <time>2015-10-11T08:16:53Z</time>
      </trkpt>
      <trkpt lat="42.65255" lon="0.15713">
        <ele>1385.4</ele>
        <time>2015-10-11T08:16:56Z</time>
      </trkpt>
      <trkpt lat="42.65255" lon="0.15711">
        <ele>1385.9</ele>
        <time>2015-10-11T08:16:57Z</time>
      </trkpt>
      <trkpt lat="42.65256" lon="0.15689">
        <ele>1387.8</ele>
        <time>2015-10-11T08:17:07Z</time>
      </trkpt>
      <trkpt lat="42.65264" lon="0.1569">
        <ele>1388.8</ele>
        <time>2015-10-11T08:17:14Z</time>
      </trkpt>
      <trkpt lat="42.65268" lon="0.15697">
        <ele>1389.7</ele>
        <time>2015-10-11T08:17:17Z</time>
      </trkpt>
      <trkpt lat="42.65269" lon="0.15699">
        <ele>1389.7</ele>
        <time>2015-10-11T08:17:18Z</time>
      </trkpt>
      <trkpt lat="42.65269" lon="0.15702">
        <ele>1389.7</ele>
        <time>2015-10-11T08:17:19Z</time>
      </trkpt>
      <trkpt lat="42.6527" lon="0.15704">
        <ele>1389.7</ele>
        <time>2015-10-11T08:17:20Z</time>
      </trkpt>
      <trkpt lat="42.6527" lon="0.15707">
        <ele>1389.7</ele>
        <time>2015-10-11T08:17:21Z</time>
      </trkpt>
      <trkpt lat="42.6527" lon="0.15709">
        <ele>1390.7</ele>
        <time>2015-10-11T08:17:22Z</time>
      </trkpt>
      <trkpt lat="42.65275" lon="0.15734">
        <ele>1391.2</ele>
        <time>2015-10-11T08:17:32Z</time>
      </trkpt>
      <trkpt lat="42.65276" lon="0.15753">
        <ele>1391.7</ele>
        <time>2015-10-11T08:17:39Z</time>
      </trkpt>
      <trkpt lat="42.65272" lon="0.15779">
        <ele>1392.6</ele>
        <time>2015-10-11T08:17:48Z</time>
      </trkpt>
      <trkpt lat="42.65265" lon="0.15798">
        <ele>1393.6</ele>
        <time>2015-10-11T08:17:56Z</time>
      </trkpt>
      <trkpt lat="42.65263" lon="0.15814">
        <ele>1394.1</ele>
        <time>2015-10-11T08:18:02Z</time>
      </trkpt>
      <trkpt lat="42.65263" lon="0.15816">
        <ele>1394.1</ele>
        <time>2015-10-11T08:18:03Z</time>
      </trkpt>
      <trkpt lat="42.65264" lon="0.15819">
        <ele>1394.1</ele>
        <time>2015-10-11T08:18:04Z</time>
      </trkpt>
      <trkpt lat="42.65265" lon="0.1582">
        <ele>1394.5</ele>
        <time>2015-10-11T08:18:05Z</time>
      </trkpt>
      <trkpt lat="42.65267" lon="0.15821">
        <ele>1394.5</ele>
        <time>2015-10-11T08:18:06Z</time>
      </trkpt>
      <trkpt lat="42.65268" lon="0.15821">
        <ele>1395</ele>
        <time>2015-10-11T08:18:07Z</time>
      </trkpt>
      <trkpt lat="42.6527" lon="0.15821">
        <ele>1395</ele>
        <time>2015-10-11T08:18:08Z</time>
      </trkpt>
      <trkpt lat="42.65272" lon="0.15821">
        <ele>1395</ele>
        <time>2015-10-11T08:18:09Z</time>
      </trkpt>
      <trkpt lat="42.65273" lon="0.15819">
        <ele>1395</ele>
        <time>2015-10-11T08:18:10Z</time>
      </trkpt>
      <trkpt lat="42.65274" lon="0.15818">
        <ele>1395.5</ele>
        <time>2015-10-11T08:18:11Z</time>
      </trkpt>
      <trkpt lat="42.65274" lon="0.15816">
        <ele>1395.5</ele>
        <time>2015-10-11T08:18:12Z</time>
      </trkpt>
      <trkpt lat="42.65275" lon="0.15814">
        <ele>1396</ele>
        <time>2015-10-11T08:18:13Z</time>
      </trkpt>
      <trkpt lat="42.65276" lon="0.15812">
        <ele>1396</ele>
        <time>2015-10-11T08:18:14Z</time>
      </trkpt>
      <trkpt lat="42.65281" lon="0.15796">
        <ele>1397.4</ele>
        <time>2015-10-11T08:18:21Z</time>
      </trkpt>
      <trkpt lat="42.65288" lon="0.15776">
        <ele>1398.4</ele>
        <time>2015-10-11T08:18:29Z</time>
      </trkpt>
      <trkpt lat="42.65294" lon="0.15744">
        <ele>1399.8</ele>
        <time>2015-10-11T08:18:40Z</time>
      </trkpt>
      <trkpt lat="42.65295" lon="0.15721">
        <ele>1400.8</ele>
        <time>2015-10-11T08:18:48Z</time>
      </trkpt>
      <trkpt lat="42.65297" lon="0.15697">
        <ele>1402.7</ele>
        <time>2015-10-11T08:18:57Z</time>
      </trkpt>
      <trkpt lat="42.65307" lon="0.15682">
        <ele>1404.1</ele>
        <time>2015-10-11T08:19:05Z</time>
      </trkpt>
      <trkpt lat="42.65317" lon="0.15669">
        <ele>1406.1</ele>
        <time>2015-10-11T08:19:13Z</time>
      </trkpt>
      <trkpt lat="42.65321" lon="0.15653">
        <ele>1407</ele>
        <time>2015-10-11T08:19:20Z</time>
      </trkpt>
      <trkpt lat="42.65318" lon="0.15629">
        <ele>1408.5</ele>
        <time>2015-10-11T08:19:30Z</time>
      </trkpt>
      <trkpt lat="42.6531" lon="0.15604">
        <ele>1410.4</ele>
        <time>2015-10-11T08:19:40Z</time>
      </trkpt>
      <trkpt lat="42.65315" lon="0.15587">
        <ele>1411.8</ele>
        <time>2015-10-11T08:19:48Z</time>
      </trkpt>
      <trkpt lat="42.65327" lon="0.15581">
        <ele>1414.2</ele>
        <time>2015-10-11T08:19:56Z</time>
      </trkpt>
      <trkpt lat="42.65342" lon="0.15576">
        <ele>1416.6</ele>
        <time>2015-10-11T08:20:05Z</time>
      </trkpt>
      <trkpt lat="42.65355" lon="0.15572">
        <ele>1417.6</ele>
        <time>2015-10-11T08:20:13Z</time>
      </trkpt>
      <trkpt lat="42.65369" lon="0.15567">
        <ele>1419</ele>
        <time>2015-10-11T08:20:20Z</time>
      </trkpt>
      <trkpt lat="42.65382" lon="0.15558">
        <ele>1420.5</ele>
        <time>2015-10-11T08:20:28Z</time>
      </trkpt>
      <trkpt lat="42.65393" lon="0.1554">
        <ele>1422.9</ele>
        <time>2015-10-11T08:20:37Z</time>
      </trkpt>
      <trkpt lat="42.65398" lon="0.15516">
        <ele>1424.8</ele>
        <time>2015-10-11T08:20:47Z</time>
      </trkpt>
      <trkpt lat="42.65401" lon="0.15497">
        <ele>1426.2</ele>
        <time>2015-10-11T08:20:55Z</time>
      </trkpt>
      <trkpt lat="42.65405" lon="0.15472">
        <ele>1427.7</ele>
        <time>2015-10-11T08:21:04Z</time>
      </trkpt>
      <trkpt lat="42.65415" lon="0.15443">
        <ele>1429.1</ele>
        <time>2015-10-11T08:21:15Z</time>
      </trkpt>
      <trkpt lat="42.65423" lon="0.15424">
        <ele>1430.1</ele>
        <time>2015-10-11T08:21:23Z</time>
      </trkpt>
      <trkpt lat="42.65428" lon="0.15402">
        <ele>1431.1</ele>
        <time>2015-10-11T08:21:31Z</time>
      </trkpt>
      <trkpt lat="42.65434" lon="0.15385">
        <ele>1432.5</ele>
        <time>2015-10-11T08:21:38Z</time>
      </trkpt>
      <trkpt lat="42.6544" lon="0.15372">
        <ele>1433.5</ele>
        <time>2015-10-11T08:21:44Z</time>
      </trkpt>
      <trkpt lat="42.65447" lon="0.15358">
        <ele>1434.9</ele>
        <time>2015-10-11T08:21:52Z</time>
      </trkpt>
      <trkpt lat="42.65454" lon="0.15342">
        <ele>1436.3</ele>
        <time>2015-10-11T08:22:00Z</time>
      </trkpt>
      <trkpt lat="42.65458" lon="0.15333">
        <ele>1437.8</ele>
        <time>2015-10-11T08:22:05Z</time>
      </trkpt>
      <trkpt lat="42.65459" lon="0.15332">
        <ele>1437.8</ele>
        <time>2015-10-11T08:22:06Z</time>
      </trkpt>
      <trkpt lat="42.65464" lon="0.15322">
        <ele>1438.8</ele>
        <time>2015-10-11T08:22:13Z</time>
      </trkpt>
      <trkpt lat="42.65469" lon="0.15317">
        <ele>1439.7</ele>
        <time>2015-10-11T08:22:17Z</time>
      </trkpt>
      <trkpt lat="42.6547" lon="0.15315">
        <ele>1439.7</ele>
        <time>2015-10-11T08:22:18Z</time>
      </trkpt>
      <trkpt lat="42.6547" lon="0.15313">
        <ele>1440.2</ele>
        <time>2015-10-11T08:22:19Z</time>
      </trkpt>
      <trkpt lat="42.65476" lon="0.15293">
        <ele>1441.6</ele>
        <time>2015-10-11T08:22:29Z</time>
      </trkpt>
      <trkpt lat="42.65481" lon="0.1528">
        <ele>1442.6</ele>
        <time>2015-10-11T08:22:36Z</time>
      </trkpt>
      <trkpt lat="42.65482" lon="0.15278">
        <ele>1443.1</ele>
        <time>2015-10-11T08:22:37Z</time>
      </trkpt>
      <trkpt lat="42.65483" lon="0.15276">
        <ele>1443.1</ele>
        <time>2015-10-11T08:22:38Z</time>
      </trkpt>
      <trkpt lat="42.65484" lon="0.15274">
        <ele>1443.1</ele>
        <time>2015-10-11T08:22:39Z</time>
      </trkpt>
      <trkpt lat="42.65484" lon="0.15273">
        <ele>1443.1</ele>
        <time>2015-10-11T08:22:40Z</time>
      </trkpt>
      <trkpt lat="42.65485" lon="0.15271">
        <ele>1443.6</ele>
        <time>2015-10-11T08:22:41Z</time>
      </trkpt>
      <trkpt lat="42.65487" lon="0.1527">
        <ele>1443.6</ele>
        <time>2015-10-11T08:22:42Z</time>
      </trkpt>
      <trkpt lat="42.65488" lon="0.15268">
        <ele>1443.6</ele>
        <time>2015-10-11T08:22:43Z</time>
      </trkpt>
      <trkpt lat="42.65489" lon="0.15267">
        <ele>1444.5</ele>
        <time>2015-10-11T08:22:44Z</time>
      </trkpt>
      <trkpt lat="42.65491" lon="0.15265">
        <ele>1444.5</ele>
        <time>2015-10-11T08:22:45Z</time>
      </trkpt>
      <trkpt lat="42.655" lon="0.15253">
        <ele>1445.5</ele>
        <time>2015-10-11T08:22:53Z</time>
      </trkpt>
      <trkpt lat="42.65509" lon="0.15237">
        <ele>1447.9</ele>
        <time>2015-10-11T08:23:02Z</time>
      </trkpt>
      <trkpt lat="42.65515" lon="0.15221">
        <ele>1450.3</ele>
        <time>2015-10-11T08:23:11Z</time>
      </trkpt>
      <trkpt lat="42.65526" lon="0.15211">
        <ele>1451.2</ele>
        <time>2015-10-11T08:23:19Z</time>
      </trkpt>
      <trkpt lat="42.65533" lon="0.15207">
        <ele>1452.2</ele>
        <time>2015-10-11T08:23:24Z</time>
      </trkpt>
      <trkpt lat="42.65534" lon="0.15206">
        <ele>1452.7</ele>
        <time>2015-10-11T08:23:25Z</time>
      </trkpt>
      <trkpt lat="42.65536" lon="0.15204">
        <ele>1452.2</ele>
        <time>2015-10-11T08:23:26Z</time>
      </trkpt>
      <trkpt lat="42.65537" lon="0.15202">
        <ele>1452.2</ele>
        <time>2015-10-11T08:23:27Z</time>
      </trkpt>
      <trkpt lat="42.65537" lon="0.15199">
        <ele>1453.2</ele>
        <time>2015-10-11T08:23:28Z</time>
      </trkpt>
      <trkpt lat="42.65538" lon="0.15197">
        <ele>1453.2</ele>
        <time>2015-10-11T08:23:29Z</time>
      </trkpt>
      <trkpt lat="42.65538" lon="0.15195">
        <ele>1453.2</ele>
        <time>2015-10-11T08:23:30Z</time>
      </trkpt>
      <trkpt lat="42.65537" lon="0.15192">
        <ele>1453.7</ele>
        <time>2015-10-11T08:23:31Z</time>
      </trkpt>
      <trkpt lat="42.65537" lon="0.1519">
        <ele>1453.7</ele>
        <time>2015-10-11T08:23:32Z</time>
      </trkpt>
      <trkpt lat="42.65536" lon="0.15188">
        <ele>1453.7</ele>
        <time>2015-10-11T08:23:33Z</time>
      </trkpt>
      <trkpt lat="42.65535" lon="0.15186">
        <ele>1453.7</ele>
        <time>2015-10-11T08:23:34Z</time>
      </trkpt>
      <trkpt lat="42.65534" lon="0.15185">
        <ele>1454.1</ele>
        <time>2015-10-11T08:23:35Z</time>
      </trkpt>
      <trkpt lat="42.65531" lon="0.1518">
        <ele>1454.6</ele>
        <time>2015-10-11T08:23:38Z</time>
      </trkpt>
      <trkpt lat="42.65528" lon="0.15176">
        <ele>1455.6</ele>
        <time>2015-10-11T08:23:42Z</time>
      </trkpt>
      <trkpt lat="42.65522" lon="0.15171">
        <ele>1456.1</ele>
        <time>2015-10-11T08:23:49Z</time>
      </trkpt>
      <trkpt lat="42.6552" lon="0.15161">
        <ele>1457</ele>
        <time>2015-10-11T08:23:56Z</time>
      </trkpt>
      <trkpt lat="42.6552" lon="0.1516">
        <ele>1457</ele>
        <time>2015-10-11T08:24:10Z</time>
      </trkpt>
      <trkpt lat="42.6552" lon="0.15159">
        <ele>1457</ele>
        <time>2015-10-11T08:24:23Z</time>
      </trkpt>
      <trkpt lat="42.6552" lon="0.1516">
        <ele>1457</ele>
        <time>2015-10-11T08:24:36Z</time>
      </trkpt>
      <trkpt lat="42.65523" lon="0.15154">
        <ele>1458</ele>
        <time>2015-10-11T08:24:42Z</time>
      </trkpt>
      <trkpt lat="42.65524" lon="0.15154">
        <ele>1458</ele>
        <time>2015-10-11T08:24:50Z</time>
      </trkpt>
      <trkpt lat="42.65524" lon="0.15154">
        <ele>1458</ele>
        <time>2015-10-11T08:25:10Z</time>
      </trkpt>
      <trkpt lat="42.65523" lon="0.15152">
        <ele>1458</ele>
        <time>2015-10-11T08:25:20Z</time>
      </trkpt>
      <trkpt lat="42.65525" lon="0.1515">
        <ele>1458</ele>
        <time>2015-10-11T08:25:27Z</time>
      </trkpt>
      <trkpt lat="42.65525" lon="0.15152">
        <ele>1458</ele>
        <time>2015-10-11T08:25:31Z</time>
      </trkpt>
      <trkpt lat="42.65523" lon="0.15153">
        <ele>1458</ele>
        <time>2015-10-11T08:25:44Z</time>
      </trkpt>
      <trkpt lat="42.65522" lon="0.15154">
        <ele>1458</ele>
        <time>2015-10-11T08:26:00Z</time>
      </trkpt>
      <trkpt lat="42.65522" lon="0.15152">
        <ele>1458</ele>
        <time>2015-10-11T08:26:16Z</time>
      </trkpt>
      <trkpt lat="42.65523" lon="0.15153">
        <ele>1458</ele>
        <time>2015-10-11T08:26:29Z</time>
      </trkpt>
      <trkpt lat="42.65522" lon="0.15154">
        <ele>1458</ele>
        <time>2015-10-11T08:26:43Z</time>
      </trkpt>
      <trkpt lat="42.65523" lon="0.15153">
        <ele>1458</ele>
        <time>2015-10-11T08:26:53Z</time>
      </trkpt>
      <trkpt lat="42.65527" lon="0.1514">
        <ele>1459.4</ele>
        <time>2015-10-11T08:27:02Z</time>
      </trkpt>
      <trkpt lat="42.65532" lon="0.15126">
        <ele>1460.4</ele>
        <time>2015-10-11T08:27:10Z</time>
      </trkpt>
      <trkpt lat="42.65536" lon="0.15111">
        <ele>1462.3</ele>
        <time>2015-10-11T08:27:18Z</time>
      </trkpt>
      <trkpt lat="42.65536" lon="0.15109">
        <ele>1462.3</ele>
        <time>2015-10-11T08:27:19Z</time>
      </trkpt>
      <trkpt lat="42.65541" lon="0.15088">
        <ele>1464.7</ele>
        <time>2015-10-11T08:27:29Z</time>
      </trkpt>
      <trkpt lat="42.65545" lon="0.15068">
        <ele>1466.2</ele>
        <time>2015-10-11T08:27:39Z</time>
      </trkpt>
      <trkpt lat="42.65552" lon="0.1505">
        <ele>1468.1</ele>
        <time>2015-10-11T08:27:49Z</time>
      </trkpt>
      <trkpt lat="42.65557" lon="0.15038">
        <ele>1469</ele>
        <time>2015-10-11T08:27:56Z</time>
      </trkpt>
      <trkpt lat="42.65565" lon="0.15027">
        <ele>1470.5</ele>
        <time>2015-10-11T08:28:04Z</time>
      </trkpt>
      <trkpt lat="42.65566" lon="0.15025">
        <ele>1470.5</ele>
        <time>2015-10-11T08:28:05Z</time>
      </trkpt>
      <trkpt lat="42.65567" lon="0.15024">
        <ele>1470.9</ele>
        <time>2015-10-11T08:28:06Z</time>
      </trkpt>
      <trkpt lat="42.65575" lon="0.15014">
        <ele>1472.4</ele>
        <time>2015-10-11T08:28:14Z</time>
      </trkpt>
      <trkpt lat="42.65584" lon="0.15003">
        <ele>1473.8</ele>
        <time>2015-10-11T08:28:22Z</time>
      </trkpt>
      <trkpt lat="42.65585" lon="0.15001">
        <ele>1474.3</ele>
        <time>2015-10-11T08:28:23Z</time>
      </trkpt>
      <trkpt lat="42.65586" lon="0.14999">
        <ele>1474.3</ele>
        <time>2015-10-11T08:28:24Z</time>
      </trkpt>
      <trkpt lat="42.65586" lon="0.14997">
        <ele>1474.8</ele>
        <time>2015-10-11T08:28:25Z</time>
      </trkpt>
      <trkpt lat="42.65587" lon="0.14996">
        <ele>1474.8</ele>
        <time>2015-10-11T08:28:26Z</time>
      </trkpt>
      <trkpt lat="42.65588" lon="0.14994">
        <ele>1475.3</ele>
        <time>2015-10-11T08:28:27Z</time>
      </trkpt>
      <trkpt lat="42.65595" lon="0.14982">
        <ele>1476.2</ele>
        <time>2015-10-11T08:28:34Z</time>
      </trkpt>
      <trkpt lat="42.65599" lon="0.1497">
        <ele>1477.2</ele>
        <time>2015-10-11T08:28:40Z</time>
      </trkpt>
      <trkpt lat="42.65599" lon="0.14967">
        <ele>1477.7</ele>
        <time>2015-10-11T08:28:41Z</time>
      </trkpt>
      <trkpt lat="42.65603" lon="0.14946">
        <ele>1479.1</ele>
        <time>2015-10-11T08:28:51Z</time>
      </trkpt>
      <trkpt lat="42.65602" lon="0.14922">
        <ele>1481.1</ele>
        <time>2015-10-11T08:29:02Z</time>
      </trkpt>
      <trkpt lat="42.65601" lon="0.14902">
        <ele>1483.9</ele>
        <time>2015-10-11T08:29:13Z</time>
      </trkpt>
      <trkpt lat="42.656" lon="0.1488">
        <ele>1485.8</ele>
        <time>2015-10-11T08:29:23Z</time>
      </trkpt>
      <trkpt lat="42.65599" lon="0.14878">
        <ele>1485.8</ele>
        <time>2015-10-11T08:29:24Z</time>
      </trkpt>
      <trkpt lat="42.65599" lon="0.14876">
        <ele>1486.3</ele>
        <time>2015-10-11T08:29:25Z</time>
      </trkpt>
      <trkpt lat="42.65599" lon="0.14874">
        <ele>1486.3</ele>
        <time>2015-10-11T08:29:26Z</time>
      </trkpt>
      <trkpt lat="42.65599" lon="0.14872">
        <ele>1486.8</ele>
        <time>2015-10-11T08:29:27Z</time>
      </trkpt>
      <trkpt lat="42.65598" lon="0.1487">
        <ele>1486.8</ele>
        <time>2015-10-11T08:29:28Z</time>
      </trkpt>
      <trkpt lat="42.65598" lon="0.14869">
        <ele>1486.8</ele>
        <time>2015-10-11T08:29:29Z</time>
      </trkpt>
      <trkpt lat="42.65596" lon="0.14855">
        <ele>1488.7</ele>
        <time>2015-10-11T08:29:36Z</time>
      </trkpt>
      <trkpt lat="42.65596" lon="0.14836">
        <ele>1490.7</ele>
        <time>2015-10-11T08:29:46Z</time>
      </trkpt>
      <trkpt lat="42.65596" lon="0.1482">
        <ele>1491.6</ele>
        <time>2015-10-11T08:29:53Z</time>
      </trkpt>
      <trkpt lat="42.65596" lon="0.14818">
        <ele>1492.6</ele>
        <time>2015-10-11T08:29:54Z</time>
      </trkpt>
      <trkpt lat="42.65596" lon="0.14816">
        <ele>1492.6</ele>
        <time>2015-10-11T08:29:55Z</time>
      </trkpt>
      <trkpt lat="42.65596" lon="0.14814">
        <ele>1492.6</ele>
        <time>2015-10-11T08:29:56Z</time>
      </trkpt>
      <trkpt lat="42.65599" lon="0.14797">
        <ele>1494</ele>
        <time>2015-10-11T08:30:04Z</time>
      </trkpt>
      <trkpt lat="42.65603" lon="0.14781">
        <ele>1495.5</ele>
        <time>2015-10-11T08:30:12Z</time>
      </trkpt>
      <trkpt lat="42.65606" lon="0.14758">
        <ele>1497.4</ele>
        <time>2015-10-11T08:30:22Z</time>
      </trkpt>
      <trkpt lat="42.6561" lon="0.14734">
        <ele>1498.8</ele>
        <time>2015-10-11T08:30:32Z</time>
      </trkpt>
      <trkpt lat="42.65618" lon="0.14714">
        <ele>1500.3</ele>
        <time>2015-10-11T08:30:41Z</time>
      </trkpt>
      <trkpt lat="42.65627" lon="0.147">
        <ele>1501.2</ele>
        <time>2015-10-11T08:30:49Z</time>
      </trkpt>
      <trkpt lat="42.65639" lon="0.1468">
        <ele>1502.7</ele>
        <time>2015-10-11T08:30:59Z</time>
      </trkpt>
      <trkpt lat="42.65648" lon="0.14661">
        <ele>1504.1</ele>
        <time>2015-10-11T08:31:08Z</time>
      </trkpt>
      <trkpt lat="42.65647" lon="0.14642">
        <ele>1505.1</ele>
        <time>2015-10-11T08:31:16Z</time>
      </trkpt>
      <trkpt lat="42.65646" lon="0.14637">
        <ele>1505.1</ele>
        <time>2015-10-11T08:31:18Z</time>
      </trkpt>
      <trkpt lat="42.65645" lon="0.14635">
        <ele>1505.6</ele>
        <time>2015-10-11T08:31:19Z</time>
      </trkpt>
      <trkpt lat="42.65645" lon="0.14632">
        <ele>1505.6</ele>
        <time>2015-10-11T08:31:20Z</time>
      </trkpt>
      <trkpt lat="42.65644" lon="0.1463">
        <ele>1505.6</ele>
        <time>2015-10-11T08:31:21Z</time>
      </trkpt>
      <trkpt lat="42.65644" lon="0.14628">
        <ele>1505.6</ele>
        <time>2015-10-11T08:31:22Z</time>
      </trkpt>
      <trkpt lat="42.65645" lon="0.14626">
        <ele>1506</ele>
        <time>2015-10-11T08:31:23Z</time>
      </trkpt>
      <trkpt lat="42.65646" lon="0.14622">
        <ele>1506</ele>
        <time>2015-10-11T08:31:24Z</time>
      </trkpt>
      <trkpt lat="42.65647" lon="0.14619">
        <ele>1506</ele>
        <time>2015-10-11T08:31:25Z</time>
      </trkpt>
      <trkpt lat="42.65646" lon="0.14616">
        <ele>1506.5</ele>
        <time>2015-10-11T08:31:26Z</time>
      </trkpt>
      <trkpt lat="42.65646" lon="0.14613">
        <ele>1506.5</ele>
        <time>2015-10-11T08:31:27Z</time>
      </trkpt>
      <trkpt lat="42.65645" lon="0.1461">
        <ele>1506.5</ele>
        <time>2015-10-11T08:31:28Z</time>
      </trkpt>
      <trkpt lat="42.65645" lon="0.14607">
        <ele>1506.5</ele>
        <time>2015-10-11T08:31:29Z</time>
      </trkpt>
      <trkpt lat="42.65642" lon="0.14584">
        <ele>1507.5</ele>
        <time>2015-10-11T08:31:36Z</time>
      </trkpt>
      <trkpt lat="42.65642" lon="0.14581">
        <ele>1507.5</ele>
        <time>2015-10-11T08:31:37Z</time>
      </trkpt>
      <trkpt lat="42.65647" lon="0.14564">
        <ele>1508.4</ele>
        <time>2015-10-11T08:31:44Z</time>
      </trkpt>
      <trkpt lat="42.65651" lon="0.14557">
        <ele>1509.4</ele>
        <time>2015-10-11T08:31:48Z</time>
      </trkpt>
      <trkpt lat="42.65653" lon="0.14555">
        <ele>1509.9</ele>
        <time>2015-10-11T08:31:49Z</time>
      </trkpt>
      <trkpt lat="42.65655" lon="0.14554">
        <ele>1509.9</ele>
        <time>2015-10-11T08:31:50Z</time>
      </trkpt>
      <trkpt lat="42.65666" lon="0.1454">
        <ele>1510.8</ele>
        <time>2015-10-11T08:31:58Z</time>
      </trkpt>
      <trkpt lat="42.65674" lon="0.14522">
        <ele>1511.3</ele>
        <time>2015-10-11T08:32:05Z</time>
      </trkpt>
      <trkpt lat="42.65674" lon="0.14519">
        <ele>1511.3</ele>
        <time>2015-10-11T08:32:06Z</time>
      </trkpt>
      <trkpt lat="42.6567" lon="0.14498">
        <ele>1511.8</ele>
        <time>2015-10-11T08:32:13Z</time>
      </trkpt>
      <trkpt lat="42.65664" lon="0.14478">
        <ele>1512.3</ele>
        <time>2015-10-11T08:32:20Z</time>
      </trkpt>
      <trkpt lat="42.65663" lon="0.14474">
        <ele>1512.8</ele>
        <time>2015-10-11T08:32:22Z</time>
      </trkpt>
      <trkpt lat="42.65661" lon="0.14472">
        <ele>1512.8</ele>
        <time>2015-10-11T08:32:23Z</time>
      </trkpt>
      <trkpt lat="42.6566" lon="0.14469">
        <ele>1512.8</ele>
        <time>2015-10-11T08:32:24Z</time>
      </trkpt>
      <trkpt lat="42.65659" lon="0.14466">
        <ele>1512.8</ele>
        <time>2015-10-11T08:32:25Z</time>
      </trkpt>
      <trkpt lat="42.65658" lon="0.14464">
        <ele>1512.8</ele>
        <time>2015-10-11T08:32:26Z</time>
      </trkpt>
      <trkpt lat="42.65657" lon="0.14461">
        <ele>1512.8</ele>
        <time>2015-10-11T08:32:27Z</time>
      </trkpt>
      <trkpt lat="42.65656" lon="0.14458">
        <ele>1512.8</ele>
        <time>2015-10-11T08:32:28Z</time>
      </trkpt>
      <trkpt lat="42.65654" lon="0.14456">
        <ele>1512.8</ele>
        <time>2015-10-11T08:32:29Z</time>
      </trkpt>
      <trkpt lat="42.65653" lon="0.14453">
        <ele>1512.8</ele>
        <time>2015-10-11T08:32:30Z</time>
      </trkpt>
      <trkpt lat="42.65652" lon="0.1445">
        <ele>1513.2</ele>
        <time>2015-10-11T08:32:31Z</time>
      </trkpt>
      <trkpt lat="42.65652" lon="0.14447">
        <ele>1513.2</ele>
        <time>2015-10-11T08:32:32Z</time>
      </trkpt>
      <trkpt lat="42.65652" lon="0.14444">
        <ele>1513.2</ele>
        <time>2015-10-11T08:32:33Z</time>
      </trkpt>
      <trkpt lat="42.65651" lon="0.14441">
        <ele>1513.2</ele>
        <time>2015-10-11T08:32:34Z</time>
      </trkpt>
      <trkpt lat="42.65651" lon="0.14438">
        <ele>1513.2</ele>
        <time>2015-10-11T08:32:35Z</time>
      </trkpt>
      <trkpt lat="42.65652" lon="0.14434">
        <ele>1513.7</ele>
        <time>2015-10-11T08:32:36Z</time>
      </trkpt>
      <trkpt lat="42.65654" lon="0.14411">
        <ele>1513.7</ele>
        <time>2015-10-11T08:32:43Z</time>
      </trkpt>
      <trkpt lat="42.65658" lon="0.14393">
        <ele>1513.7</ele>
        <time>2015-10-11T08:32:49Z</time>
      </trkpt>
      <trkpt lat="42.65666" lon="0.1437">
        <ele>1513.7</ele>
        <time>2015-10-11T08:32:56Z</time>
      </trkpt>
      <trkpt lat="42.65678" lon="0.14348">
        <ele>1515.2</ele>
        <time>2015-10-11T08:33:05Z</time>
      </trkpt>
      <trkpt lat="42.6569" lon="0.14327">
        <ele>1516.1</ele>
        <time>2015-10-11T08:33:13Z</time>
      </trkpt>
      <trkpt lat="42.65695" lon="0.14304">
        <ele>1516.1</ele>
        <time>2015-10-11T08:33:20Z</time>
      </trkpt>
      <trkpt lat="42.65696" lon="0.1428">
        <ele>1516.6</ele>
        <time>2015-10-11T08:33:27Z</time>
      </trkpt>
      <trkpt lat="42.65701" lon="0.14257">
        <ele>1517.1</ele>
        <time>2015-10-11T08:33:34Z</time>
      </trkpt>
      <trkpt lat="42.65712" lon="0.14234">
        <ele>1518.5</ele>
        <time>2015-10-11T08:33:43Z</time>
      </trkpt>
      <trkpt lat="42.65723" lon="0.14223">
        <ele>1519</ele>
        <time>2015-10-11T08:33:50Z</time>
      </trkpt>
      <trkpt lat="42.65738" lon="0.14211">
        <ele>1520</ele>
        <time>2015-10-11T08:33:57Z</time>
      </trkpt>
      <trkpt lat="42.65755" lon="0.14204">
        <ele>1520.5</ele>
        <time>2015-10-11T08:34:04Z</time>
      </trkpt>
      <trkpt lat="42.65776" lon="0.14187">
        <ele>1521.4</ele>
        <time>2015-10-11T08:34:14Z</time>
      </trkpt>
      <trkpt lat="42.65795" lon="0.14172">
        <ele>1522.4</ele>
        <time>2015-10-11T08:34:23Z</time>
      </trkpt>
      <trkpt lat="42.65811" lon="0.14159">
        <ele>1522.9</ele>
        <time>2015-10-11T08:34:31Z</time>
      </trkpt>
      <trkpt lat="42.65825" lon="0.14138">
        <ele>1523.8</ele>
        <time>2015-10-11T08:34:39Z</time>
      </trkpt>
      <trkpt lat="42.65839" lon="0.14125">
        <ele>1524.3</ele>
        <time>2015-10-11T08:34:46Z</time>
      </trkpt>
      <trkpt lat="42.65856" lon="0.14109">
        <ele>1524.8</ele>
        <time>2015-10-11T08:34:54Z</time>
      </trkpt>
      <trkpt lat="42.65869" lon="0.14092">
        <ele>1525.3</ele>
        <time>2015-10-11T08:35:01Z</time>
      </trkpt>
      <trkpt lat="42.65879" lon="0.14073">
        <ele>1525.8</ele>
        <time>2015-10-11T08:35:08Z</time>
      </trkpt>
      <trkpt lat="42.65877" lon="0.14058">
        <ele>1526.2</ele>
        <time>2015-10-11T08:35:12Z</time>
      </trkpt>
      <trkpt lat="42.65862" lon="0.14043">
        <ele>1527.2</ele>
        <time>2015-10-11T08:35:20Z</time>
      </trkpt>
      <trkpt lat="42.65846" lon="0.14032">
        <ele>1527.2</ele>
        <time>2015-10-11T08:35:27Z</time>
      </trkpt>
      <trkpt lat="42.6583" lon="0.1402">
        <ele>1527.7</ele>
        <time>2015-10-11T08:35:34Z</time>
      </trkpt>
      <trkpt lat="42.65818" lon="0.14009">
        <ele>1528.2</ele>
        <time>2015-10-11T08:35:40Z</time>
      </trkpt>
      <trkpt lat="42.65818" lon="0.1399">
        <ele>1528.6</ele>
        <time>2015-10-11T08:35:45Z</time>
      </trkpt>
      <trkpt lat="42.6583" lon="0.13967">
        <ele>1529.1</ele>
        <time>2015-10-11T08:35:53Z</time>
      </trkpt>
      <trkpt lat="42.65848" lon="0.13946">
        <ele>1530.1</ele>
        <time>2015-10-11T08:36:02Z</time>
      </trkpt>
      <trkpt lat="42.65867" lon="0.13926">
        <ele>1530.1</ele>
        <time>2015-10-11T08:36:11Z</time>
      </trkpt>
      <trkpt lat="42.65883" lon="0.13921">
        <ele>1530.6</ele>
        <time>2015-10-11T08:36:18Z</time>
      </trkpt>
      <trkpt lat="42.65897" lon="0.13923">
        <ele>1531</ele>
        <time>2015-10-11T08:36:25Z</time>
      </trkpt>
      <trkpt lat="42.65916" lon="0.13919">
        <ele>1531</ele>
        <time>2015-10-11T08:36:33Z</time>
      </trkpt>
      <trkpt lat="42.65934" lon="0.13907">
        <ele>1531</ele>
        <time>2015-10-11T08:36:40Z</time>
      </trkpt>
      <trkpt lat="42.65947" lon="0.13897">
        <ele>1531.5</ele>
        <time>2015-10-11T08:36:47Z</time>
      </trkpt>
      <trkpt lat="42.65962" lon="0.13887">
        <ele>1531.5</ele>
        <time>2015-10-11T08:36:54Z</time>
      </trkpt>
      <trkpt lat="42.65961" lon="0.13886">
        <ele>1531.5</ele>
        <time>2015-10-11T08:37:01Z</time>
      </trkpt>
      <trkpt lat="42.65961" lon="0.13886">
        <ele>1531.5</ele>
        <time>2015-10-11T08:37:10Z</time>
      </trkpt>
      <trkpt lat="42.65961" lon="0.13885">
        <ele>1531.5</ele>
        <time>2015-10-11T08:37:21Z</time>
      </trkpt>
      <trkpt lat="42.6596" lon="0.13886">
        <ele>1531.5</ele>
        <time>2015-10-11T08:37:29Z</time>
      </trkpt>
      <trkpt lat="42.65961" lon="0.13886">
        <ele>1531.5</ele>
        <time>2015-10-11T08:37:38Z</time>
      </trkpt>
      <trkpt lat="42.65963" lon="0.13883">
        <ele>1531.5</ele>
        <time>2015-10-11T08:37:44Z</time>
      </trkpt>
      <trkpt lat="42.65975" lon="0.13868">
        <ele>1531.5</ele>
        <time>2015-10-11T08:37:51Z</time>
      </trkpt>
      <trkpt lat="42.65987" lon="0.13855">
        <ele>1530.6</ele>
        <time>2015-10-11T08:37:57Z</time>
      </trkpt>
      <trkpt lat="42.65994" lon="0.13847">
        <ele>1530.6</ele>
        <time>2015-10-11T08:38:01Z</time>
      </trkpt>
      <trkpt lat="42.65994" lon="0.13843">
        <ele>1530.6</ele>
        <time>2015-10-11T08:38:02Z</time>
      </trkpt>
      <trkpt lat="42.65994" lon="0.13839">
        <ele>1530.6</ele>
        <time>2015-10-11T08:38:03Z</time>
      </trkpt>
      <trkpt lat="42.65994" lon="0.13836">
        <ele>1530.6</ele>
        <time>2015-10-11T08:38:04Z</time>
      </trkpt>
      <trkpt lat="42.65993" lon="0.13832">
        <ele>1530.6</ele>
        <time>2015-10-11T08:38:05Z</time>
      </trkpt>
      <trkpt lat="42.65991" lon="0.13829">
        <ele>1530.6</ele>
        <time>2015-10-11T08:38:06Z</time>
      </trkpt>
      <trkpt lat="42.65988" lon="0.13827">
        <ele>1530.6</ele>
        <time>2015-10-11T08:38:07Z</time>
      </trkpt>
      <trkpt lat="42.65986" lon="0.13824">
        <ele>1530.6</ele>
        <time>2015-10-11T08:38:08Z</time>
      </trkpt>
      <trkpt lat="42.65984" lon="0.13822">
        <ele>1530.6</ele>
        <time>2015-10-11T08:38:09Z</time>
      </trkpt>
      <trkpt lat="42.65966" lon="0.13804">
        <ele>1530.6</ele>
        <time>2015-10-11T08:38:18Z</time>
      </trkpt>
      <trkpt lat="42.65945" lon="0.1379">
        <ele>1532</ele>
        <time>2015-10-11T08:38:27Z</time>
      </trkpt>
      <trkpt lat="42.65931" lon="0.13781">
        <ele>1533</ele>
        <time>2015-10-11T08:38:34Z</time>
      </trkpt>
      <trkpt lat="42.65919" lon="0.13753">
        <ele>1534.4</ele>
        <time>2015-10-11T08:38:44Z</time>
      </trkpt>
      <trkpt lat="42.65906" lon="0.13731">
        <ele>1535.8</ele>
        <time>2015-10-11T08:38:53Z</time>
      </trkpt>
      <trkpt lat="42.65898" lon="0.13711">
        <ele>1536.8</ele>
        <time>2015-10-11T08:39:01Z</time>
      </trkpt>
      <trkpt lat="42.65898" lon="0.13708">
        <ele>1536.8</ele>
        <time>2015-10-11T08:39:02Z</time>
      </trkpt>
      <trkpt lat="42.65897" lon="0.13705">
        <ele>1536.8</ele>
        <time>2015-10-11T08:39:03Z</time>
      </trkpt>
      <trkpt lat="42.65896" lon="0.13702">
        <ele>1536.8</ele>
        <time>2015-10-11T08:39:04Z</time>
      </trkpt>
      <trkpt lat="42.65894" lon="0.13699">
        <ele>1537.8</ele>
        <time>2015-10-11T08:39:05Z</time>
      </trkpt>
      <trkpt lat="42.65892" lon="0.13697">
        <ele>1537.8</ele>
        <time>2015-10-11T08:39:06Z</time>
      </trkpt>
      <trkpt lat="42.65891" lon="0.13695">
        <ele>1537.8</ele>
        <time>2015-10-11T08:39:07Z</time>
      </trkpt>
      <trkpt lat="42.65889" lon="0.13693">
        <ele>1538.2</ele>
        <time>2015-10-11T08:39:08Z</time>
      </trkpt>
      <trkpt lat="42.65875" lon="0.13677">
        <ele>1539.7</ele>
        <time>2015-10-11T08:39:17Z</time>
      </trkpt>
      <trkpt lat="42.6587" lon="0.13671">
        <ele>1540.2</ele>
        <time>2015-10-11T08:39:20Z</time>
      </trkpt>
      <trkpt lat="42.65859" lon="0.13643">
        <ele>1540.7</ele>
        <time>2015-10-11T08:39:29Z</time>
      </trkpt>
      <trkpt lat="42.65859" lon="0.13615">
        <ele>1541.1</ele>
        <time>2015-10-11T08:39:37Z</time>
      </trkpt>
      <trkpt lat="42.65863" lon="0.13589">
        <ele>1542.1</ele>
        <time>2015-10-11T08:39:45Z</time>
      </trkpt>
      <trkpt lat="42.65867" lon="0.13561">
        <ele>1544</ele>
        <time>2015-10-11T08:39:55Z</time>
      </trkpt>
      <trkpt lat="42.65871" lon="0.13535">
        <ele>1545.9</ele>
        <time>2015-10-11T08:40:05Z</time>
      </trkpt>
      <trkpt lat="42.65872" lon="0.13532">
        <ele>1545.9</ele>
        <time>2015-10-11T08:40:06Z</time>
      </trkpt>
      <trkpt lat="42.65877" lon="0.13514">
        <ele>1546.9</ele>
        <time>2015-10-11T08:40:13Z</time>
      </trkpt>
      <trkpt lat="42.6588" lon="0.13505">
        <ele>1547.9</ele>
        <time>2015-10-11T08:40:17Z</time>
      </trkpt>
      <trkpt lat="42.65881" lon="0.13503">
        <ele>1547.9</ele>
        <time>2015-10-11T08:40:18Z</time>
      </trkpt>
      <trkpt lat="42.65883" lon="0.13501">
        <ele>1547.9</ele>
        <time>2015-10-11T08:40:19Z</time>
      </trkpt>
      <trkpt lat="42.65884" lon="0.13499">
        <ele>1547.9</ele>
        <time>2015-10-11T08:40:20Z</time>
      </trkpt>
      <trkpt lat="42.65885" lon="0.13497">
        <ele>1547.9</ele>
        <time>2015-10-11T08:40:21Z</time>
      </trkpt>
      <trkpt lat="42.65894" lon="0.13476">
        <ele>1549.8</ele>
        <time>2015-10-11T08:40:29Z</time>
      </trkpt>
      <trkpt lat="42.65897" lon="0.13463">
        <ele>1550.3</ele>
        <time>2015-10-11T08:40:34Z</time>
      </trkpt>
      <trkpt lat="42.65898" lon="0.13461">
        <ele>1550.7</ele>
        <time>2015-10-11T08:40:35Z</time>
      </trkpt>
      <trkpt lat="42.65899" lon="0.13459">
        <ele>1551.2</ele>
        <time>2015-10-11T08:40:36Z</time>
      </trkpt>
      <trkpt lat="42.659" lon="0.13457">
        <ele>1551.2</ele>
        <time>2015-10-11T08:40:37Z</time>
      </trkpt>
      <trkpt lat="42.65901" lon="0.13454">
        <ele>1551.2</ele>
        <time>2015-10-11T08:40:38Z</time>
      </trkpt>
      <trkpt lat="42.65902" lon="0.13452">
        <ele>1551.2</ele>
        <time>2015-10-11T08:40:39Z</time>
      </trkpt>
      <trkpt lat="42.65903" lon="0.13449">
        <ele>1551.7</ele>
        <time>2015-10-11T08:40:40Z</time>
      </trkpt>
      <trkpt lat="42.65904" lon="0.13446">
        <ele>1551.7</ele>
        <time>2015-10-11T08:40:41Z</time>
      </trkpt>
      <trkpt lat="42.65905" lon="0.13444">
        <ele>1552.2</ele>
        <time>2015-10-11T08:40:42Z</time>
      </trkpt>
      <trkpt lat="42.65906" lon="0.13441">
        <ele>1552.2</ele>
        <time>2015-10-11T08:40:43Z</time>
      </trkpt>
      <trkpt lat="42.65907" lon="0.13439">
        <ele>1552.2</ele>
        <time>2015-10-11T08:40:44Z</time>
      </trkpt>
      <trkpt lat="42.65908" lon="0.13436">
        <ele>1552.2</ele>
        <time>2015-10-11T08:40:45Z</time>
      </trkpt>
      <trkpt lat="42.65908" lon="0.13434">
        <ele>1553.2</ele>
        <time>2015-10-11T08:40:46Z</time>
      </trkpt>
      <trkpt lat="42.65916" lon="0.13417">
        <ele>1553.6</ele>
        <time>2015-10-11T08:40:54Z</time>
      </trkpt>
      <trkpt lat="42.65925" lon="0.13399">
        <ele>1555.1</ele>
        <time>2015-10-11T08:41:02Z</time>
      </trkpt>
      <trkpt lat="42.65928" lon="0.13394">
        <ele>1556</ele>
        <time>2015-10-11T08:41:05Z</time>
      </trkpt>
      <trkpt lat="42.65934" lon="0.13376">
        <ele>1556.5</ele>
        <time>2015-10-11T08:41:12Z</time>
      </trkpt>
      <trkpt lat="42.65931" lon="0.13348">
        <ele>1557</ele>
        <time>2015-10-11T08:41:21Z</time>
      </trkpt>
      <trkpt lat="42.65934" lon="0.13321">
        <ele>1557.9</ele>
        <time>2015-10-11T08:41:30Z</time>
      </trkpt>
      <trkpt lat="42.65936" lon="0.13315">
        <ele>1558.4</ele>
        <time>2015-10-11T08:41:32Z</time>
      </trkpt>
      <trkpt lat="42.65937" lon="0.13313">
        <ele>1558.4</ele>
        <time>2015-10-11T08:41:33Z</time>
      </trkpt>
      <trkpt lat="42.65947" lon="0.133">
        <ele>1558.9</ele>
        <time>2015-10-11T08:41:40Z</time>
      </trkpt>
      <trkpt lat="42.65963" lon="0.13287">
        <ele>1560.4</ele>
        <time>2015-10-11T08:41:48Z</time>
      </trkpt>
      <trkpt lat="42.65979" lon="0.13279">
        <ele>1560.8</ele>
        <time>2015-10-11T08:41:55Z</time>
      </trkpt>
      <trkpt lat="42.65995" lon="0.13268">
        <ele>1561.3</ele>
        <time>2015-10-11T08:42:02Z</time>
      </trkpt>
      <trkpt lat="42.66013" lon="0.13253">
        <ele>1561.8</ele>
        <time>2015-10-11T08:42:10Z</time>
      </trkpt>
      <trkpt lat="42.66025" lon="0.13238">
        <ele>1562.3</ele>
        <time>2015-10-11T08:42:17Z</time>
      </trkpt>
      <trkpt lat="42.66038" lon="0.1322">
        <ele>1562.8</ele>
        <time>2015-10-11T08:42:25Z</time>
      </trkpt>
      <trkpt lat="42.66052" lon="0.13207">
        <ele>1563.7</ele>
        <time>2015-10-11T08:42:33Z</time>
      </trkpt>
      <trkpt lat="42.66067" lon="0.13193">
        <ele>1564.7</ele>
        <time>2015-10-11T08:42:41Z</time>
      </trkpt>
      <trkpt lat="42.66075" lon="0.13175">
        <ele>1565.2</ele>
        <time>2015-10-11T08:42:47Z</time>
      </trkpt>
      <trkpt lat="42.66081" lon="0.13156">
        <ele>1566.1</ele>
        <time>2015-10-11T08:42:54Z</time>
      </trkpt>
      <trkpt lat="42.66093" lon="0.13133">
        <ele>1567.1</ele>
        <time>2015-10-11T08:43:03Z</time>
      </trkpt>
      <trkpt lat="42.66105" lon="0.13113">
        <ele>1568.1</ele>
        <time>2015-10-11T08:43:11Z</time>
      </trkpt>
      <trkpt lat="42.66117" lon="0.13088">
        <ele>1569</ele>
        <time>2015-10-11T08:43:20Z</time>
      </trkpt>
      <trkpt lat="42.66119" lon="0.13065">
        <ele>1570</ele>
        <time>2015-10-11T08:43:27Z</time>
      </trkpt>
      <trkpt lat="42.66113" lon="0.13041">
        <ele>1570.4</ele>
        <time>2015-10-11T08:43:34Z</time>
      </trkpt>
      <trkpt lat="42.66098" lon="0.13018">
        <ele>1571.4</ele>
        <time>2015-10-11T08:43:43Z</time>
      </trkpt>
      <trkpt lat="42.66087" lon="0.12995">
        <ele>1572.4</ele>
        <time>2015-10-11T08:43:51Z</time>
      </trkpt>
      <trkpt lat="42.66078" lon="0.12971">
        <ele>1573.3</ele>
        <time>2015-10-11T08:43:59Z</time>
      </trkpt>
      <trkpt lat="42.66069" lon="0.12943">
        <ele>1574.8</ele>
        <time>2015-10-11T08:44:09Z</time>
      </trkpt>
      <trkpt lat="42.6607" lon="0.12937">
        <ele>1574.8</ele>
        <time>2015-10-11T08:44:11Z</time>
      </trkpt>
      <trkpt lat="42.66071" lon="0.12935">
        <ele>1574.8</ele>
        <time>2015-10-11T08:44:12Z</time>
      </trkpt>
      <trkpt lat="42.66072" lon="0.12933">
        <ele>1575.7</ele>
        <time>2015-10-11T08:44:13Z</time>
      </trkpt>
      <trkpt lat="42.66073" lon="0.12931">
        <ele>1575.7</ele>
        <time>2015-10-11T08:44:14Z</time>
      </trkpt>
      <trkpt lat="42.66074" lon="0.12929">
        <ele>1576.2</ele>
        <time>2015-10-11T08:44:15Z</time>
      </trkpt>
      <trkpt lat="42.66075" lon="0.12927">
        <ele>1576.2</ele>
        <time>2015-10-11T08:44:16Z</time>
      </trkpt>
      <trkpt lat="42.6609" lon="0.12907">
        <ele>1577.7</ele>
        <time>2015-10-11T08:44:25Z</time>
      </trkpt>
      <trkpt lat="42.66102" lon="0.12892">
        <ele>1578.6</ele>
        <time>2015-10-11T08:44:32Z</time>
      </trkpt>
      <trkpt lat="42.66109" lon="0.12865">
        <ele>1579.6</ele>
        <time>2015-10-11T08:44:40Z</time>
      </trkpt>
      <trkpt lat="42.66118" lon="0.12838">
        <ele>1580.5</ele>
        <time>2015-10-11T08:44:49Z</time>
      </trkpt>
      <trkpt lat="42.66127" lon="0.12812">
        <ele>1581</ele>
        <time>2015-10-11T08:44:58Z</time>
      </trkpt>
      <trkpt lat="42.66128" lon="0.12809">
        <ele>1581.5</ele>
        <time>2015-10-11T08:44:59Z</time>
      </trkpt>
      <trkpt lat="42.66129" lon="0.12805">
        <ele>1581.5</ele>
        <time>2015-10-11T08:45:00Z</time>
      </trkpt>
      <trkpt lat="42.66142" lon="0.12775">
        <ele>1582.5</ele>
        <time>2015-10-11T08:45:10Z</time>
      </trkpt>
      <trkpt lat="42.66154" lon="0.12745">
        <ele>1583.4</ele>
        <time>2015-10-11T08:45:20Z</time>
      </trkpt>
      <trkpt lat="42.66165" lon="0.12715">
        <ele>1584.4</ele>
        <time>2015-10-11T08:45:29Z</time>
      </trkpt>
      <trkpt lat="42.66176" lon="0.12694">
        <ele>1585.3</ele>
        <time>2015-10-11T08:45:36Z</time>
      </trkpt>
      <trkpt lat="42.66192" lon="0.12673">
        <ele>1586.3</ele>
        <time>2015-10-11T08:45:45Z</time>
      </trkpt>
      <trkpt lat="42.66205" lon="0.1265">
        <ele>1587.3</ele>
        <time>2015-10-11T08:45:53Z</time>
      </trkpt>
      <trkpt lat="42.66216" lon="0.12628">
        <ele>1587.3</ele>
        <time>2015-10-11T08:46:00Z</time>
      </trkpt>
      <trkpt lat="42.66223" lon="0.12602">
        <ele>1587.3</ele>
        <time>2015-10-11T08:46:06Z</time>
      </trkpt>
      <trkpt lat="42.66225" lon="0.12556">
        <ele>1587.8</ele>
        <time>2015-10-11T08:46:17Z</time>
      </trkpt>
      <trkpt lat="42.66225" lon="0.12527">
        <ele>1588.2</ele>
        <time>2015-10-11T08:46:24Z</time>
      </trkpt>
      <trkpt lat="42.66221" lon="0.12507">
        <ele>1589.2</ele>
        <time>2015-10-11T08:46:30Z</time>
      </trkpt>
      <trkpt lat="42.66225" lon="0.12481">
        <ele>1590.6</ele>
        <time>2015-10-11T08:46:38Z</time>
      </trkpt>
      <trkpt lat="42.66228" lon="0.12476">
        <ele>1591.1</ele>
        <time>2015-10-11T08:46:40Z</time>
      </trkpt>
      <trkpt lat="42.66238" lon="0.12458">
        <ele>1593</ele>
        <time>2015-10-11T08:46:48Z</time>
      </trkpt>
      <trkpt lat="42.66249" lon="0.12439">
        <ele>1594.5</ele>
        <time>2015-10-11T08:46:56Z</time>
      </trkpt>
      <trkpt lat="42.66255" lon="0.12415">
        <ele>1595.4</ele>
        <time>2015-10-11T08:47:04Z</time>
      </trkpt>
      <trkpt lat="42.66257" lon="0.12394">
        <ele>1597.4</ele>
        <time>2015-10-11T08:47:11Z</time>
      </trkpt>
      <trkpt lat="42.66265" lon="0.12377">
        <ele>1597.8</ele>
        <time>2015-10-11T08:47:18Z</time>
      </trkpt>
      <trkpt lat="42.66272" lon="0.12354">
        <ele>1599.8</ele>
        <time>2015-10-11T08:47:26Z</time>
      </trkpt>
      <trkpt lat="42.66274" lon="0.12329">
        <ele>1600.7</ele>
        <time>2015-10-11T08:47:34Z</time>
      </trkpt>
      <trkpt lat="42.66285" lon="0.12311">
        <ele>1601.7</ele>
        <time>2015-10-11T08:47:42Z</time>
      </trkpt>
      <trkpt lat="42.66298" lon="0.12294">
        <ele>1603.1</ele>
        <time>2015-10-11T08:47:50Z</time>
      </trkpt>
      <trkpt lat="42.66307" lon="0.12273">
        <ele>1604.6</ele>
        <time>2015-10-11T08:47:58Z</time>
      </trkpt>
      <trkpt lat="42.66315" lon="0.12247">
        <ele>1606.5</ele>
        <time>2015-10-11T08:48:07Z</time>
      </trkpt>
      <trkpt lat="42.66318" lon="0.12218">
        <ele>1608.4</ele>
        <time>2015-10-11T08:48:17Z</time>
      </trkpt>
      <trkpt lat="42.66325" lon="0.12197">
        <ele>1609.9</ele>
        <time>2015-10-11T08:48:25Z</time>
      </trkpt>
      <trkpt lat="42.66335" lon="0.12179">
        <ele>1611.3</ele>
        <time>2015-10-11T08:48:33Z</time>
      </trkpt>
      <trkpt lat="42.66335" lon="0.12176">
        <ele>1611.3</ele>
        <time>2015-10-11T08:48:34Z</time>
      </trkpt>
      <trkpt lat="42.66336" lon="0.12174">
        <ele>1611.8</ele>
        <time>2015-10-11T08:48:35Z</time>
      </trkpt>
      <trkpt lat="42.66337" lon="0.12171">
        <ele>1611.8</ele>
        <time>2015-10-11T08:48:36Z</time>
      </trkpt>
      <trkpt lat="42.66338" lon="0.12169">
        <ele>1611.8</ele>
        <time>2015-10-11T08:48:37Z</time>
      </trkpt>
      <trkpt lat="42.66339" lon="0.12166">
        <ele>1611.8</ele>
        <time>2015-10-11T08:48:38Z</time>
      </trkpt>
      <trkpt lat="42.6634" lon="0.12163">
        <ele>1612.3</ele>
        <time>2015-10-11T08:48:39Z</time>
      </trkpt>
      <trkpt lat="42.66348" lon="0.12145">
        <ele>1613.7</ele>
        <time>2015-10-11T08:48:46Z</time>
      </trkpt>
      <trkpt lat="42.66361" lon="0.12128">
        <ele>1615.2</ele>
        <time>2015-10-11T08:48:55Z</time>
      </trkpt>
      <trkpt lat="42.66374" lon="0.12115">
        <ele>1616.1</ele>
        <time>2015-10-11T08:49:02Z</time>
      </trkpt>
      <trkpt lat="42.66381" lon="0.12096">
        <ele>1617.1</ele>
        <time>2015-10-11T08:49:09Z</time>
      </trkpt>
      <trkpt lat="42.66387" lon="0.12076">
        <ele>1618</ele>
        <time>2015-10-11T08:49:16Z</time>
      </trkpt>
      <trkpt lat="42.66397" lon="0.12059">
        <ele>1619</ele>
        <time>2015-10-11T08:49:23Z</time>
      </trkpt>
      <trkpt lat="42.66399" lon="0.12056">
        <ele>1619.5</ele>
        <time>2015-10-11T08:49:24Z</time>
      </trkpt>
      <trkpt lat="42.664" lon="0.12054">
        <ele>1619.5</ele>
        <time>2015-10-11T08:49:25Z</time>
      </trkpt>
      <trkpt lat="42.66402" lon="0.12051">
        <ele>1619.5</ele>
        <time>2015-10-11T08:49:26Z</time>
      </trkpt>
      <trkpt lat="42.66404" lon="0.12048">
        <ele>1620</ele>
        <time>2015-10-11T08:49:27Z</time>
      </trkpt>
      <trkpt lat="42.66411" lon="0.12037">
        <ele>1620.4</ele>
        <time>2015-10-11T08:49:32Z</time>
      </trkpt>
      <trkpt lat="42.66412" lon="0.12035">
        <ele>1620.4</ele>
        <time>2015-10-11T08:49:33Z</time>
      </trkpt>
      <trkpt lat="42.66423" lon="0.12016">
        <ele>1621.9</ele>
        <time>2015-10-11T08:49:41Z</time>
      </trkpt>
      <trkpt lat="42.66432" lon="0.11997">
        <ele>1622.8</ele>
        <time>2015-10-11T08:49:49Z</time>
      </trkpt>
      <trkpt lat="42.6644" lon="0.11984">
        <ele>1623.8</ele>
        <time>2015-10-11T08:49:55Z</time>
      </trkpt>
      <trkpt lat="42.6645" lon="0.11967">
        <ele>1625.7</ele>
        <time>2015-10-11T08:50:03Z</time>
      </trkpt>
      <trkpt lat="42.66451" lon="0.11965">
        <ele>1625.7</ele>
        <time>2015-10-11T08:50:04Z</time>
      </trkpt>
      <trkpt lat="42.66462" lon="0.11943">
        <ele>1627.7</ele>
        <time>2015-10-11T08:50:14Z</time>
      </trkpt>
      <trkpt lat="42.66471" lon="0.11925">
        <ele>1629.6</ele>
        <time>2015-10-11T08:50:22Z</time>
      </trkpt>
      <trkpt lat="42.66484" lon="0.11912">
        <ele>1630.5</ele>
        <time>2015-10-11T08:50:30Z</time>
      </trkpt>
      <trkpt lat="42.66501" lon="0.11904">
        <ele>1632.5</ele>
        <time>2015-10-11T08:50:39Z</time>
      </trkpt>
      <trkpt lat="42.66514" lon="0.11897">
        <ele>1633.4</ele>
        <time>2015-10-11T08:50:46Z</time>
      </trkpt>
      <trkpt lat="42.66532" lon="0.11886">
        <ele>1634.9</ele>
        <time>2015-10-11T08:50:55Z</time>
      </trkpt>
      <trkpt lat="42.66544" lon="0.11869">
        <ele>1635.8</ele>
        <time>2015-10-11T08:51:03Z</time>
      </trkpt>
      <trkpt lat="42.66557" lon="0.11848">
        <ele>1637.7</ele>
        <time>2015-10-11T08:51:13Z</time>
      </trkpt>
      <trkpt lat="42.6657" lon="0.1183">
        <ele>1639.2</ele>
        <time>2015-10-11T08:51:22Z</time>
      </trkpt>
      <trkpt lat="42.66585" lon="0.11815">
        <ele>1640.6</ele>
        <time>2015-10-11T08:51:31Z</time>
      </trkpt>
      <trkpt lat="42.66596" lon="0.11806">
        <ele>1642.6</ele>
        <time>2015-10-11T08:51:38Z</time>
      </trkpt>
      <trkpt lat="42.66613" lon="0.11794">
        <ele>1643.5</ele>
        <time>2015-10-11T08:51:47Z</time>
      </trkpt>
      <trkpt lat="42.66614" lon="0.11793">
        <ele>1644</ele>
        <time>2015-10-11T08:51:48Z</time>
      </trkpt>
      <trkpt lat="42.66615" lon="0.11791">
        <ele>1644</ele>
        <time>2015-10-11T08:51:49Z</time>
      </trkpt>
      <trkpt lat="42.66617" lon="0.1179">
        <ele>1644</ele>
        <time>2015-10-11T08:51:50Z</time>
      </trkpt>
      <trkpt lat="42.66619" lon="0.11788">
        <ele>1644</ele>
        <time>2015-10-11T08:51:51Z</time>
      </trkpt>
      <trkpt lat="42.6662" lon="0.11787">
        <ele>1644.5</ele>
        <time>2015-10-11T08:51:52Z</time>
      </trkpt>
      <trkpt lat="42.66631" lon="0.11777">
        <ele>1646.4</ele>
        <time>2015-10-11T08:51:59Z</time>
      </trkpt>
      <trkpt lat="42.6664" lon="0.11766">
        <ele>1647.4</ele>
        <time>2015-10-11T08:52:06Z</time>
      </trkpt>
      <trkpt lat="42.66647" lon="0.11755">
        <ele>1648.3</ele>
        <time>2015-10-11T08:52:12Z</time>
      </trkpt>
      <trkpt lat="42.66647" lon="0.11751">
        <ele>1648.8</ele>
        <time>2015-10-11T08:52:16Z</time>
      </trkpt>
      <trkpt lat="42.66648" lon="0.11749">
        <ele>1648.8</ele>
        <time>2015-10-11T08:52:17Z</time>
      </trkpt>
      <trkpt lat="42.66649" lon="0.11748">
        <ele>1648.8</ele>
        <time>2015-10-11T08:52:18Z</time>
      </trkpt>
      <trkpt lat="42.6665" lon="0.11746">
        <ele>1649.3</ele>
        <time>2015-10-11T08:52:19Z</time>
      </trkpt>
      <trkpt lat="42.66658" lon="0.11732">
        <ele>1650.7</ele>
        <time>2015-10-11T08:52:26Z</time>
      </trkpt>
      <trkpt lat="42.66659" lon="0.11731">
        <ele>1650.7</ele>
        <time>2015-10-11T08:52:27Z</time>
      </trkpt>
      <trkpt lat="42.6666" lon="0.11729">
        <ele>1650.7</ele>
        <time>2015-10-11T08:52:28Z</time>
      </trkpt>
      <trkpt lat="42.66662" lon="0.11729">
        <ele>1651.2</ele>
        <time>2015-10-11T08:52:29Z</time>
      </trkpt>
      <trkpt lat="42.66663" lon="0.11728">
        <ele>1651.2</ele>
        <time>2015-10-11T08:52:30Z</time>
      </trkpt>
      <trkpt lat="42.66665" lon="0.11727">
        <ele>1651.2</ele>
        <time>2015-10-11T08:52:31Z</time>
      </trkpt>
      <trkpt lat="42.66672" lon="0.11721">
        <ele>1651.7</ele>
        <time>2015-10-11T08:52:36Z</time>
      </trkpt>
      <trkpt lat="42.66674" lon="0.1172">
        <ele>1651.7</ele>
        <time>2015-10-11T08:52:37Z</time>
      </trkpt>
      <trkpt lat="42.66676" lon="0.11718">
        <ele>1652.2</ele>
        <time>2015-10-11T08:52:38Z</time>
      </trkpt>
      <trkpt lat="42.66678" lon="0.11716">
        <ele>1652.6</ele>
        <time>2015-10-11T08:52:39Z</time>
      </trkpt>
      <trkpt lat="42.66679" lon="0.11714">
        <ele>1652.6</ele>
        <time>2015-10-11T08:52:40Z</time>
      </trkpt>
      <trkpt lat="42.66682" lon="0.11704">
        <ele>1653.1</ele>
        <time>2015-10-11T08:52:44Z</time>
      </trkpt>
      <trkpt lat="42.66683" lon="0.11703">
        <ele>1653.1</ele>
        <time>2015-10-11T08:52:45Z</time>
      </trkpt>
      <trkpt lat="42.66684" lon="0.117">
        <ele>1654.1</ele>
        <time>2015-10-11T08:52:46Z</time>
      </trkpt>
      <trkpt lat="42.66685" lon="0.11698">
        <ele>1654.1</ele>
        <time>2015-10-11T08:52:47Z</time>
      </trkpt>
      <trkpt lat="42.66686" lon="0.11697">
        <ele>1654.1</ele>
        <time>2015-10-11T08:52:48Z</time>
      </trkpt>
      <trkpt lat="42.66688" lon="0.11695">
        <ele>1654.6</ele>
        <time>2015-10-11T08:52:49Z</time>
      </trkpt>
      <trkpt lat="42.66689" lon="0.11693">
        <ele>1654.6</ele>
        <time>2015-10-11T08:52:50Z</time>
      </trkpt>
      <trkpt lat="42.66696" lon="0.11678">
        <ele>1655.5</ele>
        <time>2015-10-11T08:52:57Z</time>
      </trkpt>
      <trkpt lat="42.66706" lon="0.11657">
        <ele>1657</ele>
        <time>2015-10-11T08:53:06Z</time>
      </trkpt>
      <trkpt lat="42.66715" lon="0.11644">
        <ele>1658.4</ele>
        <time>2015-10-11T08:53:13Z</time>
      </trkpt>
      <trkpt lat="42.66726" lon="0.11628">
        <ele>1659.8</ele>
        <time>2015-10-11T08:53:21Z</time>
      </trkpt>
      <trkpt lat="42.66738" lon="0.11612">
        <ele>1660.8</ele>
        <time>2015-10-11T08:53:28Z</time>
      </trkpt>
      <trkpt lat="42.66746" lon="0.11589">
        <ele>1661.8</ele>
        <time>2015-10-11T08:53:36Z</time>
      </trkpt>
      <trkpt lat="42.6676" lon="0.11581">
        <ele>1663.7</ele>
        <time>2015-10-11T08:53:43Z</time>
      </trkpt>
      <trkpt lat="42.66774" lon="0.11566">
        <ele>1664.7</ele>
        <time>2015-10-11T08:53:51Z</time>
      </trkpt>
      <trkpt lat="42.66775" lon="0.11558">
        <ele>1665.1</ele>
        <time>2015-10-11T08:53:54Z</time>
      </trkpt>
      <trkpt lat="42.66776" lon="0.11555">
        <ele>1665.1</ele>
        <time>2015-10-11T08:53:55Z</time>
      </trkpt>
      <trkpt lat="42.66777" lon="0.11554">
        <ele>1665.1</ele>
        <time>2015-10-11T08:53:56Z</time>
      </trkpt>
      <trkpt lat="42.66778" lon="0.11552">
        <ele>1665.6</ele>
        <time>2015-10-11T08:53:57Z</time>
      </trkpt>
      <trkpt lat="42.66779" lon="0.11551">
        <ele>1665.6</ele>
        <time>2015-10-11T08:53:58Z</time>
      </trkpt>
      <trkpt lat="42.6678" lon="0.11549">
        <ele>1666.1</ele>
        <time>2015-10-11T08:53:59Z</time>
      </trkpt>
      <trkpt lat="42.66781" lon="0.11547">
        <ele>1666.1</ele>
        <time>2015-10-11T08:54:00Z</time>
      </trkpt>
      <trkpt lat="42.66782" lon="0.11545">
        <ele>1666.1</ele>
        <time>2015-10-11T08:54:01Z</time>
      </trkpt>
      <trkpt lat="42.66783" lon="0.11544">
        <ele>1667.1</ele>
        <time>2015-10-11T08:54:02Z</time>
      </trkpt>
      <trkpt lat="42.66785" lon="0.11542">
        <ele>1667.1</ele>
        <time>2015-10-11T08:54:03Z</time>
      </trkpt>
      <trkpt lat="42.66786" lon="0.11541">
        <ele>1667.1</ele>
        <time>2015-10-11T08:54:04Z</time>
      </trkpt>
      <trkpt lat="42.66796" lon="0.11526">
        <ele>1668.5</ele>
        <time>2015-10-11T08:54:12Z</time>
      </trkpt>
      <trkpt lat="42.66806" lon="0.11513">
        <ele>1669.5</ele>
        <time>2015-10-11T08:54:19Z</time>
      </trkpt>
      <trkpt lat="42.66817" lon="0.11499">
        <ele>1670.9</ele>
        <time>2015-10-11T08:54:27Z</time>
      </trkpt>
      <trkpt lat="42.66823" lon="0.11493">
        <ele>1671.9</ele>
        <time>2015-10-11T08:54:31Z</time>
      </trkpt>
      <trkpt lat="42.66825" lon="0.11493">
        <ele>1671.9</ele>
        <time>2015-10-11T08:54:32Z</time>
      </trkpt>
      <trkpt lat="42.66827" lon="0.11492">
        <ele>1671.9</ele>
        <time>2015-10-11T08:54:33Z</time>
      </trkpt>
      <trkpt lat="42.66845" lon="0.11489">
        <ele>1673.8</ele>
        <time>2015-10-11T08:54:42Z</time>
      </trkpt>
      <trkpt lat="42.66852" lon="0.11476">
        <ele>1673.8</ele>
        <time>2015-10-11T08:54:48Z</time>
      </trkpt>
      <trkpt lat="42.66853" lon="0.11462">
        <ele>1674.8</ele>
        <time>2015-10-11T08:54:54Z</time>
      </trkpt>
      <trkpt lat="42.66855" lon="0.1146">
        <ele>1675.2</ele>
        <time>2015-10-11T08:54:55Z</time>
      </trkpt>
      <trkpt lat="42.66856" lon="0.11458">
        <ele>1675.2</ele>
        <time>2015-10-11T08:54:56Z</time>
      </trkpt>
      <trkpt lat="42.66857" lon="0.11456">
        <ele>1675.2</ele>
        <time>2015-10-11T08:54:57Z</time>
      </trkpt>
      <trkpt lat="42.66858" lon="0.11454">
        <ele>1675.2</ele>
        <time>2015-10-11T08:54:58Z</time>
      </trkpt>
      <trkpt lat="42.66859" lon="0.11452">
        <ele>1675.2</ele>
        <time>2015-10-11T08:54:59Z</time>
      </trkpt>
      <trkpt lat="42.66866" lon="0.11435">
        <ele>1676.2</ele>
        <time>2015-10-11T08:55:06Z</time>
      </trkpt>
      <trkpt lat="42.66878" lon="0.11413">
        <ele>1676.7</ele>
        <time>2015-10-11T08:55:15Z</time>
      </trkpt>
      <trkpt lat="42.6689" lon="0.11398">
        <ele>1677.2</ele>
        <time>2015-10-11T08:55:22Z</time>
      </trkpt>
      <trkpt lat="42.66893" lon="0.11398">
        <ele>1677.2</ele>
        <time>2015-10-11T08:55:23Z</time>
      </trkpt>
      <trkpt lat="42.66895" lon="0.11397">
        <ele>1677.2</ele>
        <time>2015-10-11T08:55:24Z</time>
      </trkpt>
      <trkpt lat="42.66897" lon="0.11396">
        <ele>1677.2</ele>
        <time>2015-10-11T08:55:25Z</time>
      </trkpt>
      <trkpt lat="42.66899" lon="0.11394">
        <ele>1677.6</ele>
        <time>2015-10-11T08:55:26Z</time>
      </trkpt>
      <trkpt lat="42.669" lon="0.11392">
        <ele>1677.6</ele>
        <time>2015-10-11T08:55:27Z</time>
      </trkpt>
      <trkpt lat="42.66905" lon="0.1137">
        <ele>1678.1</ele>
        <time>2015-10-11T08:55:33Z</time>
      </trkpt>
      <trkpt lat="42.66915" lon="0.11358">
        <ele>1678.6</ele>
        <time>2015-10-11T08:55:39Z</time>
      </trkpt>
      <trkpt lat="42.66924" lon="0.11345">
        <ele>1679.1</ele>
        <time>2015-10-11T08:55:45Z</time>
      </trkpt>
      <trkpt lat="42.66937" lon="0.1133">
        <ele>1680</ele>
        <time>2015-10-11T08:55:53Z</time>
      </trkpt>
      <trkpt lat="42.66953" lon="0.11317">
        <ele>1681</ele>
        <time>2015-10-11T08:56:01Z</time>
      </trkpt>
      <trkpt lat="42.66967" lon="0.11305">
        <ele>1682</ele>
        <time>2015-10-11T08:56:08Z</time>
      </trkpt>
      <trkpt lat="42.66974" lon="0.11296">
        <ele>1682.9</ele>
        <time>2015-10-11T08:56:12Z</time>
      </trkpt>
      <trkpt lat="42.66976" lon="0.11294">
        <ele>1682.9</ele>
        <time>2015-10-11T08:56:13Z</time>
      </trkpt>
      <trkpt lat="42.66978" lon="0.11292">
        <ele>1683.4</ele>
        <time>2015-10-11T08:56:14Z</time>
      </trkpt>
      <trkpt lat="42.66979" lon="0.1129">
        <ele>1683.4</ele>
        <time>2015-10-11T08:56:15Z</time>
      </trkpt>
      <trkpt lat="42.66981" lon="0.11288">
        <ele>1683.4</ele>
        <time>2015-10-11T08:56:16Z</time>
      </trkpt>
      <trkpt lat="42.66982" lon="0.11286">
        <ele>1683.4</ele>
        <time>2015-10-11T08:56:17Z</time>
      </trkpt>
      <trkpt lat="42.66984" lon="0.11284">
        <ele>1683.9</ele>
        <time>2015-10-11T08:56:18Z</time>
      </trkpt>
      <trkpt lat="42.66985" lon="0.11282">
        <ele>1683.9</ele>
        <time>2015-10-11T08:56:19Z</time>
      </trkpt>
      <trkpt lat="42.66998" lon="0.11269">
        <ele>1684.8</ele>
        <time>2015-10-11T08:56:26Z</time>
      </trkpt>
      <trkpt lat="42.67012" lon="0.11266">
        <ele>1685.8</ele>
        <time>2015-10-11T08:56:32Z</time>
      </trkpt>
      <trkpt lat="42.67031" lon="0.11257">
        <ele>1686.3</ele>
        <time>2015-10-11T08:56:39Z</time>
      </trkpt>
      <trkpt lat="42.67042" lon="0.11242">
        <ele>1687.2</ele>
        <time>2015-10-11T08:56:46Z</time>
      </trkpt>
      <trkpt lat="42.67045" lon="0.11227">
        <ele>1688.7</ele>
        <time>2015-10-11T08:56:51Z</time>
      </trkpt>
      <trkpt lat="42.67046" lon="0.11225">
        <ele>1688.7</ele>
        <time>2015-10-11T08:56:52Z</time>
      </trkpt>
      <trkpt lat="42.67047" lon="0.11223">
        <ele>1688.7</ele>
        <time>2015-10-11T08:56:53Z</time>
      </trkpt>
      <trkpt lat="42.67048" lon="0.1122">
        <ele>1689.2</ele>
        <time>2015-10-11T08:56:54Z</time>
      </trkpt>
      <trkpt lat="42.67048" lon="0.11218">
        <ele>1689.2</ele>
        <time>2015-10-11T08:56:55Z</time>
      </trkpt>
      <trkpt lat="42.67049" lon="0.11215">
        <ele>1689.2</ele>
        <time>2015-10-11T08:56:56Z</time>
      </trkpt>
      <trkpt lat="42.67049" lon="0.11212">
        <ele>1689.7</ele>
        <time>2015-10-11T08:56:57Z</time>
      </trkpt>
      <trkpt lat="42.6705" lon="0.1121">
        <ele>1690.1</ele>
        <time>2015-10-11T08:56:58Z</time>
      </trkpt>
      <trkpt lat="42.67053" lon="0.11206">
        <ele>1690.6</ele>
        <time>2015-10-11T08:57:00Z</time>
      </trkpt>
      <trkpt lat="42.67054" lon="0.11203">
        <ele>1690.6</ele>
        <time>2015-10-11T08:57:01Z</time>
      </trkpt>
      <trkpt lat="42.67056" lon="0.11202">
        <ele>1690.6</ele>
        <time>2015-10-11T08:57:02Z</time>
      </trkpt>
      <trkpt lat="42.67057" lon="0.112">
        <ele>1690.6</ele>
        <time>2015-10-11T08:57:03Z</time>
      </trkpt>
      <trkpt lat="42.67059" lon="0.11199">
        <ele>1691.1</ele>
        <time>2015-10-11T08:57:04Z</time>
      </trkpt>
      <trkpt lat="42.67074" lon="0.11189">
        <ele>1692.1</ele>
        <time>2015-10-11T08:57:12Z</time>
      </trkpt>
      <trkpt lat="42.67091" lon="0.11181">
        <ele>1693.5</ele>
        <time>2015-10-11T08:57:20Z</time>
      </trkpt>
      <trkpt lat="42.67107" lon="0.11166">
        <ele>1695.4</ele>
        <time>2015-10-11T08:57:29Z</time>
      </trkpt>
      <trkpt lat="42.67118" lon="0.11146">
        <ele>1696.4</ele>
        <time>2015-10-11T08:57:38Z</time>
      </trkpt>
      <trkpt lat="42.67128" lon="0.11125">
        <ele>1697.8</ele>
        <time>2015-10-11T08:57:48Z</time>
      </trkpt>
      <trkpt lat="42.67137" lon="0.11112">
        <ele>1699.3</ele>
        <time>2015-10-11T08:57:55Z</time>
      </trkpt>
      <trkpt lat="42.67141" lon="0.111">
        <ele>1700.2</ele>
        <time>2015-10-11T08:58:02Z</time>
      </trkpt>
      <trkpt lat="42.67148" lon="0.11083">
        <ele>1701.2</ele>
        <time>2015-10-11T08:58:09Z</time>
      </trkpt>
      <trkpt lat="42.67158" lon="0.11062">
        <ele>1702.2</ele>
        <time>2015-10-11T08:58:18Z</time>
      </trkpt>
      <trkpt lat="42.6717" lon="0.11047">
        <ele>1703.1</ele>
        <time>2015-10-11T08:58:26Z</time>
      </trkpt>
      <trkpt lat="42.67182" lon="0.11027">
        <ele>1705</ele>
        <time>2015-10-11T08:58:35Z</time>
      </trkpt>
      <trkpt lat="42.67193" lon="0.11006">
        <ele>1706</ele>
        <time>2015-10-11T08:58:44Z</time>
      </trkpt>
      <trkpt lat="42.67199" lon="0.10989">
        <ele>1707.4</ele>
        <time>2015-10-11T08:58:51Z</time>
      </trkpt>
      <trkpt lat="42.67206" lon="0.10966">
        <ele>1708.9</ele>
        <time>2015-10-11T08:59:00Z</time>
      </trkpt>
      <trkpt lat="42.67214" lon="0.10946">
        <ele>1710.3</ele>
        <time>2015-10-11T08:59:09Z</time>
      </trkpt>
      <trkpt lat="42.67223" lon="0.10925">
        <ele>1711.3</ele>
        <time>2015-10-11T08:59:18Z</time>
      </trkpt>
      <trkpt lat="42.67231" lon="0.10906">
        <ele>1712.2</ele>
        <time>2015-10-11T08:59:26Z</time>
      </trkpt>
      <trkpt lat="42.67235" lon="0.10882">
        <ele>1713.7</ele>
        <time>2015-10-11T08:59:35Z</time>
      </trkpt>
      <trkpt lat="42.67234" lon="0.1086">
        <ele>1715.1</ele>
        <time>2015-10-11T08:59:43Z</time>
      </trkpt>
      <trkpt lat="42.67232" lon="0.10843">
        <ele>1717.1</ele>
        <time>2015-10-11T08:59:50Z</time>
      </trkpt>
      <trkpt lat="42.67228" lon="0.10824">
        <ele>1717.5</ele>
        <time>2015-10-11T08:59:58Z</time>
      </trkpt>
      <trkpt lat="42.6723" lon="0.10815">
        <ele>1718</ele>
        <time>2015-10-11T09:00:02Z</time>
      </trkpt>
      <trkpt lat="42.67231" lon="0.10813">
        <ele>1718</ele>
        <time>2015-10-11T09:00:03Z</time>
      </trkpt>
      <trkpt lat="42.67232" lon="0.10811">
        <ele>1718</ele>
        <time>2015-10-11T09:00:04Z</time>
      </trkpt>
      <trkpt lat="42.67233" lon="0.1081">
        <ele>1718.5</ele>
        <time>2015-10-11T09:00:05Z</time>
      </trkpt>
      <trkpt lat="42.67235" lon="0.10809">
        <ele>1718.5</ele>
        <time>2015-10-11T09:00:06Z</time>
      </trkpt>
      <trkpt lat="42.67237" lon="0.10807">
        <ele>1718.5</ele>
        <time>2015-10-11T09:00:07Z</time>
      </trkpt>
      <trkpt lat="42.67249" lon="0.10799">
        <ele>1719.5</ele>
        <time>2015-10-11T09:00:14Z</time>
      </trkpt>
      <trkpt lat="42.67264" lon="0.10786">
        <ele>1720.9</ele>
        <time>2015-10-11T09:00:23Z</time>
      </trkpt>
      <trkpt lat="42.67275" lon="0.10769">
        <ele>1722.3</ele>
        <time>2015-10-11T09:00:32Z</time>
      </trkpt>
      <trkpt lat="42.67283" lon="0.10752">
        <ele>1723.3</ele>
        <time>2015-10-11T09:00:40Z</time>
      </trkpt>
      <trkpt lat="42.67293" lon="0.10731">
        <ele>1724.7</ele>
        <time>2015-10-11T09:00:50Z</time>
      </trkpt>
      <trkpt lat="42.67307" lon="0.10717">
        <ele>1726.7</ele>
        <time>2015-10-11T09:01:00Z</time>
      </trkpt>
      <trkpt lat="42.67318" lon="0.10706">
        <ele>1728.1</ele>
        <time>2015-10-11T09:01:08Z</time>
      </trkpt>
      <trkpt lat="42.67331" lon="0.10689">
        <ele>1729.6</ele>
        <time>2015-10-11T09:01:18Z</time>
      </trkpt>
      <trkpt lat="42.67341" lon="0.10673">
        <ele>1731.5</ele>
        <time>2015-10-11T09:01:27Z</time>
      </trkpt>
      <trkpt lat="42.67347" lon="0.10659">
        <ele>1732.9</ele>
        <time>2015-10-11T09:01:34Z</time>
      </trkpt>
      <trkpt lat="42.67348" lon="0.10657">
        <ele>1732.9</ele>
        <time>2015-10-11T09:01:35Z</time>
      </trkpt>
      <trkpt lat="42.67348" lon="0.10655">
        <ele>1733.4</ele>
        <time>2015-10-11T09:01:36Z</time>
      </trkpt>
      <trkpt lat="42.67349" lon="0.10653">
        <ele>1733.4</ele>
        <time>2015-10-11T09:01:37Z</time>
      </trkpt>
      <trkpt lat="42.6735" lon="0.10651">
        <ele>1733.9</ele>
        <time>2015-10-11T09:01:38Z</time>
      </trkpt>
      <trkpt lat="42.67351" lon="0.10649">
        <ele>1733.9</ele>
        <time>2015-10-11T09:01:39Z</time>
      </trkpt>
      <trkpt lat="42.67352" lon="0.10647">
        <ele>1734.4</ele>
        <time>2015-10-11T09:01:40Z</time>
      </trkpt>
      <trkpt lat="42.67353" lon="0.10645">
        <ele>1734.4</ele>
        <time>2015-10-11T09:01:41Z</time>
      </trkpt>
      <trkpt lat="42.67354" lon="0.10643">
        <ele>1734.4</ele>
        <time>2015-10-11T09:01:42Z</time>
      </trkpt>
      <trkpt lat="42.67355" lon="0.10641">
        <ele>1734.4</ele>
        <time>2015-10-11T09:01:43Z</time>
      </trkpt>
      <trkpt lat="42.67365" lon="0.10626">
        <ele>1736.3</ele>
        <time>2015-10-11T09:01:52Z</time>
      </trkpt>
      <trkpt lat="42.67375" lon="0.10607">
        <ele>1737.7</ele>
        <time>2015-10-11T09:02:02Z</time>
      </trkpt>
      <trkpt lat="42.6738" lon="0.10592">
        <ele>1739.2</ele>
        <time>2015-10-11T09:02:10Z</time>
      </trkpt>
      <trkpt lat="42.67381" lon="0.1059">
        <ele>1739.6</ele>
        <time>2015-10-11T09:02:11Z</time>
      </trkpt>
      <trkpt lat="42.67386" lon="0.10576">
        <ele>1740.6</ele>
        <time>2015-10-11T09:02:18Z</time>
      </trkpt>
      <trkpt lat="42.6739" lon="0.10561">
        <ele>1742.1</ele>
        <time>2015-10-11T09:02:25Z</time>
      </trkpt>
      <trkpt lat="42.67398" lon="0.10543">
        <ele>1744</ele>
        <time>2015-10-11T09:02:34Z</time>
      </trkpt>
      <trkpt lat="42.67399" lon="0.10541">
        <ele>1744</ele>
        <time>2015-10-11T09:02:35Z</time>
      </trkpt>
      <trkpt lat="42.674" lon="0.10538">
        <ele>1744</ele>
        <time>2015-10-11T09:02:36Z</time>
      </trkpt>
      <trkpt lat="42.67401" lon="0.10536">
        <ele>1744.4</ele>
        <time>2015-10-11T09:02:37Z</time>
      </trkpt>
      <trkpt lat="42.67402" lon="0.10535">
        <ele>1744.4</ele>
        <time>2015-10-11T09:02:38Z</time>
      </trkpt>
      <trkpt lat="42.67406" lon="0.10524">
        <ele>1744.9</ele>
        <time>2015-10-11T09:02:43Z</time>
      </trkpt>
      <trkpt lat="42.67406" lon="0.10521">
        <ele>1745.4</ele>
        <time>2015-10-11T09:02:44Z</time>
      </trkpt>
      <trkpt lat="42.67407" lon="0.10519">
        <ele>1745.4</ele>
        <time>2015-10-11T09:02:45Z</time>
      </trkpt>
      <trkpt lat="42.67409" lon="0.10509">
        <ele>1745.9</ele>
        <time>2015-10-11T09:02:49Z</time>
      </trkpt>
      <trkpt lat="42.67409" lon="0.10507">
        <ele>1746.4</ele>
        <time>2015-10-11T09:02:50Z</time>
      </trkpt>
      <trkpt lat="42.67409" lon="0.10504">
        <ele>1746.4</ele>
        <time>2015-10-11T09:02:51Z</time>
      </trkpt>
      <trkpt lat="42.6741" lon="0.10502">
        <ele>1746.4</ele>
        <time>2015-10-11T09:02:52Z</time>
      </trkpt>
      <trkpt lat="42.6741" lon="0.105">
        <ele>1746.8</ele>
        <time>2015-10-11T09:02:53Z</time>
      </trkpt>
      <trkpt lat="42.67411" lon="0.10498">
        <ele>1746.8</ele>
        <time>2015-10-11T09:02:54Z</time>
      </trkpt>
      <trkpt lat="42.67412" lon="0.10496">
        <ele>1746.8</ele>
        <time>2015-10-11T09:02:55Z</time>
      </trkpt>
      <trkpt lat="42.67412" lon="0.10494">
        <ele>1747.3</ele>
        <time>2015-10-11T09:02:56Z</time>
      </trkpt>
      <trkpt lat="42.67417" lon="0.10479">
        <ele>1748.8</ele>
        <time>2015-10-11T09:03:03Z</time>
      </trkpt>
      <trkpt lat="42.67417" lon="0.10477">
        <ele>1749.3</ele>
        <time>2015-10-11T09:03:04Z</time>
      </trkpt>
      <trkpt lat="42.67418" lon="0.10475">
        <ele>1749.3</ele>
        <time>2015-10-11T09:03:05Z</time>
      </trkpt>
      <trkpt lat="42.67419" lon="0.10474">
        <ele>1749.7</ele>
        <time>2015-10-11T09:03:06Z</time>
      </trkpt>
      <trkpt lat="42.6742" lon="0.10471">
        <ele>1749.7</ele>
        <time>2015-10-11T09:03:07Z</time>
      </trkpt>
      <trkpt lat="42.67422" lon="0.10456">
        <ele>1750.7</ele>
        <time>2015-10-11T09:03:15Z</time>
      </trkpt>
      <trkpt lat="42.67423" lon="0.10448">
        <ele>1752.1</ele>
        <time>2015-10-11T09:03:19Z</time>
      </trkpt>
      <trkpt lat="42.67424" lon="0.10447">
        <ele>1752.1</ele>
        <time>2015-10-11T09:03:20Z</time>
      </trkpt>
      <trkpt lat="42.67426" lon="0.10447">
        <ele>1752.6</ele>
        <time>2015-10-11T09:03:21Z</time>
      </trkpt>
      <trkpt lat="42.67427" lon="0.10446">
        <ele>1752.6</ele>
        <time>2015-10-11T09:03:22Z</time>
      </trkpt>
      <trkpt lat="42.67428" lon="0.10447">
        <ele>1752.6</ele>
        <time>2015-10-11T09:03:23Z</time>
      </trkpt>
      <trkpt lat="42.6743" lon="0.10447">
        <ele>1752.6</ele>
        <time>2015-10-11T09:03:24Z</time>
      </trkpt>
      <trkpt lat="42.67434" lon="0.10454">
        <ele>1753.6</ele>
        <time>2015-10-11T09:03:29Z</time>
      </trkpt>
      <trkpt lat="42.67433" lon="0.10473">
        <ele>1755.5</ele>
        <time>2015-10-11T09:03:38Z</time>
      </trkpt>
      <trkpt lat="42.67431" lon="0.10494">
        <ele>1757.4</ele>
        <time>2015-10-11T09:03:48Z</time>
      </trkpt>
      <trkpt lat="42.67428" lon="0.10507">
        <ele>1758.4</ele>
        <time>2015-10-11T09:03:55Z</time>
      </trkpt>
      <trkpt lat="42.67427" lon="0.10514">
        <ele>1758.9</ele>
        <time>2015-10-11T09:03:59Z</time>
      </trkpt>
      <trkpt lat="42.67428" lon="0.10536">
        <ele>1760.8</ele>
        <time>2015-10-11T09:04:09Z</time>
      </trkpt>
      <trkpt lat="42.67429" lon="0.10553">
        <ele>1761.8</ele>
        <time>2015-10-11T09:04:17Z</time>
      </trkpt>
      <trkpt lat="42.67428" lon="0.10568">
        <ele>1762.7</ele>
        <time>2015-10-11T09:04:24Z</time>
      </trkpt>
      <trkpt lat="42.67428" lon="0.10577">
        <ele>1763.7</ele>
        <time>2015-10-11T09:04:28Z</time>
      </trkpt>
      <trkpt lat="42.67427" lon="0.10599">
        <ele>1764.6</ele>
        <time>2015-10-11T09:04:38Z</time>
      </trkpt>
      <trkpt lat="42.67427" lon="0.1062">
        <ele>1767</ele>
        <time>2015-10-11T09:04:48Z</time>
      </trkpt>
      <trkpt lat="42.67425" lon="0.10639">
        <ele>1768.5</ele>
        <time>2015-10-11T09:04:56Z</time>
      </trkpt>
      <trkpt lat="42.6742" lon="0.10661">
        <ele>1769.9</ele>
        <time>2015-10-11T09:05:06Z</time>
      </trkpt>
      <trkpt lat="42.67416" lon="0.10679">
        <ele>1771.4</ele>
        <time>2015-10-11T09:05:15Z</time>
      </trkpt>
      <trkpt lat="42.67412" lon="0.10696">
        <ele>1773.3</ele>
        <time>2015-10-11T09:05:24Z</time>
      </trkpt>
      <trkpt lat="42.67412" lon="0.10699">
        <ele>1773.8</ele>
        <time>2015-10-11T09:05:26Z</time>
      </trkpt>
      <trkpt lat="42.67411" lon="0.10713">
        <ele>1774.7</ele>
        <time>2015-10-11T09:05:33Z</time>
      </trkpt>
      <trkpt lat="42.67411" lon="0.10724">
        <ele>1775.7</ele>
        <time>2015-10-11T09:05:38Z</time>
      </trkpt>
      <trkpt lat="42.67411" lon="0.10726">
        <ele>1775.7</ele>
        <time>2015-10-11T09:05:39Z</time>
      </trkpt>
      <trkpt lat="42.6741" lon="0.10739">
        <ele>1776.7</ele>
        <time>2015-10-11T09:05:45Z</time>
      </trkpt>
      <trkpt lat="42.67409" lon="0.10755">
        <ele>1777.6</ele>
        <time>2015-10-11T09:05:52Z</time>
      </trkpt>
      <trkpt lat="42.67404" lon="0.10771">
        <ele>1779.5</ele>
        <time>2015-10-11T09:06:01Z</time>
      </trkpt>
      <trkpt lat="42.674" lon="0.10777">
        <ele>1780.5</ele>
        <time>2015-10-11T09:06:08Z</time>
      </trkpt>
      <trkpt lat="42.67401" lon="0.10779">
        <ele>1780</ele>
        <time>2015-10-11T09:06:18Z</time>
      </trkpt>
      <trkpt lat="42.67401" lon="0.10778">
        <ele>1780</ele>
        <time>2015-10-11T09:06:39Z</time>
      </trkpt>
      <trkpt lat="42.674" lon="0.10779">
        <ele>1780.5</ele>
        <time>2015-10-11T09:07:01Z</time>
      </trkpt>
      <trkpt lat="42.67403" lon="0.10777">
        <ele>1780.5</ele>
        <time>2015-10-11T09:07:24Z</time>
      </trkpt>
      <trkpt lat="42.67402" lon="0.10778">
        <ele>1780.5</ele>
        <time>2015-10-11T09:07:43Z</time>
      </trkpt>
      <trkpt lat="42.674" lon="0.10778">
        <ele>1781</ele>
        <time>2015-10-11T09:07:46Z</time>
      </trkpt>
      <trkpt lat="42.674" lon="0.10784">
        <ele>1781</ele>
        <time>2015-10-11T09:07:50Z</time>
      </trkpt>
      <trkpt lat="42.67401" lon="0.10786">
        <ele>1781.5</ele>
        <time>2015-10-11T09:07:56Z</time>
      </trkpt>
      <trkpt lat="42.67399" lon="0.10786">
        <ele>1781.5</ele>
        <time>2015-10-11T09:08:12Z</time>
      </trkpt>
      <trkpt lat="42.67401" lon="0.10786">
        <ele>1781.5</ele>
        <time>2015-10-11T09:08:29Z</time>
      </trkpt>
      <trkpt lat="42.67401" lon="0.10786">
        <ele>1781.5</ele>
        <time>2015-10-11T09:08:50Z</time>
      </trkpt>
      <trkpt lat="42.67399" lon="0.10787">
        <ele>1781.5</ele>
        <time>2015-10-11T09:09:08Z</time>
      </trkpt>
      <trkpt lat="42.67403" lon="0.10786">
        <ele>1781.5</ele>
        <time>2015-10-11T09:09:32Z</time>
      </trkpt>
      <trkpt lat="42.67402" lon="0.10786">
        <ele>1781.5</ele>
        <time>2015-10-11T09:09:50Z</time>
      </trkpt>
      <trkpt lat="42.67402" lon="0.10788">
        <ele>1781.5</ele>
        <time>2015-10-11T09:10:06Z</time>
      </trkpt>
      <trkpt lat="42.674" lon="0.10789">
        <ele>1781.5</ele>
        <time>2015-10-11T09:10:25Z</time>
      </trkpt>
      <trkpt lat="42.674" lon="0.10784">
        <ele>1781.5</ele>
        <time>2015-10-11T09:10:38Z</time>
      </trkpt>
      <trkpt lat="42.67398" lon="0.10786">
        <ele>1781.5</ele>
        <time>2015-10-11T09:10:44Z</time>
      </trkpt>
      <trkpt lat="42.67399" lon="0.10788">
        <ele>1781.5</ele>
        <time>2015-10-11T09:10:53Z</time>
      </trkpt>
      <trkpt lat="42.67399" lon="0.10786">
        <ele>1781.5</ele>
        <time>2015-10-11T09:11:11Z</time>
      </trkpt>
      <trkpt lat="42.67398" lon="0.10787">
        <ele>1781.5</ele>
        <time>2015-10-11T09:11:26Z</time>
      </trkpt>
      <trkpt lat="42.67394" lon="0.10794">
        <ele>1781.9</ele>
        <time>2015-10-11T09:11:32Z</time>
      </trkpt>
      <trkpt lat="42.67389" lon="0.10813">
        <ele>1783.4</ele>
        <time>2015-10-11T09:11:40Z</time>
      </trkpt>
      <trkpt lat="42.67388" lon="0.10819">
        <ele>1784.8</ele>
        <time>2015-10-11T09:11:43Z</time>
      </trkpt>
      <trkpt lat="42.67387" lon="0.10829">
        <ele>1785.3</ele>
        <time>2015-10-11T09:11:49Z</time>
      </trkpt>
      <trkpt lat="42.67387" lon="0.10833">
        <ele>1785.8</ele>
        <time>2015-10-11T09:11:52Z</time>
      </trkpt>
      <trkpt lat="42.67385" lon="0.10847">
        <ele>1786.8</ele>
        <time>2015-10-11T09:12:01Z</time>
      </trkpt>
      <trkpt lat="42.67384" lon="0.10861">
        <ele>1787.7</ele>
        <time>2015-10-11T09:12:09Z</time>
      </trkpt>
      <trkpt lat="42.67381" lon="0.10872">
        <ele>1789.2</ele>
        <time>2015-10-11T09:12:16Z</time>
      </trkpt>
      <trkpt lat="42.67381" lon="0.10874">
        <ele>1789.6</ele>
        <time>2015-10-11T09:12:17Z</time>
      </trkpt>
      <trkpt lat="42.6738" lon="0.10875">
        <ele>1789.6</ele>
        <time>2015-10-11T09:12:18Z</time>
      </trkpt>
      <trkpt lat="42.6738" lon="0.10877">
        <ele>1789.6</ele>
        <time>2015-10-11T09:12:19Z</time>
      </trkpt>
      <trkpt lat="42.67379" lon="0.10878">
        <ele>1789.6</ele>
        <time>2015-10-11T09:12:20Z</time>
      </trkpt>
      <trkpt lat="42.67378" lon="0.1088">
        <ele>1790.6</ele>
        <time>2015-10-11T09:12:21Z</time>
      </trkpt>
      <trkpt lat="42.67378" lon="0.10881">
        <ele>1790.6</ele>
        <time>2015-10-11T09:12:22Z</time>
      </trkpt>
      <trkpt lat="42.67377" lon="0.10883">
        <ele>1790.6</ele>
        <time>2015-10-11T09:12:23Z</time>
      </trkpt>
      <trkpt lat="42.67377" lon="0.10885">
        <ele>1791.1</ele>
        <time>2015-10-11T09:12:24Z</time>
      </trkpt>
      <trkpt lat="42.67376" lon="0.10886">
        <ele>1791.1</ele>
        <time>2015-10-11T09:12:25Z</time>
      </trkpt>
      <trkpt lat="42.67376" lon="0.10888">
        <ele>1791.1</ele>
        <time>2015-10-11T09:12:26Z</time>
      </trkpt>
      <trkpt lat="42.67374" lon="0.109">
        <ele>1792.5</ele>
        <time>2015-10-11T09:12:32Z</time>
      </trkpt>
      <trkpt lat="42.67373" lon="0.10902">
        <ele>1793</ele>
        <time>2015-10-11T09:12:33Z</time>
      </trkpt>
      <trkpt lat="42.67372" lon="0.10913">
        <ele>1794</ele>
        <time>2015-10-11T09:12:39Z</time>
      </trkpt>
      <trkpt lat="42.67371" lon="0.10915">
        <ele>1794</ele>
        <time>2015-10-11T09:12:40Z</time>
      </trkpt>
      <trkpt lat="42.67371" lon="0.10917">
        <ele>1794</ele>
        <time>2015-10-11T09:12:41Z</time>
      </trkpt>
      <trkpt lat="42.67371" lon="0.10919">
        <ele>1794.4</ele>
        <time>2015-10-11T09:12:42Z</time>
      </trkpt>
      <trkpt lat="42.67371" lon="0.10921">
        <ele>1794.4</ele>
        <time>2015-10-11T09:12:43Z</time>
      </trkpt>
      <trkpt lat="42.6737" lon="0.10923">
        <ele>1794.4</ele>
        <time>2015-10-11T09:12:44Z</time>
      </trkpt>
      <trkpt lat="42.6737" lon="0.10925">
        <ele>1794.9</ele>
        <time>2015-10-11T09:12:45Z</time>
      </trkpt>
      <trkpt lat="42.6737" lon="0.10926">
        <ele>1794.9</ele>
        <time>2015-10-11T09:12:46Z</time>
      </trkpt>
      <trkpt lat="42.6737" lon="0.10928">
        <ele>1794.9</ele>
        <time>2015-10-11T09:12:47Z</time>
      </trkpt>
      <trkpt lat="42.67369" lon="0.10931">
        <ele>1795.4</ele>
        <time>2015-10-11T09:12:48Z</time>
      </trkpt>
      <trkpt lat="42.67369" lon="0.10938">
        <ele>1795.9</ele>
        <time>2015-10-11T09:12:52Z</time>
      </trkpt>
      <trkpt lat="42.67369" lon="0.1094">
        <ele>1796.4</ele>
        <time>2015-10-11T09:12:53Z</time>
      </trkpt>
      <trkpt lat="42.67366" lon="0.10965">
        <ele>1798.3</ele>
        <time>2015-10-11T09:13:05Z</time>
      </trkpt>
      <trkpt lat="42.67364" lon="0.10983">
        <ele>1799.7</ele>
        <time>2015-10-11T09:13:14Z</time>
      </trkpt>
      <trkpt lat="42.67361" lon="0.11004">
        <ele>1801.7</ele>
        <time>2015-10-11T09:13:24Z</time>
      </trkpt>
      <trkpt lat="42.67358" lon="0.11019">
        <ele>1803.6</ele>
        <time>2015-10-11T09:13:32Z</time>
      </trkpt>
      <trkpt lat="42.67357" lon="0.11025">
        <ele>1804.1</ele>
        <time>2015-10-11T09:13:35Z</time>
      </trkpt>
      <trkpt lat="42.67357" lon="0.11027">
        <ele>1804.1</ele>
        <time>2015-10-11T09:13:36Z</time>
      </trkpt>
      <trkpt lat="42.67357" lon="0.11029">
        <ele>1804.5</ele>
        <time>2015-10-11T09:13:37Z</time>
      </trkpt>
      <trkpt lat="42.67357" lon="0.11031">
        <ele>1804.5</ele>
        <time>2015-10-11T09:13:38Z</time>
      </trkpt>
      <trkpt lat="42.67357" lon="0.11033">
        <ele>1804.5</ele>
        <time>2015-10-11T09:13:39Z</time>
      </trkpt>
      <trkpt lat="42.67357" lon="0.11035">
        <ele>1805</ele>
        <time>2015-10-11T09:13:40Z</time>
      </trkpt>
      <trkpt lat="42.67358" lon="0.11037">
        <ele>1805</ele>
        <time>2015-10-11T09:13:41Z</time>
      </trkpt>
      <trkpt lat="42.67357" lon="0.11039">
        <ele>1805.5</ele>
        <time>2015-10-11T09:13:42Z</time>
      </trkpt>
      <trkpt lat="42.67357" lon="0.11041">
        <ele>1806</ele>
        <time>2015-10-11T09:13:43Z</time>
      </trkpt>
      <trkpt lat="42.67357" lon="0.11043">
        <ele>1806</ele>
        <time>2015-10-11T09:13:44Z</time>
      </trkpt>
      <trkpt lat="42.67357" lon="0.11045">
        <ele>1806.4</ele>
        <time>2015-10-11T09:13:45Z</time>
      </trkpt>
      <trkpt lat="42.67357" lon="0.11047">
        <ele>1806.4</ele>
        <time>2015-10-11T09:13:46Z</time>
      </trkpt>
      <trkpt lat="42.67357" lon="0.11049">
        <ele>1806.4</ele>
        <time>2015-10-11T09:13:47Z</time>
      </trkpt>
      <trkpt lat="42.67357" lon="0.11051">
        <ele>1806.4</ele>
        <time>2015-10-11T09:13:48Z</time>
      </trkpt>
      <trkpt lat="42.67357" lon="0.11053">
        <ele>1806.9</ele>
        <time>2015-10-11T09:13:49Z</time>
      </trkpt>
      <trkpt lat="42.67356" lon="0.11055">
        <ele>1806.9</ele>
        <time>2015-10-11T09:13:50Z</time>
      </trkpt>
      <trkpt lat="42.67356" lon="0.11057">
        <ele>1806.9</ele>
        <time>2015-10-11T09:13:51Z</time>
      </trkpt>
      <trkpt lat="42.67355" lon="0.11072">
        <ele>1808.4</ele>
        <time>2015-10-11T09:13:59Z</time>
      </trkpt>
      <trkpt lat="42.67354" lon="0.11079">
        <ele>1809.3</ele>
        <time>2015-10-11T09:14:03Z</time>
      </trkpt>
      <trkpt lat="42.67354" lon="0.11081">
        <ele>1809.3</ele>
        <time>2015-10-11T09:14:04Z</time>
      </trkpt>
      <trkpt lat="42.67354" lon="0.11082">
        <ele>1810.3</ele>
        <time>2015-10-11T09:14:05Z</time>
      </trkpt>
      <trkpt lat="42.67354" lon="0.11084">
        <ele>1810.3</ele>
        <time>2015-10-11T09:14:06Z</time>
      </trkpt>
      <trkpt lat="42.67353" lon="0.11086">
        <ele>1810.3</ele>
        <time>2015-10-11T09:14:07Z</time>
      </trkpt>
      <trkpt lat="42.67353" lon="0.11088">
        <ele>1810.3</ele>
        <time>2015-10-11T09:14:08Z</time>
      </trkpt>
      <trkpt lat="42.67353" lon="0.1109">
        <ele>1810.3</ele>
        <time>2015-10-11T09:14:09Z</time>
      </trkpt>
      <trkpt lat="42.67353" lon="0.11092">
        <ele>1810.8</ele>
        <time>2015-10-11T09:14:10Z</time>
      </trkpt>
      <trkpt lat="42.67352" lon="0.11094">
        <ele>1810.8</ele>
        <time>2015-10-11T09:14:11Z</time>
      </trkpt>
      <trkpt lat="42.67352" lon="0.11096">
        <ele>1811.3</ele>
        <time>2015-10-11T09:14:12Z</time>
      </trkpt>
      <trkpt lat="42.67351" lon="0.11098">
        <ele>1811.3</ele>
        <time>2015-10-11T09:14:13Z</time>
      </trkpt>
      <trkpt lat="42.67351" lon="0.111">
        <ele>1811.3</ele>
        <time>2015-10-11T09:14:14Z</time>
      </trkpt>
      <trkpt lat="42.6735" lon="0.11101">
        <ele>1811.7</ele>
        <time>2015-10-11T09:14:15Z</time>
      </trkpt>
      <trkpt lat="42.6735" lon="0.11103">
        <ele>1811.7</ele>
        <time>2015-10-11T09:14:16Z</time>
      </trkpt>
      <trkpt lat="42.67349" lon="0.11105">
        <ele>1812.2</ele>
        <time>2015-10-11T09:14:17Z</time>
      </trkpt>
      <trkpt lat="42.67349" lon="0.11107">
        <ele>1812.2</ele>
        <time>2015-10-11T09:14:18Z</time>
      </trkpt>
      <trkpt lat="42.67349" lon="0.11109">
        <ele>1812.2</ele>
        <time>2015-10-11T09:14:19Z</time>
      </trkpt>
      <trkpt lat="42.67348" lon="0.11111">
        <ele>1813.2</ele>
        <time>2015-10-11T09:14:20Z</time>
      </trkpt>
      <trkpt lat="42.67348" lon="0.11114">
        <ele>1813.2</ele>
        <time>2015-10-11T09:14:22Z</time>
      </trkpt>
      <trkpt lat="42.67347" lon="0.11116">
        <ele>1813.7</ele>
        <time>2015-10-11T09:14:23Z</time>
      </trkpt>
      <trkpt lat="42.67347" lon="0.11118">
        <ele>1813.7</ele>
        <time>2015-10-11T09:14:24Z</time>
      </trkpt>
      <trkpt lat="42.67344" lon="0.11133">
        <ele>1815.6</ele>
        <time>2015-10-11T09:14:33Z</time>
      </trkpt>
      <trkpt lat="42.67341" lon="0.11147">
        <ele>1817</ele>
        <time>2015-10-11T09:14:40Z</time>
      </trkpt>
      <trkpt lat="42.67334" lon="0.11158">
        <ele>1818.5</ele>
        <time>2015-10-11T09:14:48Z</time>
      </trkpt>
      <trkpt lat="42.67332" lon="0.11172">
        <ele>1819.9</ele>
        <time>2015-10-11T09:14:56Z</time>
      </trkpt>
      <trkpt lat="42.67336" lon="0.1119">
        <ele>1821.8</ele>
        <time>2015-10-11T09:15:06Z</time>
      </trkpt>
      <trkpt lat="42.67335" lon="0.11205">
        <ele>1823.3</ele>
        <time>2015-10-11T09:15:14Z</time>
      </trkpt>
      <trkpt lat="42.67335" lon="0.11211">
        <ele>1823.8</ele>
        <time>2015-10-11T09:15:17Z</time>
      </trkpt>
      <trkpt lat="42.67334" lon="0.11212">
        <ele>1824.2</ele>
        <time>2015-10-11T09:15:18Z</time>
      </trkpt>
      <trkpt lat="42.67332" lon="0.11231">
        <ele>1826.2</ele>
        <time>2015-10-11T09:15:28Z</time>
      </trkpt>
      <trkpt lat="42.67331" lon="0.11233">
        <ele>1826.6</ele>
        <time>2015-10-11T09:15:29Z</time>
      </trkpt>
      <trkpt lat="42.67331" lon="0.11235">
        <ele>1826.6</ele>
        <time>2015-10-11T09:15:30Z</time>
      </trkpt>
      <trkpt lat="42.6733" lon="0.11236">
        <ele>1826.6</ele>
        <time>2015-10-11T09:15:31Z</time>
      </trkpt>
      <trkpt lat="42.6733" lon="0.11238">
        <ele>1827.1</ele>
        <time>2015-10-11T09:15:32Z</time>
      </trkpt>
      <trkpt lat="42.6733" lon="0.1124">
        <ele>1827.1</ele>
        <time>2015-10-11T09:15:33Z</time>
      </trkpt>
      <trkpt lat="42.67327" lon="0.11259">
        <ele>1828.6</ele>
        <time>2015-10-11T09:15:43Z</time>
      </trkpt>
      <trkpt lat="42.67324" lon="0.11275">
        <ele>1830.5</ele>
        <time>2015-10-11T09:15:52Z</time>
      </trkpt>
      <trkpt lat="42.6732" lon="0.11289">
        <ele>1831.9</ele>
        <time>2015-10-11T09:16:00Z</time>
      </trkpt>
      <trkpt lat="42.67318" lon="0.11296">
        <ele>1832.9</ele>
        <time>2015-10-11T09:16:04Z</time>
      </trkpt>
      <trkpt lat="42.67317" lon="0.11298">
        <ele>1832.9</ele>
        <time>2015-10-11T09:16:05Z</time>
      </trkpt>
      <trkpt lat="42.67313" lon="0.11317">
        <ele>1834.8</ele>
        <time>2015-10-11T09:16:15Z</time>
      </trkpt>
      <trkpt lat="42.67311" lon="0.11325">
        <ele>1835.8</ele>
        <time>2015-10-11T09:16:19Z</time>
      </trkpt>
      <trkpt lat="42.67311" lon="0.11327">
        <ele>1835.8</ele>
        <time>2015-10-11T09:16:20Z</time>
      </trkpt>
      <trkpt lat="42.6731" lon="0.11329">
        <ele>1836.3</ele>
        <time>2015-10-11T09:16:21Z</time>
      </trkpt>
      <trkpt lat="42.67309" lon="0.11331">
        <ele>1836.3</ele>
        <time>2015-10-11T09:16:22Z</time>
      </trkpt>
      <trkpt lat="42.67309" lon="0.11332">
        <ele>1836.3</ele>
        <time>2015-10-11T09:16:23Z</time>
      </trkpt>
      <trkpt lat="42.67309" lon="0.11334">
        <ele>1836.3</ele>
        <time>2015-10-11T09:16:24Z</time>
      </trkpt>
      <trkpt lat="42.67306" lon="0.11344">
        <ele>1837.2</ele>
        <time>2015-10-11T09:16:29Z</time>
      </trkpt>
      <trkpt lat="42.67305" lon="0.11346">
        <ele>1837.7</ele>
        <time>2015-10-11T09:16:30Z</time>
      </trkpt>
      <trkpt lat="42.67304" lon="0.11347">
        <ele>1837.7</ele>
        <time>2015-10-11T09:16:31Z</time>
      </trkpt>
      <trkpt lat="42.67303" lon="0.11349">
        <ele>1837.7</ele>
        <time>2015-10-11T09:16:32Z</time>
      </trkpt>
      <trkpt lat="42.67302" lon="0.1135">
        <ele>1838.2</ele>
        <time>2015-10-11T09:16:33Z</time>
      </trkpt>
      <trkpt lat="42.67301" lon="0.11352">
        <ele>1838.2</ele>
        <time>2015-10-11T09:16:34Z</time>
      </trkpt>
      <trkpt lat="42.673" lon="0.11353">
        <ele>1838.7</ele>
        <time>2015-10-11T09:16:35Z</time>
      </trkpt>
      <trkpt lat="42.67299" lon="0.11355">
        <ele>1838.7</ele>
        <time>2015-10-11T09:16:36Z</time>
      </trkpt>
      <trkpt lat="42.67294" lon="0.1137">
        <ele>1840.1</ele>
        <time>2015-10-11T09:16:44Z</time>
      </trkpt>
      <trkpt lat="42.67288" lon="0.11385">
        <ele>1841.5</ele>
        <time>2015-10-11T09:16:52Z</time>
      </trkpt>
      <trkpt lat="42.67288" lon="0.11387">
        <ele>1841.5</ele>
        <time>2015-10-11T09:16:53Z</time>
      </trkpt>
      <trkpt lat="42.67287" lon="0.11389">
        <ele>1842</ele>
        <time>2015-10-11T09:16:54Z</time>
      </trkpt>
      <trkpt lat="42.67286" lon="0.11391">
        <ele>1842</ele>
        <time>2015-10-11T09:16:55Z</time>
      </trkpt>
      <trkpt lat="42.67286" lon="0.11393">
        <ele>1842.5</ele>
        <time>2015-10-11T09:16:56Z</time>
      </trkpt>
      <trkpt lat="42.67285" lon="0.11395">
        <ele>1842.5</ele>
        <time>2015-10-11T09:16:57Z</time>
      </trkpt>
      <trkpt lat="42.67285" lon="0.11397">
        <ele>1842.5</ele>
        <time>2015-10-11T09:16:58Z</time>
      </trkpt>
      <trkpt lat="42.67284" lon="0.11399">
        <ele>1843</ele>
        <time>2015-10-11T09:16:59Z</time>
      </trkpt>
      <trkpt lat="42.67284" lon="0.11401">
        <ele>1843</ele>
        <time>2015-10-11T09:17:00Z</time>
      </trkpt>
      <trkpt lat="42.67278" lon="0.1142">
        <ele>1844.9</ele>
        <time>2015-10-11T09:17:09Z</time>
      </trkpt>
      <trkpt lat="42.67269" lon="0.11446">
        <ele>1846.8</ele>
        <time>2015-10-11T09:17:22Z</time>
      </trkpt>
      <trkpt lat="42.67263" lon="0.11463">
        <ele>1848.3</ele>
        <time>2015-10-11T09:17:30Z</time>
      </trkpt>
      <trkpt lat="42.67256" lon="0.11481">
        <ele>1849.7</ele>
        <time>2015-10-11T09:17:39Z</time>
      </trkpt>
      <trkpt lat="42.67256" lon="0.11484">
        <ele>1849.7</ele>
        <time>2015-10-11T09:17:40Z</time>
      </trkpt>
      <trkpt lat="42.67255" lon="0.11486">
        <ele>1849.7</ele>
        <time>2015-10-11T09:17:41Z</time>
      </trkpt>
      <trkpt lat="42.6725" lon="0.1151">
        <ele>1851.6</ele>
        <time>2015-10-11T09:17:52Z</time>
      </trkpt>
      <trkpt lat="42.67249" lon="0.11526">
        <ele>1852.6</ele>
        <time>2015-10-11T09:17:59Z</time>
      </trkpt>
      <trkpt lat="42.67247" lon="0.11543">
        <ele>1855</ele>
        <time>2015-10-11T09:18:07Z</time>
      </trkpt>
      <trkpt lat="42.67243" lon="0.11562">
        <ele>1856.9</ele>
        <time>2015-10-11T09:18:16Z</time>
      </trkpt>
      <trkpt lat="42.6724" lon="0.11569">
        <ele>1857.4</ele>
        <time>2015-10-11T09:18:20Z</time>
      </trkpt>
      <trkpt lat="42.67232" lon="0.11585">
        <ele>1859.3</ele>
        <time>2015-10-11T09:18:29Z</time>
      </trkpt>
      <trkpt lat="42.67222" lon="0.116">
        <ele>1860.8</ele>
        <time>2015-10-11T09:18:39Z</time>
      </trkpt>
      <trkpt lat="42.67209" lon="0.11616">
        <ele>1863.7</ele>
        <time>2015-10-11T09:18:50Z</time>
      </trkpt>
      <trkpt lat="42.672" lon="0.11625">
        <ele>1864.6</ele>
        <time>2015-10-11T09:18:57Z</time>
      </trkpt>
      <trkpt lat="42.67191" lon="0.11639">
        <ele>1866.5</ele>
        <time>2015-10-11T09:19:06Z</time>
      </trkpt>
      <trkpt lat="42.67187" lon="0.11645">
        <ele>1867</ele>
        <time>2015-10-11T09:19:09Z</time>
      </trkpt>
      <trkpt lat="42.67186" lon="0.11647">
        <ele>1867.5</ele>
        <time>2015-10-11T09:19:10Z</time>
      </trkpt>
      <trkpt lat="42.67177" lon="0.11662">
        <ele>1868.9</ele>
        <time>2015-10-11T09:19:19Z</time>
      </trkpt>
      <trkpt lat="42.67165" lon="0.11681">
        <ele>1870.9</ele>
        <time>2015-10-11T09:19:30Z</time>
      </trkpt>
      <trkpt lat="42.67156" lon="0.11697">
        <ele>1872.3</ele>
        <time>2015-10-11T09:19:39Z</time>
      </trkpt>
      <trkpt lat="42.6715" lon="0.11713">
        <ele>1873.3</ele>
        <time>2015-10-11T09:19:47Z</time>
      </trkpt>
      <trkpt lat="42.67146" lon="0.11734">
        <ele>1875.7</ele>
        <time>2015-10-11T09:19:56Z</time>
      </trkpt>
      <trkpt lat="42.67141" lon="0.11749">
        <ele>1876.2</ele>
        <time>2015-10-11T09:20:04Z</time>
      </trkpt>
      <trkpt lat="42.67141" lon="0.11753">
        <ele>1876.6</ele>
        <time>2015-10-11T09:20:06Z</time>
      </trkpt>
      <trkpt lat="42.67141" lon="0.11756">
        <ele>1877.1</ele>
        <time>2015-10-11T09:20:07Z</time>
      </trkpt>
      <trkpt lat="42.6714" lon="0.11758">
        <ele>1877.1</ele>
        <time>2015-10-11T09:20:08Z</time>
      </trkpt>
      <trkpt lat="42.6714" lon="0.1176">
        <ele>1877.6</ele>
        <time>2015-10-11T09:20:09Z</time>
      </trkpt>
      <trkpt lat="42.6714" lon="0.11762">
        <ele>1877.6</ele>
        <time>2015-10-11T09:20:10Z</time>
      </trkpt>
      <trkpt lat="42.67139" lon="0.11773">
        <ele>1878.1</ele>
        <time>2015-10-11T09:20:15Z</time>
      </trkpt>
      <trkpt lat="42.67139" lon="0.11775">
        <ele>1878.6</ele>
        <time>2015-10-11T09:20:16Z</time>
      </trkpt>
      <trkpt lat="42.6714" lon="0.11777">
        <ele>1878.6</ele>
        <time>2015-10-11T09:20:17Z</time>
      </trkpt>
      <trkpt lat="42.6714" lon="0.11779">
        <ele>1879</ele>
        <time>2015-10-11T09:20:18Z</time>
      </trkpt>
      <trkpt lat="42.67141" lon="0.11781">
        <ele>1879</ele>
        <time>2015-10-11T09:20:19Z</time>
      </trkpt>
      <trkpt lat="42.67142" lon="0.11782">
        <ele>1879</ele>
        <time>2015-10-11T09:20:20Z</time>
      </trkpt>
      <trkpt lat="42.67143" lon="0.11783">
        <ele>1879.5</ele>
        <time>2015-10-11T09:20:21Z</time>
      </trkpt>
      <trkpt lat="42.67145" lon="0.11783">
        <ele>1879.5</ele>
        <time>2015-10-11T09:20:22Z</time>
      </trkpt>
      <trkpt lat="42.67146" lon="0.11783">
        <ele>1879.5</ele>
        <time>2015-10-11T09:20:23Z</time>
      </trkpt>
      <trkpt lat="42.67147" lon="0.11781">
        <ele>1880</ele>
        <time>2015-10-11T09:20:24Z</time>
      </trkpt>
      <trkpt lat="42.67148" lon="0.1178">
        <ele>1880</ele>
        <time>2015-10-11T09:20:25Z</time>
      </trkpt>
      <trkpt lat="42.67149" lon="0.11778">
        <ele>1880.5</ele>
        <time>2015-10-11T09:20:26Z</time>
      </trkpt>
      <trkpt lat="42.67149" lon="0.11776">
        <ele>1880.5</ele>
        <time>2015-10-11T09:20:27Z</time>
      </trkpt>
      <trkpt lat="42.67153" lon="0.11758">
        <ele>1881.4</ele>
        <time>2015-10-11T09:20:35Z</time>
      </trkpt>
      <trkpt lat="42.6716" lon="0.11746">
        <ele>1882.4</ele>
        <time>2015-10-11T09:20:42Z</time>
      </trkpt>
      <trkpt lat="42.67166" lon="0.11736">
        <ele>1883.4</ele>
        <time>2015-10-11T09:20:48Z</time>
      </trkpt>
      <trkpt lat="42.67167" lon="0.11734">
        <ele>1883.4</ele>
        <time>2015-10-11T09:20:49Z</time>
      </trkpt>
      <trkpt lat="42.67168" lon="0.11733">
        <ele>1884.3</ele>
        <time>2015-10-11T09:20:50Z</time>
      </trkpt>
      <trkpt lat="42.67179" lon="0.1172">
        <ele>1885.3</ele>
        <time>2015-10-11T09:20:59Z</time>
      </trkpt>
      <trkpt lat="42.67191" lon="0.11709">
        <ele>1887.2</ele>
        <time>2015-10-11T09:21:08Z</time>
      </trkpt>
      <trkpt lat="42.67203" lon="0.117">
        <ele>1888.7</ele>
        <time>2015-10-11T09:21:17Z</time>
      </trkpt>
      <trkpt lat="42.67205" lon="0.11699">
        <ele>1888.7</ele>
        <time>2015-10-11T09:21:18Z</time>
      </trkpt>
      <trkpt lat="42.67206" lon="0.11698">
        <ele>1888.7</ele>
        <time>2015-10-11T09:21:19Z</time>
      </trkpt>
      <trkpt lat="42.67208" lon="0.11697">
        <ele>1889.1</ele>
        <time>2015-10-11T09:21:20Z</time>
      </trkpt>
      <trkpt lat="42.67209" lon="0.11696">
        <ele>1889.1</ele>
        <time>2015-10-11T09:21:21Z</time>
      </trkpt>
      <trkpt lat="42.67211" lon="0.11695">
        <ele>1889.1</ele>
        <time>2015-10-11T09:21:22Z</time>
      </trkpt>
      <trkpt lat="42.67212" lon="0.11694">
        <ele>1889.6</ele>
        <time>2015-10-11T09:21:23Z</time>
      </trkpt>
      <trkpt lat="42.67214" lon="0.11693">
        <ele>1889.6</ele>
        <time>2015-10-11T09:21:24Z</time>
      </trkpt>
      <trkpt lat="42.67224" lon="0.11689">
        <ele>1890.6</ele>
        <time>2015-10-11T09:21:31Z</time>
      </trkpt>
      <trkpt lat="42.67225" lon="0.11688">
        <ele>1890.6</ele>
        <time>2015-10-11T09:21:32Z</time>
      </trkpt>
      <trkpt lat="42.67227" lon="0.11687">
        <ele>1891.5</ele>
        <time>2015-10-11T09:21:33Z</time>
      </trkpt>
      <trkpt lat="42.67236" lon="0.1168">
        <ele>1892</ele>
        <time>2015-10-11T09:21:40Z</time>
      </trkpt>
      <trkpt lat="42.67248" lon="0.11672">
        <ele>1893.4</ele>
        <time>2015-10-11T09:21:48Z</time>
      </trkpt>
      <trkpt lat="42.67264" lon="0.1166">
        <ele>1895.4</ele>
        <time>2015-10-11T09:21:59Z</time>
      </trkpt>
      <trkpt lat="42.6728" lon="0.11648">
        <ele>1897.8</ele>
        <time>2015-10-11T09:22:10Z</time>
      </trkpt>
      <trkpt lat="42.67282" lon="0.11645">
        <ele>1898.3</ele>
        <time>2015-10-11T09:22:12Z</time>
      </trkpt>
      <trkpt lat="42.67283" lon="0.11644">
        <ele>1898.3</ele>
        <time>2015-10-11T09:22:13Z</time>
      </trkpt>
      <trkpt lat="42.67284" lon="0.11643">
        <ele>1898.7</ele>
        <time>2015-10-11T09:22:14Z</time>
      </trkpt>
      <trkpt lat="42.67285" lon="0.11642">
        <ele>1898.7</ele>
        <time>2015-10-11T09:22:15Z</time>
      </trkpt>
      <trkpt lat="42.67286" lon="0.1164">
        <ele>1898.7</ele>
        <time>2015-10-11T09:22:16Z</time>
      </trkpt>
      <trkpt lat="42.67288" lon="0.11639">
        <ele>1898.7</ele>
        <time>2015-10-11T09:22:17Z</time>
      </trkpt>
      <trkpt lat="42.673" lon="0.11622">
        <ele>1900.7</ele>
        <time>2015-10-11T09:22:28Z</time>
      </trkpt>
      <trkpt lat="42.67308" lon="0.11607">
        <ele>1902.1</ele>
        <time>2015-10-11T09:22:36Z</time>
      </trkpt>
      <trkpt lat="42.67313" lon="0.11597">
        <ele>1903.6</ele>
        <time>2015-10-11T09:22:42Z</time>
      </trkpt>
      <trkpt lat="42.67323" lon="0.11581">
        <ele>1905.5</ele>
        <time>2015-10-11T09:22:52Z</time>
      </trkpt>
      <trkpt lat="42.67329" lon="0.1157">
        <ele>1906.9</ele>
        <time>2015-10-11T09:22:59Z</time>
      </trkpt>
      <trkpt lat="42.6733" lon="0.11568">
        <ele>1906.9</ele>
        <time>2015-10-11T09:23:00Z</time>
      </trkpt>
      <trkpt lat="42.67331" lon="0.11566">
        <ele>1906.9</ele>
        <time>2015-10-11T09:23:01Z</time>
      </trkpt>
      <trkpt lat="42.67342" lon="0.11541">
        <ele>1909.3</ele>
        <time>2015-10-11T09:23:14Z</time>
      </trkpt>
      <trkpt lat="42.67352" lon="0.11524">
        <ele>1911.2</ele>
        <time>2015-10-11T09:23:24Z</time>
      </trkpt>
      <trkpt lat="42.67363" lon="0.11504">
        <ele>1913.2</ele>
        <time>2015-10-11T09:23:35Z</time>
      </trkpt>
      <trkpt lat="42.6737" lon="0.1149">
        <ele>1914.1</ele>
        <time>2015-10-11T09:23:43Z</time>
      </trkpt>
      <trkpt lat="42.67378" lon="0.11475">
        <ele>1915.6</ele>
        <time>2015-10-11T09:23:51Z</time>
      </trkpt>
      <trkpt lat="42.67386" lon="0.11461">
        <ele>1917</ele>
        <time>2015-10-11T09:23:58Z</time>
      </trkpt>
      <trkpt lat="42.67397" lon="0.11447">
        <ele>1918.9</ele>
        <time>2015-10-11T09:24:08Z</time>
      </trkpt>
      <trkpt lat="42.67407" lon="0.11435">
        <ele>1920.4</ele>
        <time>2015-10-11T09:24:17Z</time>
      </trkpt>
      <trkpt lat="42.67418" lon="0.11425">
        <ele>1921.3</ele>
        <time>2015-10-11T09:24:25Z</time>
      </trkpt>
      <trkpt lat="42.67431" lon="0.11415">
        <ele>1922.8</ele>
        <time>2015-10-11T09:24:34Z</time>
      </trkpt>
      <trkpt lat="42.67446" lon="0.11396">
        <ele>1924.7</ele>
        <time>2015-10-11T09:24:45Z</time>
      </trkpt>
      <trkpt lat="42.67458" lon="0.11379">
        <ele>1926.6</ele>
        <time>2015-10-11T09:24:55Z</time>
      </trkpt>
      <trkpt lat="42.67467" lon="0.11366">
        <ele>1927.6</ele>
        <time>2015-10-11T09:25:03Z</time>
      </trkpt>
      <trkpt lat="42.67476" lon="0.11353">
        <ele>1929</ele>
        <time>2015-10-11T09:25:11Z</time>
      </trkpt>
      <trkpt lat="42.67489" lon="0.1134">
        <ele>1930.5</ele>
        <time>2015-10-11T09:25:21Z</time>
      </trkpt>
      <trkpt lat="42.67501" lon="0.11329">
        <ele>1932.4</ele>
        <time>2015-10-11T09:25:30Z</time>
      </trkpt>
      <trkpt lat="42.67506" lon="0.11324">
        <ele>1933.3</ele>
        <time>2015-10-11T09:25:34Z</time>
      </trkpt>
      <trkpt lat="42.67507" lon="0.11323">
        <ele>1933.3</ele>
        <time>2015-10-11T09:25:35Z</time>
      </trkpt>
      <trkpt lat="42.67512" lon="0.11318">
        <ele>1933.8</ele>
        <time>2015-10-11T09:25:39Z</time>
      </trkpt>
      <trkpt lat="42.67513" lon="0.11316">
        <ele>1933.8</ele>
        <time>2015-10-11T09:25:40Z</time>
      </trkpt>
      <trkpt lat="42.67525" lon="0.11302">
        <ele>1936.7</ele>
        <time>2015-10-11T09:25:50Z</time>
      </trkpt>
      <trkpt lat="42.67531" lon="0.11288">
        <ele>1937.7</ele>
        <time>2015-10-11T09:25:59Z</time>
      </trkpt>
      <trkpt lat="42.67543" lon="0.11279">
        <ele>1939.1</ele>
        <time>2015-10-11T09:26:06Z</time>
      </trkpt>
      <trkpt lat="42.67556" lon="0.11265">
        <ele>1941</ele>
        <time>2015-10-11T09:26:16Z</time>
      </trkpt>
      <trkpt lat="42.67566" lon="0.11255">
        <ele>1942.5</ele>
        <time>2015-10-11T09:26:23Z</time>
      </trkpt>
      <trkpt lat="42.6758" lon="0.11241">
        <ele>1944.4</ele>
        <time>2015-10-11T09:26:33Z</time>
      </trkpt>
      <trkpt lat="42.67594" lon="0.11227">
        <ele>1946.3</ele>
        <time>2015-10-11T09:26:43Z</time>
      </trkpt>
      <trkpt lat="42.67607" lon="0.11211">
        <ele>1948.2</ele>
        <time>2015-10-11T09:26:53Z</time>
      </trkpt>
      <trkpt lat="42.67608" lon="0.11209">
        <ele>1948.2</ele>
        <time>2015-10-11T09:26:54Z</time>
      </trkpt>
      <trkpt lat="42.67609" lon="0.11207">
        <ele>1948.2</ele>
        <time>2015-10-11T09:26:55Z</time>
      </trkpt>
      <trkpt lat="42.6761" lon="0.11206">
        <ele>1948.7</ele>
        <time>2015-10-11T09:26:56Z</time>
      </trkpt>
      <trkpt lat="42.67622" lon="0.11189">
        <ele>1950.7</ele>
        <time>2015-10-11T09:27:06Z</time>
      </trkpt>
      <trkpt lat="42.67633" lon="0.11176">
        <ele>1952.1</ele>
        <time>2015-10-11T09:27:15Z</time>
      </trkpt>
      <trkpt lat="42.6764" lon="0.11165">
        <ele>1953.5</ele>
        <time>2015-10-11T09:27:22Z</time>
      </trkpt>
      <trkpt lat="42.67651" lon="0.1115">
        <ele>1955</ele>
        <time>2015-10-11T09:27:32Z</time>
      </trkpt>
      <trkpt lat="42.67661" lon="0.11136">
        <ele>1956.4</ele>
        <time>2015-10-11T09:27:41Z</time>
      </trkpt>
      <trkpt lat="42.67669" lon="0.11122">
        <ele>1957.9</ele>
        <time>2015-10-11T09:27:49Z</time>
      </trkpt>
      <trkpt lat="42.67676" lon="0.11111">
        <ele>1958.8</ele>
        <time>2015-10-11T09:27:58Z</time>
      </trkpt>
      <trkpt lat="42.67678" lon="0.11112">
        <ele>1958.8</ele>
        <time>2015-10-11T09:28:13Z</time>
      </trkpt>
      <trkpt lat="42.67678" lon="0.1111">
        <ele>1958.8</ele>
        <time>2015-10-11T09:28:29Z</time>
      </trkpt>
      <trkpt lat="42.67679" lon="0.11108">
        <ele>1958.8</ele>
        <time>2015-10-11T09:28:38Z</time>
      </trkpt>
      <trkpt lat="42.6768" lon="0.11107">
        <ele>1958.8</ele>
        <time>2015-10-11T09:28:39Z</time>
      </trkpt>
      <trkpt lat="42.6768" lon="0.11105">
        <ele>1958.8</ele>
        <time>2015-10-11T09:28:40Z</time>
      </trkpt>
      <trkpt lat="42.67681" lon="0.11104">
        <ele>1959.3</ele>
        <time>2015-10-11T09:28:41Z</time>
      </trkpt>
      <trkpt lat="42.67682" lon="0.11102">
        <ele>1959.3</ele>
        <time>2015-10-11T09:28:42Z</time>
      </trkpt>
      <trkpt lat="42.67682" lon="0.111">
        <ele>1959.3</ele>
        <time>2015-10-11T09:28:43Z</time>
      </trkpt>
      <trkpt lat="42.67686" lon="0.11089">
        <ele>1960.8</ele>
        <time>2015-10-11T09:28:49Z</time>
      </trkpt>
      <trkpt lat="42.67693" lon="0.11075">
        <ele>1961.7</ele>
        <time>2015-10-11T09:28:57Z</time>
      </trkpt>
      <trkpt lat="42.67698" lon="0.11061">
        <ele>1963.2</ele>
        <time>2015-10-11T09:29:04Z</time>
      </trkpt>
      <trkpt lat="42.67703" lon="0.11037">
        <ele>1964.1</ele>
        <time>2015-10-11T09:29:14Z</time>
      </trkpt>
      <trkpt lat="42.67706" lon="0.11028">
        <ele>1964.6</ele>
        <time>2015-10-11T09:29:18Z</time>
      </trkpt>
      <trkpt lat="42.67706" lon="0.11026">
        <ele>1965.1</ele>
        <time>2015-10-11T09:29:19Z</time>
      </trkpt>
      <trkpt lat="42.67715" lon="0.11011">
        <ele>1966</ele>
        <time>2015-10-11T09:29:27Z</time>
      </trkpt>
      <trkpt lat="42.67721" lon="0.11">
        <ele>1967</ele>
        <time>2015-10-11T09:29:33Z</time>
      </trkpt>
      <trkpt lat="42.67722" lon="0.10999">
        <ele>1967.5</ele>
        <time>2015-10-11T09:29:34Z</time>
      </trkpt>
      <trkpt lat="42.67723" lon="0.10997">
        <ele>1968</ele>
        <time>2015-10-11T09:29:35Z</time>
      </trkpt>
      <trkpt lat="42.67724" lon="0.10995">
        <ele>1968</ele>
        <time>2015-10-11T09:29:36Z</time>
      </trkpt>
      <trkpt lat="42.67726" lon="0.10994">
        <ele>1968.4</ele>
        <time>2015-10-11T09:29:37Z</time>
      </trkpt>
      <trkpt lat="42.67727" lon="0.10993">
        <ele>1968.4</ele>
        <time>2015-10-11T09:29:38Z</time>
      </trkpt>
      <trkpt lat="42.67728" lon="0.10991">
        <ele>1968.4</ele>
        <time>2015-10-11T09:29:39Z</time>
      </trkpt>
      <trkpt lat="42.67729" lon="0.1099">
        <ele>1968.9</ele>
        <time>2015-10-11T09:29:40Z</time>
      </trkpt>
      <trkpt lat="42.6773" lon="0.10988">
        <ele>1968.9</ele>
        <time>2015-10-11T09:29:41Z</time>
      </trkpt>
      <trkpt lat="42.67731" lon="0.10986">
        <ele>1968.9</ele>
        <time>2015-10-11T09:29:42Z</time>
      </trkpt>
      <trkpt lat="42.67732" lon="0.10985">
        <ele>1968.9</ele>
        <time>2015-10-11T09:29:43Z</time>
      </trkpt>
      <trkpt lat="42.67733" lon="0.10983">
        <ele>1968.9</ele>
        <time>2015-10-11T09:29:44Z</time>
      </trkpt>
      <trkpt lat="42.67736" lon="0.1098">
        <ele>1969.4</ele>
        <time>2015-10-11T09:29:46Z</time>
      </trkpt>
      <trkpt lat="42.67747" lon="0.10971">
        <ele>1970.8</ele>
        <time>2015-10-11T09:29:54Z</time>
      </trkpt>
      <trkpt lat="42.67748" lon="0.10969">
        <ele>1970.8</ele>
        <time>2015-10-11T09:29:55Z</time>
      </trkpt>
      <trkpt lat="42.67749" lon="0.10968">
        <ele>1971.3</ele>
        <time>2015-10-11T09:29:56Z</time>
      </trkpt>
      <trkpt lat="42.6775" lon="0.10967">
        <ele>1971.3</ele>
        <time>2015-10-11T09:29:57Z</time>
      </trkpt>
      <trkpt lat="42.67751" lon="0.10965">
        <ele>1971.3</ele>
        <time>2015-10-11T09:29:58Z</time>
      </trkpt>
      <trkpt lat="42.67753" lon="0.10964">
        <ele>1971.8</ele>
        <time>2015-10-11T09:29:59Z</time>
      </trkpt>
      <trkpt lat="42.67754" lon="0.10963">
        <ele>1971.8</ele>
        <time>2015-10-11T09:30:00Z</time>
      </trkpt>
      <trkpt lat="42.67755" lon="0.10961">
        <ele>1972.3</ele>
        <time>2015-10-11T09:30:01Z</time>
      </trkpt>
      <trkpt lat="42.67757" lon="0.1096">
        <ele>1972.3</ele>
        <time>2015-10-11T09:30:02Z</time>
      </trkpt>
      <trkpt lat="42.67758" lon="0.10959">
        <ele>1972.8</ele>
        <time>2015-10-11T09:30:03Z</time>
      </trkpt>
      <trkpt lat="42.67771" lon="0.10949">
        <ele>1973.7</ele>
        <time>2015-10-11T09:30:12Z</time>
      </trkpt>
      <trkpt lat="42.67781" lon="0.10937">
        <ele>1975.7</ele>
        <time>2015-10-11T09:30:20Z</time>
      </trkpt>
      <trkpt lat="42.67791" lon="0.10921">
        <ele>1976.1</ele>
        <time>2015-10-11T09:30:29Z</time>
      </trkpt>
      <trkpt lat="42.67801" lon="0.10906">
        <ele>1978.1</ele>
        <time>2015-10-11T09:30:37Z</time>
      </trkpt>
      <trkpt lat="42.6781" lon="0.10889">
        <ele>1979.5</ele>
        <time>2015-10-11T09:30:46Z</time>
      </trkpt>
      <trkpt lat="42.67815" lon="0.10873">
        <ele>1981.4</ele>
        <time>2015-10-11T09:30:54Z</time>
      </trkpt>
      <trkpt lat="42.67818" lon="0.10864">
        <ele>1981.9</ele>
        <time>2015-10-11T09:30:58Z</time>
      </trkpt>
      <trkpt lat="42.67818" lon="0.10862">
        <ele>1981.9</ele>
        <time>2015-10-11T09:30:59Z</time>
      </trkpt>
      <trkpt lat="42.67825" lon="0.10836">
        <ele>1983.8</ele>
        <time>2015-10-11T09:31:11Z</time>
      </trkpt>
      <trkpt lat="42.6783" lon="0.10813">
        <ele>1985.7</ele>
        <time>2015-10-11T09:31:22Z</time>
      </trkpt>
      <trkpt lat="42.67834" lon="0.10796">
        <ele>1987.2</ele>
        <time>2015-10-11T09:31:30Z</time>
      </trkpt>
      <trkpt lat="42.67839" lon="0.10777">
        <ele>1988.6</ele>
        <time>2015-10-11T09:31:39Z</time>
      </trkpt>
      <trkpt lat="42.67842" lon="0.10769">
        <ele>1989.1</ele>
        <time>2015-10-11T09:31:43Z</time>
      </trkpt>
      <trkpt lat="42.67842" lon="0.10767">
        <ele>1989.6</ele>
        <time>2015-10-11T09:31:44Z</time>
      </trkpt>
      <trkpt lat="42.67843" lon="0.10765">
        <ele>1990.1</ele>
        <time>2015-10-11T09:31:45Z</time>
      </trkpt>
      <trkpt lat="42.67843" lon="0.10763">
        <ele>1990.1</ele>
        <time>2015-10-11T09:31:46Z</time>
      </trkpt>
      <trkpt lat="42.67844" lon="0.10761">
        <ele>1990.1</ele>
        <time>2015-10-11T09:31:47Z</time>
      </trkpt>
      <trkpt lat="42.67844" lon="0.10759">
        <ele>1990.1</ele>
        <time>2015-10-11T09:31:48Z</time>
      </trkpt>
      <trkpt lat="42.67845" lon="0.10756">
        <ele>1990.6</ele>
        <time>2015-10-11T09:31:49Z</time>
      </trkpt>
      <trkpt lat="42.67846" lon="0.10748">
        <ele>1991.5</ele>
        <time>2015-10-11T09:31:53Z</time>
      </trkpt>
      <trkpt lat="42.67846" lon="0.10746">
        <ele>1991.5</ele>
        <time>2015-10-11T09:31:54Z</time>
      </trkpt>
      <trkpt lat="42.67846" lon="0.10744">
        <ele>1991.5</ele>
        <time>2015-10-11T09:31:55Z</time>
      </trkpt>
      <trkpt lat="42.67846" lon="0.10742">
        <ele>1992</ele>
        <time>2015-10-11T09:31:56Z</time>
      </trkpt>
      <trkpt lat="42.67846" lon="0.1074">
        <ele>1992</ele>
        <time>2015-10-11T09:31:57Z</time>
      </trkpt>
      <trkpt lat="42.67846" lon="0.10737">
        <ele>1992</ele>
        <time>2015-10-11T09:31:58Z</time>
      </trkpt>
      <trkpt lat="42.67848" lon="0.10715">
        <ele>1993.9</ele>
        <time>2015-10-11T09:32:08Z</time>
      </trkpt>
      <trkpt lat="42.67851" lon="0.10697">
        <ele>1995.3</ele>
        <time>2015-10-11T09:32:17Z</time>
      </trkpt>
      <trkpt lat="42.67858" lon="0.1068">
        <ele>1997.3</ele>
        <time>2015-10-11T09:32:26Z</time>
      </trkpt>
      <trkpt lat="42.67863" lon="0.10672">
        <ele>1998.7</ele>
        <time>2015-10-11T09:32:31Z</time>
      </trkpt>
      <trkpt lat="42.67864" lon="0.1067">
        <ele>1998.7</ele>
        <time>2015-10-11T09:32:32Z</time>
      </trkpt>
      <trkpt lat="42.67864" lon="0.10668">
        <ele>1998.7</ele>
        <time>2015-10-11T09:32:33Z</time>
      </trkpt>
      <trkpt lat="42.67865" lon="0.10666">
        <ele>1998.7</ele>
        <time>2015-10-11T09:32:34Z</time>
      </trkpt>
      <trkpt lat="42.67865" lon="0.10664">
        <ele>1999.7</ele>
        <time>2015-10-11T09:32:35Z</time>
      </trkpt>
      <trkpt lat="42.67865" lon="0.10662">
        <ele>1999.7</ele>
        <time>2015-10-11T09:32:36Z</time>
      </trkpt>
      <trkpt lat="42.67865" lon="0.1066">
        <ele>1999.7</ele>
        <time>2015-10-11T09:32:37Z</time>
      </trkpt>
      <trkpt lat="42.67864" lon="0.10641">
        <ele>2001.1</ele>
        <time>2015-10-11T09:32:45Z</time>
      </trkpt>
      <trkpt lat="42.67859" lon="0.10622">
        <ele>2003.5</ele>
        <time>2015-10-11T09:32:54Z</time>
      </trkpt>
      <trkpt lat="42.67857" lon="0.10614">
        <ele>2004</ele>
        <time>2015-10-11T09:32:58Z</time>
      </trkpt>
      <trkpt lat="42.67858" lon="0.10611">
        <ele>2004</ele>
        <time>2015-10-11T09:32:59Z</time>
      </trkpt>
      <trkpt lat="42.67858" lon="0.10609">
        <ele>2004</ele>
        <time>2015-10-11T09:33:00Z</time>
      </trkpt>
      <trkpt lat="42.67858" lon="0.10607">
        <ele>2004.5</ele>
        <time>2015-10-11T09:33:01Z</time>
      </trkpt>
      <trkpt lat="42.67859" lon="0.10605">
        <ele>2004.5</ele>
        <time>2015-10-11T09:33:02Z</time>
      </trkpt>
      <trkpt lat="42.67859" lon="0.10598">
        <ele>2005</ele>
        <time>2015-10-11T09:33:05Z</time>
      </trkpt>
      <trkpt lat="42.6786" lon="0.10596">
        <ele>2005</ele>
        <time>2015-10-11T09:33:06Z</time>
      </trkpt>
      <trkpt lat="42.6786" lon="0.10594">
        <ele>2005</ele>
        <time>2015-10-11T09:33:07Z</time>
      </trkpt>
      <trkpt lat="42.67866" lon="0.10574">
        <ele>2006.4</ele>
        <time>2015-10-11T09:33:17Z</time>
      </trkpt>
      <trkpt lat="42.67871" lon="0.10558">
        <ele>2007.4</ele>
        <time>2015-10-11T09:33:25Z</time>
      </trkpt>
      <trkpt lat="42.67872" lon="0.10557">
        <ele>2007.8</ele>
        <time>2015-10-11T09:33:26Z</time>
      </trkpt>
      <trkpt lat="42.67872" lon="0.10557">
        <ele>2007.8</ele>
        <time>2015-10-11T09:33:32Z</time>
      </trkpt>
      <trkpt lat="42.67872" lon="0.10559">
        <ele>2007.8</ele>
        <time>2015-10-11T09:33:44Z</time>
      </trkpt>
      <trkpt lat="42.67873" lon="0.10561">
        <ele>2007.8</ele>
        <time>2015-10-11T09:34:00Z</time>
      </trkpt>
      <trkpt lat="42.67875" lon="0.1056">
        <ele>2007.8</ele>
        <time>2015-10-11T09:34:20Z</time>
      </trkpt>
      <trkpt lat="42.67875" lon="0.1056">
        <ele>2008.3</ele>
        <time>2015-10-11T09:34:34Z</time>
      </trkpt>
      <trkpt lat="42.67875" lon="0.1056">
        <ele>2008.3</ele>
        <time>2015-10-11T09:34:46Z</time>
      </trkpt>
      <trkpt lat="42.67874" lon="0.1056">
        <ele>2008.3</ele>
        <time>2015-10-11T09:34:55Z</time>
      </trkpt>
      <trkpt lat="42.67876" lon="0.1056">
        <ele>2008.3</ele>
        <time>2015-10-11T09:35:00Z</time>
      </trkpt>
      <trkpt lat="42.67873" lon="0.10563">
        <ele>2008.3</ele>
        <time>2015-10-11T09:35:14Z</time>
      </trkpt>
      <trkpt lat="42.67873" lon="0.10563">
        <ele>2008.3</ele>
        <time>2015-10-11T09:35:27Z</time>
      </trkpt>
      <trkpt lat="42.67874" lon="0.10559">
        <ele>2008.8</ele>
        <time>2015-10-11T09:35:42Z</time>
      </trkpt>
      <trkpt lat="42.67875" lon="0.1056">
        <ele>2008.8</ele>
        <time>2015-10-11T09:36:00Z</time>
      </trkpt>
      <trkpt lat="42.67874" lon="0.1056">
        <ele>2008.8</ele>
        <time>2015-10-11T09:36:15Z</time>
      </trkpt>
      <trkpt lat="42.67875" lon="0.10559">
        <ele>2008.8</ele>
        <time>2015-10-11T09:36:33Z</time>
      </trkpt>
      <trkpt lat="42.67875" lon="0.10562">
        <ele>2008.8</ele>
        <time>2015-10-11T09:36:50Z</time>
      </trkpt>
      <trkpt lat="42.67873" lon="0.10564">
        <ele>2008.8</ele>
        <time>2015-10-11T09:37:04Z</time>
      </trkpt>
      <trkpt lat="42.67874" lon="0.10563">
        <ele>2009.3</ele>
        <time>2015-10-11T09:37:25Z</time>
      </trkpt>
      <trkpt lat="42.67874" lon="0.10562">
        <ele>2009.3</ele>
        <time>2015-10-11T09:37:50Z</time>
      </trkpt>
      <trkpt lat="42.67874" lon="0.1056">
        <ele>2009.3</ele>
        <time>2015-10-11T09:38:04Z</time>
      </trkpt>
      <trkpt lat="42.67874" lon="0.10562">
        <ele>2009.8</ele>
        <time>2015-10-11T09:38:20Z</time>
      </trkpt>
      <trkpt lat="42.67873" lon="0.10563">
        <ele>2009.8</ele>
        <time>2015-10-11T09:38:35Z</time>
      </trkpt>
      <trkpt lat="42.67873" lon="0.10561">
        <ele>2009.8</ele>
        <time>2015-10-11T09:39:03Z</time>
      </trkpt>
      <trkpt lat="42.67872" lon="0.10559">
        <ele>2009.8</ele>
        <time>2015-10-11T09:39:05Z</time>
      </trkpt>
      <trkpt lat="42.67872" lon="0.10558">
        <ele>2009.8</ele>
        <time>2015-10-11T09:39:06Z</time>
      </trkpt>
      <trkpt lat="42.67872" lon="0.10555">
        <ele>2010.2</ele>
        <time>2015-10-11T09:39:11Z</time>
      </trkpt>
      <trkpt lat="42.67877" lon="0.10538">
        <ele>2011.2</ele>
        <time>2015-10-11T09:39:18Z</time>
      </trkpt>
      <trkpt lat="42.67884" lon="0.10519">
        <ele>2013.1</ele>
        <time>2015-10-11T09:39:26Z</time>
      </trkpt>
      <trkpt lat="42.67886" lon="0.10517">
        <ele>2013.1</ele>
        <time>2015-10-11T09:39:27Z</time>
      </trkpt>
      <trkpt lat="42.67887" lon="0.10515">
        <ele>2013.1</ele>
        <time>2015-10-11T09:39:28Z</time>
      </trkpt>
      <trkpt lat="42.67901" lon="0.10508">
        <ele>2014.6</ele>
        <time>2015-10-11T09:39:36Z</time>
      </trkpt>
      <trkpt lat="42.67919" lon="0.10516">
        <ele>2014.6</ele>
        <time>2015-10-11T09:39:45Z</time>
      </trkpt>
      <trkpt lat="42.67923" lon="0.10516">
        <ele>2015.1</ele>
        <time>2015-10-11T09:39:51Z</time>
      </trkpt>
      <trkpt lat="42.67923" lon="0.10516">
        <ele>2015.1</ele>
        <time>2015-10-11T09:40:02Z</time>
      </trkpt>
      <trkpt lat="42.67922" lon="0.10515">
        <ele>2015.1</ele>
        <time>2015-10-11T09:40:09Z</time>
      </trkpt>
      <trkpt lat="42.67923" lon="0.10516">
        <ele>2015.1</ele>
        <time>2015-10-11T09:40:19Z</time>
      </trkpt>
      <trkpt lat="42.67924" lon="0.10518">
        <ele>2015.5</ele>
        <time>2015-10-11T09:40:34Z</time>
      </trkpt>
      <trkpt lat="42.67925" lon="0.10518">
        <ele>2015.5</ele>
        <time>2015-10-11T09:40:53Z</time>
      </trkpt>
      <trkpt lat="42.67925" lon="0.10518">
        <ele>2015.5</ele>
        <time>2015-10-11T09:40:57Z</time>
      </trkpt>
      <trkpt lat="42.67925" lon="0.10518">
        <ele>2015.5</ele>
        <time>2015-10-11T09:41:03Z</time>
      </trkpt>
      <trkpt lat="42.67925" lon="0.10515">
        <ele>2015.5</ele>
        <time>2015-10-11T09:41:12Z</time>
      </trkpt>
      <trkpt lat="42.6793" lon="0.10515">
        <ele>2015.5</ele>
        <time>2015-10-11T09:41:21Z</time>
      </trkpt>
      <trkpt lat="42.67945" lon="0.10513">
        <ele>2017</ele>
        <time>2015-10-11T09:41:30Z</time>
      </trkpt>
      <trkpt lat="42.67961" lon="0.10507">
        <ele>2018.4</ele>
        <time>2015-10-11T09:41:40Z</time>
      </trkpt>
      <trkpt lat="42.67972" lon="0.10503">
        <ele>2019.4</ele>
        <time>2015-10-11T09:41:46Z</time>
      </trkpt>
      <trkpt lat="42.67973" lon="0.10502">
        <ele>2019.4</ele>
        <time>2015-10-11T09:41:47Z</time>
      </trkpt>
      <trkpt lat="42.67974" lon="0.10501">
        <ele>2019.9</ele>
        <time>2015-10-11T09:41:48Z</time>
      </trkpt>
      <trkpt lat="42.67976" lon="0.105">
        <ele>2019.9</ele>
        <time>2015-10-11T09:41:49Z</time>
      </trkpt>
      <trkpt lat="42.67978" lon="0.10499">
        <ele>2020.3</ele>
        <time>2015-10-11T09:41:50Z</time>
      </trkpt>
      <trkpt lat="42.67979" lon="0.10499">
        <ele>2020.3</ele>
        <time>2015-10-11T09:41:51Z</time>
      </trkpt>
      <trkpt lat="42.67981" lon="0.10498">
        <ele>2020.3</ele>
        <time>2015-10-11T09:41:52Z</time>
      </trkpt>
      <trkpt lat="42.67982" lon="0.10497">
        <ele>2020.3</ele>
        <time>2015-10-11T09:41:53Z</time>
      </trkpt>
      <trkpt lat="42.67983" lon="0.10497">
        <ele>2020.8</ele>
        <time>2015-10-11T09:41:54Z</time>
      </trkpt>
      <trkpt lat="42.67985" lon="0.10496">
        <ele>2020.8</ele>
        <time>2015-10-11T09:41:55Z</time>
      </trkpt>
      <trkpt lat="42.67998" lon="0.10493">
        <ele>2022.8</ele>
        <time>2015-10-11T09:42:03Z</time>
      </trkpt>
      <trkpt lat="42.67999" lon="0.10492">
        <ele>2023.2</ele>
        <time>2015-10-11T09:42:04Z</time>
      </trkpt>
      <trkpt lat="42.68001" lon="0.10492">
        <ele>2023.2</ele>
        <time>2015-10-11T09:42:05Z</time>
      </trkpt>
      <trkpt lat="42.68002" lon="0.10492">
        <ele>2023.2</ele>
        <time>2015-10-11T09:42:06Z</time>
      </trkpt>
      <trkpt lat="42.68004" lon="0.10493">
        <ele>2023.2</ele>
        <time>2015-10-11T09:42:07Z</time>
      </trkpt>
      <trkpt lat="42.68005" lon="0.10493">
        <ele>2023.7</ele>
        <time>2015-10-11T09:42:08Z</time>
      </trkpt>
      <trkpt lat="42.68021" lon="0.10498">
        <ele>2025.2</ele>
        <time>2015-10-11T09:42:18Z</time>
      </trkpt>
      <trkpt lat="42.68023" lon="0.105">
        <ele>2025.2</ele>
        <time>2015-10-11T09:42:20Z</time>
      </trkpt>
      <trkpt lat="42.68024" lon="0.10502">
        <ele>2025.2</ele>
        <time>2015-10-11T09:42:21Z</time>
      </trkpt>
      <trkpt lat="42.68025" lon="0.10504">
        <ele>2026.1</ele>
        <time>2015-10-11T09:42:22Z</time>
      </trkpt>
      <trkpt lat="42.68026" lon="0.10506">
        <ele>2026.1</ele>
        <time>2015-10-11T09:42:23Z</time>
      </trkpt>
      <trkpt lat="42.68027" lon="0.10508">
        <ele>2026.1</ele>
        <time>2015-10-11T09:42:24Z</time>
      </trkpt>
      <trkpt lat="42.68027" lon="0.10511">
        <ele>2026.6</ele>
        <time>2015-10-11T09:42:25Z</time>
      </trkpt>
      <trkpt lat="42.68028" lon="0.10512">
        <ele>2026.6</ele>
        <time>2015-10-11T09:42:26Z</time>
      </trkpt>
      <trkpt lat="42.68029" lon="0.10514">
        <ele>2026.6</ele>
        <time>2015-10-11T09:42:27Z</time>
      </trkpt>
      <trkpt lat="42.68029" lon="0.10517">
        <ele>2027.1</ele>
        <time>2015-10-11T09:42:28Z</time>
      </trkpt>
      <trkpt lat="42.6803" lon="0.10519">
        <ele>2027.1</ele>
        <time>2015-10-11T09:42:29Z</time>
      </trkpt>
      <trkpt lat="42.68037" lon="0.10537">
        <ele>2028.5</ele>
        <time>2015-10-11T09:42:38Z</time>
      </trkpt>
      <trkpt lat="42.68045" lon="0.10555">
        <ele>2030.4</ele>
        <time>2015-10-11T09:42:47Z</time>
      </trkpt>
      <trkpt lat="42.68054" lon="0.10574">
        <ele>2031.4</ele>
        <time>2015-10-11T09:42:56Z</time>
      </trkpt>
      <trkpt lat="42.68055" lon="0.10577">
        <ele>2031.9</ele>
        <time>2015-10-11T09:42:57Z</time>
      </trkpt>
      <trkpt lat="42.68056" lon="0.10578">
        <ele>2031.9</ele>
        <time>2015-10-11T09:42:58Z</time>
      </trkpt>
      <trkpt lat="42.68058" lon="0.10581">
        <ele>2031.9</ele>
        <time>2015-10-11T09:42:59Z</time>
      </trkpt>
      <trkpt lat="42.68059" lon="0.10583">
        <ele>2032.4</ele>
        <time>2015-10-11T09:43:00Z</time>
      </trkpt>
      <trkpt lat="42.6806" lon="0.10585">
        <ele>2032.4</ele>
        <time>2015-10-11T09:43:01Z</time>
      </trkpt>
      <trkpt lat="42.68061" lon="0.10587">
        <ele>2032.4</ele>
        <time>2015-10-11T09:43:02Z</time>
      </trkpt>
      <trkpt lat="42.68062" lon="0.10589">
        <ele>2032.4</ele>
        <time>2015-10-11T09:43:03Z</time>
      </trkpt>
      <trkpt lat="42.68063" lon="0.1059">
        <ele>2032.4</ele>
        <time>2015-10-11T09:43:04Z</time>
      </trkpt>
      <trkpt lat="42.68078" lon="0.10614">
        <ele>2034.3</ele>
        <time>2015-10-11T09:43:15Z</time>
      </trkpt>
      <trkpt lat="42.6809" lon="0.10632">
        <ele>2036.2</ele>
        <time>2015-10-11T09:43:25Z</time>
      </trkpt>
      <trkpt lat="42.681" lon="0.10647">
        <ele>2037.2</ele>
        <time>2015-10-11T09:43:33Z</time>
      </trkpt>
      <trkpt lat="42.68117" lon="0.10658">
        <ele>2038.6</ele>
        <time>2015-10-11T09:43:44Z</time>
      </trkpt>
      <trkpt lat="42.68129" lon="0.10651">
        <ele>2039.6</ele>
        <time>2015-10-11T09:43:51Z</time>
      </trkpt>
      <trkpt lat="42.68136" lon="0.10634">
        <ele>2040.5</ele>
        <time>2015-10-11T09:43:59Z</time>
      </trkpt>
      <trkpt lat="42.68138" lon="0.10626">
        <ele>2042</ele>
        <time>2015-10-11T09:44:03Z</time>
      </trkpt>
      <trkpt lat="42.68138" lon="0.10623">
        <ele>2042</ele>
        <time>2015-10-11T09:44:04Z</time>
      </trkpt>
      <trkpt lat="42.68139" lon="0.10621">
        <ele>2042.5</ele>
        <time>2015-10-11T09:44:05Z</time>
      </trkpt>
      <trkpt lat="42.68149" lon="0.10605">
        <ele>2043.4</ele>
        <time>2015-10-11T09:44:14Z</time>
      </trkpt>
      <trkpt lat="42.68162" lon="0.10592">
        <ele>2044.9</ele>
        <time>2015-10-11T09:44:23Z</time>
      </trkpt>
      <trkpt lat="42.68163" lon="0.1059">
        <ele>2045.3</ele>
        <time>2015-10-11T09:44:24Z</time>
      </trkpt>
      <trkpt lat="42.68165" lon="0.10589">
        <ele>2045.3</ele>
        <time>2015-10-11T09:44:25Z</time>
      </trkpt>
      <trkpt lat="42.68166" lon="0.10588">
        <ele>2045.8</ele>
        <time>2015-10-11T09:44:26Z</time>
      </trkpt>
      <trkpt lat="42.68178" lon="0.10584">
        <ele>2047.8</ele>
        <time>2015-10-11T09:44:34Z</time>
      </trkpt>
      <trkpt lat="42.6819" lon="0.10582">
        <ele>2049.7</ele>
        <time>2015-10-11T09:44:42Z</time>
      </trkpt>
      <trkpt lat="42.68203" lon="0.10581">
        <ele>2051.1</ele>
        <time>2015-10-11T09:44:50Z</time>
      </trkpt>
      <trkpt lat="42.68208" lon="0.10581">
        <ele>2052.1</ele>
        <time>2015-10-11T09:44:53Z</time>
      </trkpt>
      <trkpt lat="42.68209" lon="0.1058">
        <ele>2052.1</ele>
        <time>2015-10-11T09:44:54Z</time>
      </trkpt>
      <trkpt lat="42.68223" lon="0.10577">
        <ele>2053</ele>
        <time>2015-10-11T09:45:02Z</time>
      </trkpt>
      <trkpt lat="42.68233" lon="0.10574">
        <ele>2054.5</ele>
        <time>2015-10-11T09:45:09Z</time>
      </trkpt>
      <trkpt lat="42.68235" lon="0.10574">
        <ele>2054.5</ele>
        <time>2015-10-11T09:45:10Z</time>
      </trkpt>
      <trkpt lat="42.68246" lon="0.10567">
        <ele>2056.4</ele>
        <time>2015-10-11T09:45:18Z</time>
      </trkpt>
      <trkpt lat="42.68251" lon="0.10549">
        <ele>2057.4</ele>
        <time>2015-10-11T09:45:27Z</time>
      </trkpt>
      <trkpt lat="42.68254" lon="0.10525">
        <ele>2059.3</ele>
        <time>2015-10-11T09:45:37Z</time>
      </trkpt>
      <trkpt lat="42.68261" lon="0.10508">
        <ele>2060.7</ele>
        <time>2015-10-11T09:45:45Z</time>
      </trkpt>
      <trkpt lat="42.6827" lon="0.10493">
        <ele>2062.2</ele>
        <time>2015-10-11T09:45:53Z</time>
      </trkpt>
      <trkpt lat="42.68283" lon="0.10481">
        <ele>2064.1</ele>
        <time>2015-10-11T09:46:02Z</time>
      </trkpt>
      <trkpt lat="42.6829" lon="0.10476">
        <ele>2065.1</ele>
        <time>2015-10-11T09:46:07Z</time>
      </trkpt>
      <trkpt lat="42.68292" lon="0.10475">
        <ele>2065.1</ele>
        <time>2015-10-11T09:46:08Z</time>
      </trkpt>
      <trkpt lat="42.68293" lon="0.10474">
        <ele>2065.1</ele>
        <time>2015-10-11T09:46:09Z</time>
      </trkpt>
      <trkpt lat="42.68295" lon="0.10473">
        <ele>2065.5</ele>
        <time>2015-10-11T09:46:10Z</time>
      </trkpt>
      <trkpt lat="42.68296" lon="0.10472">
        <ele>2066</ele>
        <time>2015-10-11T09:46:11Z</time>
      </trkpt>
      <trkpt lat="42.683" lon="0.10469">
        <ele>2066.5</ele>
        <time>2015-10-11T09:46:14Z</time>
      </trkpt>
      <trkpt lat="42.68302" lon="0.10468">
        <ele>2066.5</ele>
        <time>2015-10-11T09:46:15Z</time>
      </trkpt>
      <trkpt lat="42.68304" lon="0.10468">
        <ele>2067</ele>
        <time>2015-10-11T09:46:16Z</time>
      </trkpt>
      <trkpt lat="42.68305" lon="0.10467">
        <ele>2067</ele>
        <time>2015-10-11T09:46:17Z</time>
      </trkpt>
      <trkpt lat="42.68307" lon="0.10467">
        <ele>2067</ele>
        <time>2015-10-11T09:46:18Z</time>
      </trkpt>
      <trkpt lat="42.68308" lon="0.10467">
        <ele>2067.4</ele>
        <time>2015-10-11T09:46:19Z</time>
      </trkpt>
      <trkpt lat="42.6831" lon="0.10467">
        <ele>2067.9</ele>
        <time>2015-10-11T09:46:20Z</time>
      </trkpt>
      <trkpt lat="42.68312" lon="0.10467">
        <ele>2067.9</ele>
        <time>2015-10-11T09:46:21Z</time>
      </trkpt>
      <trkpt lat="42.68324" lon="0.1047">
        <ele>2069.9</ele>
        <time>2015-10-11T09:46:28Z</time>
      </trkpt>
      <trkpt lat="42.68337" lon="0.10466">
        <ele>2070.8</ele>
        <time>2015-10-11T09:46:36Z</time>
      </trkpt>
      <trkpt lat="42.68355" lon="0.1046">
        <ele>2071.3</ele>
        <time>2015-10-11T09:46:45Z</time>
      </trkpt>
      <trkpt lat="42.68365" lon="0.10462">
        <ele>2072.3</ele>
        <time>2015-10-11T09:46:50Z</time>
      </trkpt>
      <trkpt lat="42.68366" lon="0.10465">
        <ele>2072.3</ele>
        <time>2015-10-11T09:46:51Z</time>
      </trkpt>
      <trkpt lat="42.68366" lon="0.10467">
        <ele>2072.7</ele>
        <time>2015-10-11T09:46:52Z</time>
      </trkpt>
      <trkpt lat="42.68367" lon="0.10472">
        <ele>2072.7</ele>
        <time>2015-10-11T09:46:54Z</time>
      </trkpt>
      <trkpt lat="42.68366" lon="0.10474">
        <ele>2073.2</ele>
        <time>2015-10-11T09:46:55Z</time>
      </trkpt>
      <trkpt lat="42.68357" lon="0.1049">
        <ele>2075.1</ele>
        <time>2015-10-11T09:47:04Z</time>
      </trkpt>
      <trkpt lat="42.68347" lon="0.10502">
        <ele>2076.6</ele>
        <time>2015-10-11T09:47:12Z</time>
      </trkpt>
      <trkpt lat="42.68333" lon="0.10518">
        <ele>2077.1</ele>
        <time>2015-10-11T09:47:21Z</time>
      </trkpt>
      <trkpt lat="42.68318" lon="0.10529">
        <ele>2078.5</ele>
        <time>2015-10-11T09:47:29Z</time>
      </trkpt>
      <trkpt lat="42.68306" lon="0.10544">
        <ele>2080.4</ele>
        <time>2015-10-11T09:47:38Z</time>
      </trkpt>
      <trkpt lat="42.68305" lon="0.10563">
        <ele>2081.9</ele>
        <time>2015-10-11T09:47:46Z</time>
      </trkpt>
      <trkpt lat="42.68308" lon="0.10576">
        <ele>2082.8</ele>
        <time>2015-10-11T09:47:51Z</time>
      </trkpt>
      <trkpt lat="42.6831" lon="0.10578">
        <ele>2082.8</ele>
        <time>2015-10-11T09:47:52Z</time>
      </trkpt>
      <trkpt lat="42.68325" lon="0.10593">
        <ele>2082.8</ele>
        <time>2015-10-11T09:48:00Z</time>
      </trkpt>
      <trkpt lat="42.68333" lon="0.10602">
        <ele>2083.8</ele>
        <time>2015-10-11T09:48:05Z</time>
      </trkpt>
      <trkpt lat="42.68334" lon="0.10604">
        <ele>2083.8</ele>
        <time>2015-10-11T09:48:06Z</time>
      </trkpt>
      <trkpt lat="42.68334" lon="0.10606">
        <ele>2084.3</ele>
        <time>2015-10-11T09:48:07Z</time>
      </trkpt>
      <trkpt lat="42.68333" lon="0.10608">
        <ele>2084.3</ele>
        <time>2015-10-11T09:48:08Z</time>
      </trkpt>
      <trkpt lat="42.68333" lon="0.10611">
        <ele>2084.3</ele>
        <time>2015-10-11T09:48:09Z</time>
      </trkpt>
      <trkpt lat="42.68331" lon="0.10614">
        <ele>2084.8</ele>
        <time>2015-10-11T09:48:10Z</time>
      </trkpt>
      <trkpt lat="42.6833" lon="0.10616">
        <ele>2084.8</ele>
        <time>2015-10-11T09:48:11Z</time>
      </trkpt>
      <trkpt lat="42.68324" lon="0.10631">
        <ele>2087.2</ele>
        <time>2015-10-11T09:48:18Z</time>
      </trkpt>
      <trkpt lat="42.68323" lon="0.1065">
        <ele>2088.6</ele>
        <time>2015-10-11T09:48:26Z</time>
      </trkpt>
      <trkpt lat="42.68326" lon="0.10657">
        <ele>2088.6</ele>
        <time>2015-10-11T09:48:32Z</time>
      </trkpt>
      <trkpt lat="42.68326" lon="0.10656">
        <ele>2088.6</ele>
        <time>2015-10-11T09:48:42Z</time>
      </trkpt>
      <trkpt lat="42.68327" lon="0.10658">
        <ele>2089.1</ele>
        <time>2015-10-11T09:48:44Z</time>
      </trkpt>
      <trkpt lat="42.68331" lon="0.10663">
        <ele>2091</ele>
        <time>2015-10-11T09:48:52Z</time>
      </trkpt>
      <trkpt lat="42.68336" lon="0.10669">
        <ele>2092.9</ele>
        <time>2015-10-11T09:49:01Z</time>
      </trkpt>
      <trkpt lat="42.68338" lon="0.10673">
        <ele>2093.9</ele>
        <time>2015-10-11T09:49:07Z</time>
      </trkpt>
      <trkpt lat="42.6834" lon="0.10677">
        <ele>2095.8</ele>
        <time>2015-10-11T09:49:14Z</time>
      </trkpt>
      <trkpt lat="42.68341" lon="0.10673">
        <ele>2096.3</ele>
        <time>2015-10-11T09:49:20Z</time>
      </trkpt>
      <trkpt lat="42.68344" lon="0.10672">
        <ele>2097.7</ele>
        <time>2015-10-11T09:49:26Z</time>
      </trkpt>
      <trkpt lat="42.6835" lon="0.10673">
        <ele>2099.7</ele>
        <time>2015-10-11T09:49:34Z</time>
      </trkpt>
      <trkpt lat="42.68354" lon="0.1067">
        <ele>2100.6</ele>
        <time>2015-10-11T09:49:40Z</time>
      </trkpt>
      <trkpt lat="42.68355" lon="0.10668">
        <ele>2100.6</ele>
        <time>2015-10-11T09:49:46Z</time>
      </trkpt>
      <trkpt lat="42.68354" lon="0.10668">
        <ele>2101.1</ele>
        <time>2015-10-11T09:49:59Z</time>
      </trkpt>
      <trkpt lat="42.68354" lon="0.10669">
        <ele>2101.1</ele>
        <time>2015-10-11T09:50:14Z</time>
      </trkpt>
      <trkpt lat="42.68353" lon="0.10665">
        <ele>2101.1</ele>
        <time>2015-10-11T09:50:32Z</time>
      </trkpt>
      <trkpt lat="42.68355" lon="0.10667">
        <ele>2101.1</ele>
        <time>2015-10-11T09:50:46Z</time>
      </trkpt>
      <trkpt lat="42.68356" lon="0.10671">
        <ele>2101.6</ele>
        <time>2015-10-11T09:51:05Z</time>
      </trkpt>
      <trkpt lat="42.68353" lon="0.10669">
        <ele>2101.6</ele>
        <time>2015-10-11T09:51:23Z</time>
      </trkpt>
      <trkpt lat="42.68353" lon="0.10669">
        <ele>2101.6</ele>
        <time>2015-10-11T09:51:39Z</time>
      </trkpt>
      <trkpt lat="42.68355" lon="0.10669">
        <ele>2101.6</ele>
        <time>2015-10-11T09:51:57Z</time>
      </trkpt>
      <trkpt lat="42.68351" lon="0.10663">
        <ele>2101.6</ele>
        <time>2015-10-11T09:52:18Z</time>
      </trkpt>
      <trkpt lat="42.6835" lon="0.10665">
        <ele>2101.6</ele>
        <time>2015-10-11T09:52:32Z</time>
      </trkpt>
      <trkpt lat="42.68353" lon="0.10667">
        <ele>2102.1</ele>
        <time>2015-10-11T09:52:45Z</time>
      </trkpt>
      <trkpt lat="42.68353" lon="0.10669">
        <ele>2102.1</ele>
        <time>2015-10-11T09:53:04Z</time>
      </trkpt>
      <trkpt lat="42.68354" lon="0.10672">
        <ele>2102.5</ele>
        <time>2015-10-11T09:53:20Z</time>
      </trkpt>
      <trkpt lat="42.68355" lon="0.10669">
        <ele>2102.5</ele>
        <time>2015-10-11T09:53:41Z</time>
      </trkpt>
      <trkpt lat="42.68355" lon="0.10667">
        <ele>2102.5</ele>
        <time>2015-10-11T09:54:00Z</time>
      </trkpt>
      <trkpt lat="42.68355" lon="0.1067">
        <ele>2102.5</ele>
        <time>2015-10-11T09:54:18Z</time>
      </trkpt>
      <trkpt lat="42.68354" lon="0.10667">
        <ele>2102.5</ele>
        <time>2015-10-11T09:54:38Z</time>
      </trkpt>
      <trkpt lat="42.68354" lon="0.10671">
        <ele>2103</ele>
        <time>2015-10-11T09:55:01Z</time>
      </trkpt>
      <trkpt lat="42.68356" lon="0.10668">
        <ele>2103</ele>
        <time>2015-10-11T09:55:23Z</time>
      </trkpt>
      <trkpt lat="42.68354" lon="0.10669">
        <ele>2103</ele>
        <time>2015-10-11T09:55:46Z</time>
      </trkpt>
      <trkpt lat="42.68354" lon="0.1067">
        <ele>2103</ele>
        <time>2015-10-11T09:56:03Z</time>
      </trkpt>
      <trkpt lat="42.68353" lon="0.10668">
        <ele>2103.5</ele>
        <time>2015-10-11T09:56:25Z</time>
      </trkpt>
      <trkpt lat="42.68355" lon="0.10672">
        <ele>2103.5</ele>
        <time>2015-10-11T09:56:52Z</time>
      </trkpt>
      <trkpt lat="42.68355" lon="0.10671">
        <ele>2103.5</ele>
        <time>2015-10-11T09:57:15Z</time>
      </trkpt>
      <trkpt lat="42.68355" lon="0.1067">
        <ele>2103.5</ele>
        <time>2015-10-11T09:57:43Z</time>
      </trkpt>
      <trkpt lat="42.68355" lon="0.1067">
        <ele>2104</ele>
        <time>2015-10-11T09:58:02Z</time>
      </trkpt>
      <trkpt lat="42.68355" lon="0.10672">
        <ele>2104</ele>
        <time>2015-10-11T09:58:22Z</time>
      </trkpt>
      <trkpt lat="42.68355" lon="0.10671">
        <ele>2104</ele>
        <time>2015-10-11T09:58:40Z</time>
      </trkpt>
      <trkpt lat="42.68355" lon="0.10673">
        <ele>2104</ele>
        <time>2015-10-11T09:59:01Z</time>
      </trkpt>
      <trkpt lat="42.68354" lon="0.10669">
        <ele>2104</ele>
        <time>2015-10-11T09:59:22Z</time>
      </trkpt>
      <trkpt lat="42.68353" lon="0.10667">
        <ele>2104</ele>
        <time>2015-10-11T09:59:39Z</time>
      </trkpt>
      <trkpt lat="42.68354" lon="0.10667">
        <ele>2104</ele>
        <time>2015-10-11T10:00:02Z</time>
      </trkpt>
      <trkpt lat="42.68354" lon="0.10667">
        <ele>2104</ele>
        <time>2015-10-11T10:00:15Z</time>
      </trkpt>
      <trkpt lat="42.68354" lon="0.1067">
        <ele>2104</ele>
        <time>2015-10-11T10:00:27Z</time>
      </trkpt>
      <trkpt lat="42.68355" lon="0.1067">
        <ele>2104</ele>
        <time>2015-10-11T10:00:45Z</time>
      </trkpt>
      <trkpt lat="42.68354" lon="0.1067">
        <ele>2104.5</ele>
        <time>2015-10-11T10:01:12Z</time>
      </trkpt>
      <trkpt lat="42.68355" lon="0.10668">
        <ele>2104.5</ele>
        <time>2015-10-11T10:01:32Z</time>
      </trkpt>
      <trkpt lat="42.68356" lon="0.10671">
        <ele>2104.5</ele>
        <time>2015-10-11T10:01:52Z</time>
      </trkpt>
      <trkpt lat="42.68355" lon="0.1067">
        <ele>2104.5</ele>
        <time>2015-10-11T10:01:58Z</time>
      </trkpt>
      <trkpt lat="42.68354" lon="0.10673">
        <ele>2104.5</ele>
        <time>2015-10-11T10:02:03Z</time>
      </trkpt>
      <trkpt lat="42.68354" lon="0.10675">
        <ele>2104.5</ele>
        <time>2015-10-11T10:02:11Z</time>
      </trkpt>
      <trkpt lat="42.68355" lon="0.10674">
        <ele>2104.5</ele>
        <time>2015-10-11T10:02:27Z</time>
      </trkpt>
      <trkpt lat="42.68355" lon="0.10677">
        <ele>2104.5</ele>
        <time>2015-10-11T10:02:42Z</time>
      </trkpt>
      <trkpt lat="42.68357" lon="0.10687">
        <ele>2105.4</ele>
        <time>2015-10-11T10:02:51Z</time>
      </trkpt>
      <trkpt lat="42.68356" lon="0.10689">
        <ele>2105.4</ele>
        <time>2015-10-11T10:02:57Z</time>
      </trkpt>
      <trkpt lat="42.6835" lon="0.10705">
        <ele>2104.5</ele>
        <time>2015-10-11T10:03:05Z</time>
      </trkpt>
      <trkpt lat="42.68341" lon="0.10718">
        <ele>2104.5</ele>
        <time>2015-10-11T10:03:12Z</time>
      </trkpt>
      <trkpt lat="42.68333" lon="0.10727">
        <ele>2104.5</ele>
        <time>2015-10-11T10:03:19Z</time>
      </trkpt>
      <trkpt lat="42.68329" lon="0.10731">
        <ele>2105.4</ele>
        <time>2015-10-11T10:03:22Z</time>
      </trkpt>
      <trkpt lat="42.68317" lon="0.10743">
        <ele>2105.4</ele>
        <time>2015-10-11T10:03:31Z</time>
      </trkpt>
      <trkpt lat="42.68314" lon="0.1075">
        <ele>2104.5</ele>
        <time>2015-10-11T10:03:34Z</time>
      </trkpt>
      <trkpt lat="42.68303" lon="0.1077">
        <ele>2102.5</ele>
        <time>2015-10-11T10:03:42Z</time>
      </trkpt>
      <trkpt lat="42.6829" lon="0.10788">
        <ele>2100.6</ele>
        <time>2015-10-11T10:03:49Z</time>
      </trkpt>
      <trkpt lat="42.68281" lon="0.10803">
        <ele>2101.1</ele>
        <time>2015-10-11T10:03:56Z</time>
      </trkpt>
      <trkpt lat="42.68266" lon="0.10814">
        <ele>2101.1</ele>
        <time>2015-10-11T10:04:04Z</time>
      </trkpt>
      <trkpt lat="42.68255" lon="0.10825">
        <ele>2100.1</ele>
        <time>2015-10-11T10:04:11Z</time>
      </trkpt>
      <trkpt lat="42.68241" lon="0.10834">
        <ele>2100.1</ele>
        <time>2015-10-11T10:04:17Z</time>
      </trkpt>
      <trkpt lat="42.68222" lon="0.10846">
        <ele>2100.1</ele>
        <time>2015-10-11T10:04:24Z</time>
      </trkpt>
      <trkpt lat="42.68205" lon="0.1086">
        <ele>2100.1</ele>
        <time>2015-10-11T10:04:31Z</time>
      </trkpt>
      <trkpt lat="42.68187" lon="0.1089">
        <ele>2100.1</ele>
        <time>2015-10-11T10:04:40Z</time>
      </trkpt>
      <trkpt lat="42.68172" lon="0.10906">
        <ele>2100.1</ele>
        <time>2015-10-11T10:04:47Z</time>
      </trkpt>
      <trkpt lat="42.68159" lon="0.109">
        <ele>2100.1</ele>
        <time>2015-10-11T10:04:52Z</time>
      </trkpt>
      <trkpt lat="42.68147" lon="0.10888">
        <ele>2101.6</ele>
        <time>2015-10-11T10:04:58Z</time>
      </trkpt>
      <trkpt lat="42.68134" lon="0.10881">
        <ele>2103.5</ele>
        <time>2015-10-11T10:05:05Z</time>
      </trkpt>
      <trkpt lat="42.68123" lon="0.10889">
        <ele>2104</ele>
        <time>2015-10-11T10:05:11Z</time>
      </trkpt>
      <trkpt lat="42.68109" lon="0.10907">
        <ele>2104</ele>
        <time>2015-10-11T10:05:18Z</time>
      </trkpt>
      <trkpt lat="42.68092" lon="0.1092">
        <ele>2104</ele>
        <time>2015-10-11T10:05:25Z</time>
      </trkpt>
      <trkpt lat="42.6808" lon="0.10932">
        <ele>2104</ele>
        <time>2015-10-11T10:05:32Z</time>
      </trkpt>
      <trkpt lat="42.68066" lon="0.1095">
        <ele>2101.1</ele>
        <time>2015-10-11T10:05:39Z</time>
      </trkpt>
      <trkpt lat="42.68054" lon="0.10966">
        <ele>2099.2</ele>
        <time>2015-10-11T10:05:43Z</time>
      </trkpt>
      <trkpt lat="42.68042" lon="0.1099">
        <ele>2096.8</ele>
        <time>2015-10-11T10:05:47Z</time>
      </trkpt>
      <trkpt lat="42.68035" lon="0.11006">
        <ele>2094.9</ele>
        <time>2015-10-11T10:05:50Z</time>
      </trkpt>
      <trkpt lat="42.68016" lon="0.11034">
        <ele>2092.9</ele>
        <time>2015-10-11T10:05:58Z</time>
      </trkpt>
      <trkpt lat="42.68007" lon="0.11049">
        <ele>2092</ele>
        <time>2015-10-11T10:06:02Z</time>
      </trkpt>
      <trkpt lat="42.67994" lon="0.11077">
        <ele>2090</ele>
        <time>2015-10-11T10:06:09Z</time>
      </trkpt>
      <trkpt lat="42.67979" lon="0.11104">
        <ele>2089.1</ele>
        <time>2015-10-11T10:06:15Z</time>
      </trkpt>
      <trkpt lat="42.67973" lon="0.11116">
        <ele>2087.6</ele>
        <time>2015-10-11T10:06:17Z</time>
      </trkpt>
      <trkpt lat="42.67961" lon="0.11134">
        <ele>2086.7</ele>
        <time>2015-10-11T10:06:20Z</time>
      </trkpt>
      <trkpt lat="42.67956" lon="0.1114">
        <ele>2085.7</ele>
        <time>2015-10-11T10:06:21Z</time>
      </trkpt>
      <trkpt lat="42.67946" lon="0.11152">
        <ele>2084.3</ele>
        <time>2015-10-11T10:06:23Z</time>
      </trkpt>
      <trkpt lat="42.67936" lon="0.11163">
        <ele>2083.3</ele>
        <time>2015-10-11T10:06:25Z</time>
      </trkpt>
      <trkpt lat="42.67931" lon="0.11168">
        <ele>2083.8</ele>
        <time>2015-10-11T10:06:26Z</time>
      </trkpt>
      <trkpt lat="42.67909" lon="0.112">
        <ele>2083.8</ele>
        <time>2015-10-11T10:06:34Z</time>
      </trkpt>
      <trkpt lat="42.67891" lon="0.11235">
        <ele>2082.4</ele>
        <time>2015-10-11T10:06:42Z</time>
      </trkpt>
      <trkpt lat="42.67868" lon="0.11281">
        <ele>2080.4</ele>
        <time>2015-10-11T10:06:51Z</time>
      </trkpt>
      <trkpt lat="42.67848" lon="0.11309">
        <ele>2078.5</ele>
        <time>2015-10-11T10:06:57Z</time>
      </trkpt>
      <trkpt lat="42.6784" lon="0.11317">
        <ele>2077.6</ele>
        <time>2015-10-11T10:06:59Z</time>
      </trkpt>
      <trkpt lat="42.67817" lon="0.11349">
        <ele>2076.6</ele>
        <time>2015-10-11T10:07:06Z</time>
      </trkpt>
      <trkpt lat="42.67802" lon="0.11374">
        <ele>2076.6</ele>
        <time>2015-10-11T10:07:13Z</time>
      </trkpt>
      <trkpt lat="42.67789" lon="0.11397">
        <ele>2077.1</ele>
        <time>2015-10-11T10:07:21Z</time>
      </trkpt>
      <trkpt lat="42.67776" lon="0.1142">
        <ele>2078</ele>
        <time>2015-10-11T10:07:29Z</time>
      </trkpt>
      <trkpt lat="42.67766" lon="0.1145">
        <ele>2078</ele>
        <time>2015-10-11T10:07:39Z</time>
      </trkpt>
      <trkpt lat="42.6776" lon="0.11475">
        <ele>2079</ele>
        <time>2015-10-11T10:07:47Z</time>
      </trkpt>
      <trkpt lat="42.67749" lon="0.11507">
        <ele>2079</ele>
        <time>2015-10-11T10:07:55Z</time>
      </trkpt>
      <trkpt lat="42.67734" lon="0.11535">
        <ele>2079</ele>
        <time>2015-10-11T10:08:04Z</time>
      </trkpt>
      <trkpt lat="42.67721" lon="0.11567">
        <ele>2080.4</ele>
        <time>2015-10-11T10:08:15Z</time>
      </trkpt>
      <trkpt lat="42.6771" lon="0.11596">
        <ele>2080.9</ele>
        <time>2015-10-11T10:08:24Z</time>
      </trkpt>
      <trkpt lat="42.677" lon="0.11622">
        <ele>2080.9</ele>
        <time>2015-10-11T10:08:32Z</time>
      </trkpt>
      <trkpt lat="42.67691" lon="0.11639">
        <ele>2080.9</ele>
        <time>2015-10-11T10:08:36Z</time>
      </trkpt>
      <trkpt lat="42.67686" lon="0.11648">
        <ele>2079.5</ele>
        <time>2015-10-11T10:08:38Z</time>
      </trkpt>
      <trkpt lat="42.6768" lon="0.11657">
        <ele>2079</ele>
        <time>2015-10-11T10:08:40Z</time>
      </trkpt>
      <trkpt lat="42.6767" lon="0.11685">
        <ele>2078.5</ele>
        <time>2015-10-11T10:08:46Z</time>
      </trkpt>
      <trkpt lat="42.67662" lon="0.11696">
        <ele>2078</ele>
        <time>2015-10-11T10:08:49Z</time>
      </trkpt>
      <trkpt lat="42.67652" lon="0.11711">
        <ele>2076.6</ele>
        <time>2015-10-11T10:08:53Z</time>
      </trkpt>
      <trkpt lat="42.67645" lon="0.11725">
        <ele>2076.1</ele>
        <time>2015-10-11T10:08:56Z</time>
      </trkpt>
      <trkpt lat="42.67641" lon="0.11734">
        <ele>2075.6</ele>
        <time>2015-10-11T10:08:58Z</time>
      </trkpt>
      <trkpt lat="42.67628" lon="0.11752">
        <ele>2074.7</ele>
        <time>2015-10-11T10:09:02Z</time>
      </trkpt>
      <trkpt lat="42.67597" lon="0.11794">
        <ele>2071.8</ele>
        <time>2015-10-11T10:09:10Z</time>
      </trkpt>
      <trkpt lat="42.67582" lon="0.11824">
        <ele>2069.9</ele>
        <time>2015-10-11T10:09:15Z</time>
      </trkpt>
      <trkpt lat="42.67571" lon="0.11847">
        <ele>2069.4</ele>
        <time>2015-10-11T10:09:19Z</time>
      </trkpt>
      <trkpt lat="42.67563" lon="0.11892">
        <ele>2068.4</ele>
        <time>2015-10-11T10:09:28Z</time>
      </trkpt>
      <trkpt lat="42.67559" lon="0.11925">
        <ele>2067.9</ele>
        <time>2015-10-11T10:09:37Z</time>
      </trkpt>
      <trkpt lat="42.67556" lon="0.11951">
        <ele>2067.4</ele>
        <time>2015-10-11T10:09:45Z</time>
      </trkpt>
      <trkpt lat="42.67553" lon="0.11971">
        <ele>2067</ele>
        <time>2015-10-11T10:09:53Z</time>
      </trkpt>
      <trkpt lat="42.67553" lon="0.11971">
        <ele>2067</ele>
        <time>2015-10-11T10:10:02Z</time>
      </trkpt>
      <trkpt lat="42.67553" lon="0.11971">
        <ele>2066.5</ele>
        <time>2015-10-11T10:10:10Z</time>
      </trkpt>
      <trkpt lat="42.67553" lon="0.11971">
        <ele>2066.5</ele>
        <time>2015-10-11T10:10:18Z</time>
      </trkpt>
      <trkpt lat="42.67553" lon="0.11972">
        <ele>2066.5</ele>
        <time>2015-10-11T10:10:30Z</time>
      </trkpt>
      <trkpt lat="42.67553" lon="0.11976">
        <ele>2066.5</ele>
        <time>2015-10-11T10:10:38Z</time>
      </trkpt>
      <trkpt lat="42.67556" lon="0.11982">
        <ele>2068.4</ele>
        <time>2015-10-11T10:10:46Z</time>
      </trkpt>
      <trkpt lat="42.67557" lon="0.11988">
        <ele>2069.4</ele>
        <time>2015-10-11T10:10:54Z</time>
      </trkpt>
      <trkpt lat="42.67557" lon="0.11995">
        <ele>2070.8</ele>
        <time>2015-10-11T10:11:03Z</time>
      </trkpt>
      <trkpt lat="42.67557" lon="0.11997">
        <ele>2071.3</ele>
        <time>2015-10-11T10:11:09Z</time>
      </trkpt>
      <trkpt lat="42.67556" lon="0.12008">
        <ele>2072.7</ele>
        <time>2015-10-11T10:11:18Z</time>
      </trkpt>
      <trkpt lat="42.67554" lon="0.12015">
        <ele>2075.1</ele>
        <time>2015-10-11T10:11:26Z</time>
      </trkpt>
      <trkpt lat="42.67555" lon="0.12021">
        <ele>2076.6</ele>
        <time>2015-10-11T10:11:34Z</time>
      </trkpt>
      <trkpt lat="42.67554" lon="0.12026">
        <ele>2077.6</ele>
        <time>2015-10-11T10:11:40Z</time>
      </trkpt>
      <trkpt lat="42.67553" lon="0.12034">
        <ele>2078</ele>
        <time>2015-10-11T10:11:48Z</time>
      </trkpt>
      <trkpt lat="42.67553" lon="0.12038">
        <ele>2079</ele>
        <time>2015-10-11T10:11:54Z</time>
      </trkpt>
      <trkpt lat="42.67552" lon="0.12044">
        <ele>2079.9</ele>
        <time>2015-10-11T10:12:00Z</time>
      </trkpt>
      <trkpt lat="42.6755" lon="0.1205">
        <ele>2080.9</ele>
        <time>2015-10-11T10:12:06Z</time>
      </trkpt>
      <trkpt lat="42.67549" lon="0.12058">
        <ele>2082.4</ele>
        <time>2015-10-11T10:12:14Z</time>
      </trkpt>
      <trkpt lat="42.67549" lon="0.12065">
        <ele>2083.8</ele>
        <time>2015-10-11T10:12:22Z</time>
      </trkpt>
      <trkpt lat="42.6755" lon="0.1207">
        <ele>2084.3</ele>
        <time>2015-10-11T10:12:28Z</time>
      </trkpt>
      <trkpt lat="42.6755" lon="0.12073">
        <ele>2085.2</ele>
        <time>2015-10-11T10:12:34Z</time>
      </trkpt>
      <trkpt lat="42.6755" lon="0.1208">
        <ele>2086.7</ele>
        <time>2015-10-11T10:12:43Z</time>
      </trkpt>
      <trkpt lat="42.6755" lon="0.12084">
        <ele>2088.1</ele>
        <time>2015-10-11T10:12:49Z</time>
      </trkpt>
      <trkpt lat="42.67551" lon="0.12089">
        <ele>2090</ele>
        <time>2015-10-11T10:12:57Z</time>
      </trkpt>
      <trkpt lat="42.6755" lon="0.12098">
        <ele>2091</ele>
        <time>2015-10-11T10:13:06Z</time>
      </trkpt>
      <trkpt lat="42.67549" lon="0.12105">
        <ele>2092.9</ele>
        <time>2015-10-11T10:13:14Z</time>
      </trkpt>
      <trkpt lat="42.67549" lon="0.12111">
        <ele>2094.4</ele>
        <time>2015-10-11T10:13:22Z</time>
      </trkpt>
      <trkpt lat="42.67546" lon="0.1212">
        <ele>2095.8</ele>
        <time>2015-10-11T10:13:31Z</time>
      </trkpt>
      <trkpt lat="42.67544" lon="0.12127">
        <ele>2096.8</ele>
        <time>2015-10-11T10:13:41Z</time>
      </trkpt>
      <trkpt lat="42.67543" lon="0.12133">
        <ele>2098.7</ele>
        <time>2015-10-11T10:13:50Z</time>
      </trkpt>
      <trkpt lat="42.67542" lon="0.12139">
        <ele>2099.2</ele>
        <time>2015-10-11T10:13:56Z</time>
      </trkpt>
      <trkpt lat="42.67542" lon="0.12143">
        <ele>2100.1</ele>
        <time>2015-10-11T10:14:03Z</time>
      </trkpt>
      <trkpt lat="42.67541" lon="0.12146">
        <ele>2101.1</ele>
        <time>2015-10-11T10:14:09Z</time>
      </trkpt>
      <trkpt lat="42.67541" lon="0.1215">
        <ele>2102.1</ele>
        <time>2015-10-11T10:14:16Z</time>
      </trkpt>
      <trkpt lat="42.67541" lon="0.12154">
        <ele>2103.5</ele>
        <time>2015-10-11T10:14:22Z</time>
      </trkpt>
      <trkpt lat="42.67541" lon="0.12159">
        <ele>2104.5</ele>
        <time>2015-10-11T10:14:29Z</time>
      </trkpt>
      <trkpt lat="42.67541" lon="0.12166">
        <ele>2105.9</ele>
        <time>2015-10-11T10:14:38Z</time>
      </trkpt>
      <trkpt lat="42.6754" lon="0.12173">
        <ele>2106.9</ele>
        <time>2015-10-11T10:14:44Z</time>
      </trkpt>
      <trkpt lat="42.6754" lon="0.12179">
        <ele>2107.8</ele>
        <time>2015-10-11T10:14:51Z</time>
      </trkpt>
      <trkpt lat="42.67539" lon="0.12184">
        <ele>2108.8</ele>
        <time>2015-10-11T10:14:57Z</time>
      </trkpt>
      <trkpt lat="42.67537" lon="0.12191">
        <ele>2110.2</ele>
        <time>2015-10-11T10:15:06Z</time>
      </trkpt>
      <trkpt lat="42.67537" lon="0.12198">
        <ele>2111.2</ele>
        <time>2015-10-11T10:15:14Z</time>
      </trkpt>
      <trkpt lat="42.67537" lon="0.12206">
        <ele>2112.6</ele>
        <time>2015-10-11T10:15:23Z</time>
      </trkpt>
      <trkpt lat="42.67537" lon="0.12211">
        <ele>2113.6</ele>
        <time>2015-10-11T10:15:31Z</time>
      </trkpt>
      <trkpt lat="42.67537" lon="0.1222">
        <ele>2115</ele>
        <time>2015-10-11T10:15:41Z</time>
      </trkpt>
      <trkpt lat="42.67539" lon="0.12224">
        <ele>2116.5</ele>
        <time>2015-10-11T10:15:48Z</time>
      </trkpt>
      <trkpt lat="42.67541" lon="0.12229">
        <ele>2117.4</ele>
        <time>2015-10-11T10:15:56Z</time>
      </trkpt>
      <trkpt lat="42.67542" lon="0.12235">
        <ele>2118.9</ele>
        <time>2015-10-11T10:16:04Z</time>
      </trkpt>
      <trkpt lat="42.67542" lon="0.12239">
        <ele>2119.8</ele>
        <time>2015-10-11T10:16:09Z</time>
      </trkpt>
      <trkpt lat="42.67542" lon="0.12243">
        <ele>2120.8</ele>
        <time>2015-10-11T10:16:17Z</time>
      </trkpt>
      <trkpt lat="42.67543" lon="0.12248">
        <ele>2122.2</ele>
        <time>2015-10-11T10:16:24Z</time>
      </trkpt>
      <trkpt lat="42.67543" lon="0.12253">
        <ele>2123.7</ele>
        <time>2015-10-11T10:16:31Z</time>
      </trkpt>
      <trkpt lat="42.67544" lon="0.12257">
        <ele>2124.6</ele>
        <time>2015-10-11T10:16:37Z</time>
      </trkpt>
      <trkpt lat="42.67544" lon="0.12262">
        <ele>2125.1</ele>
        <time>2015-10-11T10:16:44Z</time>
      </trkpt>
      <trkpt lat="42.67546" lon="0.12268">
        <ele>2127.1</ele>
        <time>2015-10-11T10:16:52Z</time>
      </trkpt>
      <trkpt lat="42.67547" lon="0.12272">
        <ele>2128</ele>
        <time>2015-10-11T10:17:00Z</time>
      </trkpt>
      <trkpt lat="42.67549" lon="0.12275">
        <ele>2129</ele>
        <time>2015-10-11T10:17:06Z</time>
      </trkpt>
      <trkpt lat="42.6755" lon="0.12278">
        <ele>2130.4</ele>
        <time>2015-10-11T10:17:12Z</time>
      </trkpt>
      <trkpt lat="42.67551" lon="0.1228">
        <ele>2130.9</ele>
        <time>2015-10-11T10:17:20Z</time>
      </trkpt>
      <trkpt lat="42.67551" lon="0.12284">
        <ele>2131.9</ele>
        <time>2015-10-11T10:17:29Z</time>
      </trkpt>
      <trkpt lat="42.67552" lon="0.1229">
        <ele>2133.3</ele>
        <time>2015-10-11T10:17:38Z</time>
      </trkpt>
      <trkpt lat="42.67553" lon="0.12296">
        <ele>2134.3</ele>
        <time>2015-10-11T10:17:45Z</time>
      </trkpt>
      <trkpt lat="42.67554" lon="0.12301">
        <ele>2136.7</ele>
        <time>2015-10-11T10:17:53Z</time>
      </trkpt>
      <trkpt lat="42.67555" lon="0.12305">
        <ele>2137.1</ele>
        <time>2015-10-11T10:18:00Z</time>
      </trkpt>
      <trkpt lat="42.67558" lon="0.12308">
        <ele>2138.6</ele>
        <time>2015-10-11T10:18:06Z</time>
      </trkpt>
      <trkpt lat="42.6756" lon="0.12308">
        <ele>2140</ele>
        <time>2015-10-11T10:18:15Z</time>
      </trkpt>
      <trkpt lat="42.6756" lon="0.12305">
        <ele>2140.5</ele>
        <time>2015-10-11T10:18:20Z</time>
      </trkpt>
      <trkpt lat="42.67563" lon="0.12303">
        <ele>2141.5</ele>
        <time>2015-10-11T10:18:27Z</time>
      </trkpt>
      <trkpt lat="42.67566" lon="0.12305">
        <ele>2142.4</ele>
        <time>2015-10-11T10:18:34Z</time>
      </trkpt>
      <trkpt lat="42.67569" lon="0.12309">
        <ele>2143.9</ele>
        <time>2015-10-11T10:18:42Z</time>
      </trkpt>
      <trkpt lat="42.67569" lon="0.12316">
        <ele>2145.3</ele>
        <time>2015-10-11T10:18:51Z</time>
      </trkpt>
      <trkpt lat="42.67569" lon="0.12322">
        <ele>2146.3</ele>
        <time>2015-10-11T10:18:59Z</time>
      </trkpt>
      <trkpt lat="42.67572" lon="0.12323">
        <ele>2147.7</ele>
        <time>2015-10-11T10:19:06Z</time>
      </trkpt>
      <trkpt lat="42.67574" lon="0.12325">
        <ele>2149.2</ele>
        <time>2015-10-11T10:19:12Z</time>
      </trkpt>
      <trkpt lat="42.67577" lon="0.12329">
        <ele>2150.6</ele>
        <time>2015-10-11T10:19:20Z</time>
      </trkpt>
      <trkpt lat="42.67578" lon="0.12334">
        <ele>2152.1</ele>
        <time>2015-10-11T10:19:27Z</time>
      </trkpt>
      <trkpt lat="42.6758" lon="0.12336">
        <ele>2153</ele>
        <time>2015-10-11T10:19:35Z</time>
      </trkpt>
      <trkpt lat="42.67582" lon="0.12342">
        <ele>2154.4</ele>
        <time>2015-10-11T10:19:43Z</time>
      </trkpt>
      <trkpt lat="42.67584" lon="0.12345">
        <ele>2155.4</ele>
        <time>2015-10-11T10:19:51Z</time>
      </trkpt>
      <trkpt lat="42.67585" lon="0.12348">
        <ele>2155.4</ele>
        <time>2015-10-11T10:19:58Z</time>
      </trkpt>
      <trkpt lat="42.67584" lon="0.12347">
        <ele>2155.4</ele>
        <time>2015-10-11T10:20:12Z</time>
      </trkpt>
      <trkpt lat="42.67584" lon="0.12346">
        <ele>2155.4</ele>
        <time>2015-10-11T10:20:28Z</time>
      </trkpt>
      <trkpt lat="42.67583" lon="0.12352">
        <ele>2155.9</ele>
        <time>2015-10-11T10:20:35Z</time>
      </trkpt>
      <trkpt lat="42.67581" lon="0.12354">
        <ele>2156.4</ele>
        <time>2015-10-11T10:20:38Z</time>
      </trkpt>
      <trkpt lat="42.67577" lon="0.1236">
        <ele>2157.3</ele>
        <time>2015-10-11T10:20:46Z</time>
      </trkpt>
      <trkpt lat="42.67575" lon="0.12365">
        <ele>2157.3</ele>
        <time>2015-10-11T10:20:52Z</time>
      </trkpt>
      <trkpt lat="42.67571" lon="0.12373">
        <ele>2157.3</ele>
        <time>2015-10-11T10:21:00Z</time>
      </trkpt>
      <trkpt lat="42.67567" lon="0.12386">
        <ele>2157.8</ele>
        <time>2015-10-11T10:21:12Z</time>
      </trkpt>
      <trkpt lat="42.67561" lon="0.12397">
        <ele>2158.3</ele>
        <time>2015-10-11T10:21:22Z</time>
      </trkpt>
      <trkpt lat="42.67557" lon="0.12403">
        <ele>2158.8</ele>
        <time>2015-10-11T10:21:29Z</time>
      </trkpt>
      <trkpt lat="42.67553" lon="0.12409">
        <ele>2159.7</ele>
        <time>2015-10-11T10:21:37Z</time>
      </trkpt>
      <trkpt lat="42.67548" lon="0.12414">
        <ele>2160.7</ele>
        <time>2015-10-11T10:21:46Z</time>
      </trkpt>
      <trkpt lat="42.67544" lon="0.12423">
        <ele>2161.7</ele>
        <time>2015-10-11T10:21:55Z</time>
      </trkpt>
      <trkpt lat="42.67542" lon="0.12432">
        <ele>2162.6</ele>
        <time>2015-10-11T10:22:05Z</time>
      </trkpt>
      <trkpt lat="42.67539" lon="0.12443">
        <ele>2165</ele>
        <time>2015-10-11T10:22:17Z</time>
      </trkpt>
      <trkpt lat="42.67537" lon="0.1245">
        <ele>2165.5</ele>
        <time>2015-10-11T10:22:26Z</time>
      </trkpt>
      <trkpt lat="42.67535" lon="0.12456">
        <ele>2166.5</ele>
        <time>2015-10-11T10:22:33Z</time>
      </trkpt>
      <trkpt lat="42.67534" lon="0.12463">
        <ele>2168.4</ele>
        <time>2015-10-11T10:22:41Z</time>
      </trkpt>
      <trkpt lat="42.67533" lon="0.12464">
        <ele>2168.9</ele>
        <time>2015-10-11T10:22:50Z</time>
      </trkpt>
      <trkpt lat="42.67534" lon="0.12463">
        <ele>2168.9</ele>
        <time>2015-10-11T10:23:08Z</time>
      </trkpt>
      <trkpt lat="42.67534" lon="0.12463">
        <ele>2168.9</ele>
        <time>2015-10-11T10:23:27Z</time>
      </trkpt>
      <trkpt lat="42.67533" lon="0.12461">
        <ele>2168.9</ele>
        <time>2015-10-11T10:23:52Z</time>
      </trkpt>
      <trkpt lat="42.67534" lon="0.12462">
        <ele>2168.9</ele>
        <time>2015-10-11T10:24:07Z</time>
      </trkpt>
      <trkpt lat="42.67535" lon="0.12462">
        <ele>2168.9</ele>
        <time>2015-10-11T10:24:27Z</time>
      </trkpt>
      <trkpt lat="42.67534" lon="0.12463">
        <ele>2168.9</ele>
        <time>2015-10-11T10:24:37Z</time>
      </trkpt>
      <trkpt lat="42.67534" lon="0.12463">
        <ele>2168.9</ele>
        <time>2015-10-11T10:24:52Z</time>
      </trkpt>
      <trkpt lat="42.67533" lon="0.12463">
        <ele>2168.9</ele>
        <time>2015-10-11T10:24:57Z</time>
      </trkpt>
      <trkpt lat="42.6753" lon="0.12465">
        <ele>2168.9</ele>
        <time>2015-10-11T10:25:01Z</time>
      </trkpt>
      <trkpt lat="42.67521" lon="0.12468">
        <ele>2169.4</ele>
        <time>2015-10-11T10:25:09Z</time>
      </trkpt>
      <trkpt lat="42.6752" lon="0.12469">
        <ele>2169.8</ele>
        <time>2015-10-11T10:25:11Z</time>
      </trkpt>
      <trkpt lat="42.67513" lon="0.12476">
        <ele>2171.8</ele>
        <time>2015-10-11T10:25:20Z</time>
      </trkpt>
      <trkpt lat="42.67507" lon="0.1248">
        <ele>2173.2</ele>
        <time>2015-10-11T10:25:28Z</time>
      </trkpt>
      <trkpt lat="42.67505" lon="0.12482">
        <ele>2173.2</ele>
        <time>2015-10-11T10:25:32Z</time>
      </trkpt>
      <trkpt lat="42.67503" lon="0.12486">
        <ele>2173.2</ele>
        <time>2015-10-11T10:25:35Z</time>
      </trkpt>
      <trkpt lat="42.67498" lon="0.12493">
        <ele>2174.2</ele>
        <time>2015-10-11T10:25:43Z</time>
      </trkpt>
      <trkpt lat="42.67494" lon="0.12498">
        <ele>2175.6</ele>
        <time>2015-10-11T10:25:50Z</time>
      </trkpt>
      <trkpt lat="42.67491" lon="0.12502">
        <ele>2176.1</ele>
        <time>2015-10-11T10:25:57Z</time>
      </trkpt>
      <trkpt lat="42.67489" lon="0.1251">
        <ele>2177</ele>
        <time>2015-10-11T10:26:05Z</time>
      </trkpt>
      <trkpt lat="42.6749" lon="0.12512">
        <ele>2177.5</ele>
        <time>2015-10-11T10:26:13Z</time>
      </trkpt>
      <trkpt lat="42.67492" lon="0.12514">
        <ele>2178</ele>
        <time>2015-10-11T10:26:22Z</time>
      </trkpt>
      <trkpt lat="42.67494" lon="0.12518">
        <ele>2179.4</ele>
        <time>2015-10-11T10:26:31Z</time>
      </trkpt>
      <trkpt lat="42.67496" lon="0.12523">
        <ele>2181.4</ele>
        <time>2015-10-11T10:26:39Z</time>
      </trkpt>
      <trkpt lat="42.67498" lon="0.12529">
        <ele>2183.3</ele>
        <time>2015-10-11T10:26:47Z</time>
      </trkpt>
      <trkpt lat="42.675" lon="0.12532">
        <ele>2184.2</ele>
        <time>2015-10-11T10:26:54Z</time>
      </trkpt>
      <trkpt lat="42.67501" lon="0.12537">
        <ele>2185.7</ele>
        <time>2015-10-11T10:27:04Z</time>
      </trkpt>
      <trkpt lat="42.67502" lon="0.12542">
        <ele>2187.1</ele>
        <time>2015-10-11T10:27:12Z</time>
      </trkpt>
      <trkpt lat="42.67502" lon="0.12547">
        <ele>2188.6</ele>
        <time>2015-10-11T10:27:19Z</time>
      </trkpt>
      <trkpt lat="42.67504" lon="0.12552">
        <ele>2189.5</ele>
        <time>2015-10-11T10:27:29Z</time>
      </trkpt>
      <trkpt lat="42.67504" lon="0.12557">
        <ele>2191.5</ele>
        <time>2015-10-11T10:27:38Z</time>
      </trkpt>
      <trkpt lat="42.67504" lon="0.12562">
        <ele>2192.4</ele>
        <time>2015-10-11T10:27:45Z</time>
      </trkpt>
      <trkpt lat="42.67505" lon="0.12569">
        <ele>2194.4</ele>
        <time>2015-10-11T10:27:54Z</time>
      </trkpt>
      <trkpt lat="42.67506" lon="0.12576">
        <ele>2195.3</ele>
        <time>2015-10-11T10:28:03Z</time>
      </trkpt>
      <trkpt lat="42.67505" lon="0.12584">
        <ele>2196.8</ele>
        <time>2015-10-11T10:28:12Z</time>
      </trkpt>
      <trkpt lat="42.67505" lon="0.12588">
        <ele>2197.7</ele>
        <time>2015-10-11T10:28:18Z</time>
      </trkpt>
      <trkpt lat="42.67504" lon="0.12594">
        <ele>2199.1</ele>
        <time>2015-10-11T10:28:26Z</time>
      </trkpt>
      <trkpt lat="42.67504" lon="0.12599">
        <ele>2200.6</ele>
        <time>2015-10-11T10:28:33Z</time>
      </trkpt>
      <trkpt lat="42.67505" lon="0.12602">
        <ele>2201.1</ele>
        <time>2015-10-11T10:28:41Z</time>
      </trkpt>
      <trkpt lat="42.67506" lon="0.12607">
        <ele>2201.6</ele>
        <time>2015-10-11T10:28:48Z</time>
      </trkpt>
      <trkpt lat="42.67506" lon="0.12606">
        <ele>2202</ele>
        <time>2015-10-11T10:28:56Z</time>
      </trkpt>
      <trkpt lat="42.67505" lon="0.12605">
        <ele>2202</ele>
        <time>2015-10-11T10:29:02Z</time>
      </trkpt>
      <trkpt lat="42.67505" lon="0.12607">
        <ele>2202</ele>
        <time>2015-10-11T10:29:09Z</time>
      </trkpt>
      <trkpt lat="42.67507" lon="0.12611">
        <ele>2202</ele>
        <time>2015-10-11T10:29:21Z</time>
      </trkpt>
      <trkpt lat="42.67507" lon="0.12613">
        <ele>2202</ele>
        <time>2015-10-11T10:29:23Z</time>
      </trkpt>
      <trkpt lat="42.67508" lon="0.12634">
        <ele>2203</ele>
        <time>2015-10-11T10:29:35Z</time>
      </trkpt>
      <trkpt lat="42.67511" lon="0.12647">
        <ele>2203.5</ele>
        <time>2015-10-11T10:29:44Z</time>
      </trkpt>
      <trkpt lat="42.67517" lon="0.12654">
        <ele>2203.5</ele>
        <time>2015-10-11T10:29:52Z</time>
      </trkpt>
      <trkpt lat="42.67519" lon="0.12657">
        <ele>2204</ele>
        <time>2015-10-11T10:29:55Z</time>
      </trkpt>
      <trkpt lat="42.67518" lon="0.12659">
        <ele>2204</ele>
        <time>2015-10-11T10:30:02Z</time>
      </trkpt>
      <trkpt lat="42.67518" lon="0.12658">
        <ele>2204</ele>
        <time>2015-10-11T10:30:21Z</time>
      </trkpt>
      <trkpt lat="42.67517" lon="0.12657">
        <ele>2204</ele>
        <time>2015-10-11T10:30:32Z</time>
      </trkpt>
      <trkpt lat="42.6752" lon="0.12655">
        <ele>2204</ele>
        <time>2015-10-11T10:30:45Z</time>
      </trkpt>
      <trkpt lat="42.67527" lon="0.12663">
        <ele>2204.4</ele>
        <time>2015-10-11T10:30:53Z</time>
      </trkpt>
      <trkpt lat="42.67529" lon="0.12666">
        <ele>2204.4</ele>
        <time>2015-10-11T10:30:56Z</time>
      </trkpt>
      <trkpt lat="42.67537" lon="0.12668">
        <ele>2204.4</ele>
        <time>2015-10-11T10:31:04Z</time>
      </trkpt>
      <trkpt lat="42.67545" lon="0.1267">
        <ele>2204.4</ele>
        <time>2015-10-11T10:31:12Z</time>
      </trkpt>
      <trkpt lat="42.67552" lon="0.12672">
        <ele>2205.4</ele>
        <time>2015-10-11T10:31:20Z</time>
      </trkpt>
      <trkpt lat="42.67553" lon="0.12673">
        <ele>2205.9</ele>
        <time>2015-10-11T10:31:28Z</time>
      </trkpt>
      <trkpt lat="42.67552" lon="0.12672">
        <ele>2205.9</ele>
        <time>2015-10-11T10:31:43Z</time>
      </trkpt>
      <trkpt lat="42.67555" lon="0.12673">
        <ele>2206.8</ele>
        <time>2015-10-11T10:31:51Z</time>
      </trkpt>
      <trkpt lat="42.67561" lon="0.12676">
        <ele>2207.8</ele>
        <time>2015-10-11T10:31:59Z</time>
      </trkpt>
      <trkpt lat="42.67569" lon="0.12677">
        <ele>2208.8</ele>
        <time>2015-10-11T10:32:08Z</time>
      </trkpt>
      <trkpt lat="42.6757" lon="0.12678">
        <ele>2209.2</ele>
        <time>2015-10-11T10:32:10Z</time>
      </trkpt>
      <trkpt lat="42.67577" lon="0.1268">
        <ele>2210.2</ele>
        <time>2015-10-11T10:32:18Z</time>
      </trkpt>
      <trkpt lat="42.67584" lon="0.12685">
        <ele>2211.6</ele>
        <time>2015-10-11T10:32:27Z</time>
      </trkpt>
      <trkpt lat="42.67589" lon="0.12691">
        <ele>2213.1</ele>
        <time>2015-10-11T10:32:37Z</time>
      </trkpt>
      <trkpt lat="42.67593" lon="0.12695">
        <ele>2213.1</ele>
        <time>2015-10-11T10:32:46Z</time>
      </trkpt>
      <trkpt lat="42.67593" lon="0.12697">
        <ele>2213.1</ele>
        <time>2015-10-11T10:32:53Z</time>
      </trkpt>
      <trkpt lat="42.67595" lon="0.12708">
        <ele>2213.1</ele>
        <time>2015-10-11T10:33:00Z</time>
      </trkpt>
      <trkpt lat="42.67601" lon="0.12713">
        <ele>2213.6</ele>
        <time>2015-10-11T10:33:08Z</time>
      </trkpt>
      <trkpt lat="42.67601" lon="0.12714">
        <ele>2214.5</ele>
        <time>2015-10-11T10:33:14Z</time>
      </trkpt>
      <trkpt lat="42.67605" lon="0.12713">
        <ele>2215.5</ele>
        <time>2015-10-11T10:33:22Z</time>
      </trkpt>
      <trkpt lat="42.67606" lon="0.12714">
        <ele>2216</ele>
        <time>2015-10-11T10:33:29Z</time>
      </trkpt>
      <trkpt lat="42.67611" lon="0.12714">
        <ele>2216.9</ele>
        <time>2015-10-11T10:33:38Z</time>
      </trkpt>
      <trkpt lat="42.67612" lon="0.12715">
        <ele>2217.4</ele>
        <time>2015-10-11T10:33:48Z</time>
      </trkpt>
      <trkpt lat="42.67613" lon="0.12719">
        <ele>2218.9</ele>
        <time>2015-10-11T10:33:56Z</time>
      </trkpt>
      <trkpt lat="42.6761" lon="0.12724">
        <ele>2220.3</ele>
        <time>2015-10-11T10:34:04Z</time>
      </trkpt>
      <trkpt lat="42.67609" lon="0.12727">
        <ele>2220.8</ele>
        <time>2015-10-11T10:34:10Z</time>
      </trkpt>
      <trkpt lat="42.67612" lon="0.12729">
        <ele>2222.2</ele>
        <time>2015-10-11T10:34:17Z</time>
      </trkpt>
      <trkpt lat="42.67614" lon="0.12733">
        <ele>2222.7</ele>
        <time>2015-10-11T10:34:24Z</time>
      </trkpt>
      <trkpt lat="42.67615" lon="0.12736">
        <ele>2224.1</ele>
        <time>2015-10-11T10:34:31Z</time>
      </trkpt>
      <trkpt lat="42.67614" lon="0.1274">
        <ele>2225.6</ele>
        <time>2015-10-11T10:34:39Z</time>
      </trkpt>
      <trkpt lat="42.67616" lon="0.12744">
        <ele>2228</ele>
        <time>2015-10-11T10:34:48Z</time>
      </trkpt>
      <trkpt lat="42.67616" lon="0.12749">
        <ele>2229.4</ele>
        <time>2015-10-11T10:34:56Z</time>
      </trkpt>
      <trkpt lat="42.67617" lon="0.12751">
        <ele>2231.4</ele>
        <time>2015-10-11T10:35:03Z</time>
      </trkpt>
      <trkpt lat="42.67618" lon="0.12756">
        <ele>2233.3</ele>
        <time>2015-10-11T10:35:12Z</time>
      </trkpt>
      <trkpt lat="42.67617" lon="0.1276">
        <ele>2234.2</ele>
        <time>2015-10-11T10:35:19Z</time>
      </trkpt>
      <trkpt lat="42.67619" lon="0.12761">
        <ele>2236.2</ele>
        <time>2015-10-11T10:35:28Z</time>
      </trkpt>
      <trkpt lat="42.67618" lon="0.12762">
        <ele>2236.2</ele>
        <time>2015-10-11T10:35:37Z</time>
      </trkpt>
      <trkpt lat="42.67619" lon="0.12763">
        <ele>2237.1</ele>
        <time>2015-10-11T10:35:45Z</time>
      </trkpt>
      <trkpt lat="42.67621" lon="0.12764">
        <ele>2239.1</ele>
        <time>2015-10-11T10:35:52Z</time>
      </trkpt>
      <trkpt lat="42.6762" lon="0.12767">
        <ele>2240</ele>
        <time>2015-10-11T10:36:00Z</time>
      </trkpt>
      <trkpt lat="42.67622" lon="0.12768">
        <ele>2241</ele>
        <time>2015-10-11T10:36:08Z</time>
      </trkpt>
      <trkpt lat="42.67626" lon="0.12769">
        <ele>2242.4</ele>
        <time>2015-10-11T10:36:17Z</time>
      </trkpt>
      <trkpt lat="42.67624" lon="0.12774">
        <ele>2244.3</ele>
        <time>2015-10-11T10:36:25Z</time>
      </trkpt>
      <trkpt lat="42.67624" lon="0.12775">
        <ele>2244.8</ele>
        <time>2015-10-11T10:36:31Z</time>
      </trkpt>
      <trkpt lat="42.67624" lon="0.12775">
        <ele>2244.8</ele>
        <time>2015-10-11T10:36:38Z</time>
      </trkpt>
      <trkpt lat="42.67628" lon="0.12775">
        <ele>2245.8</ele>
        <time>2015-10-11T10:36:45Z</time>
      </trkpt>
      <trkpt lat="42.67626" lon="0.12777">
        <ele>2246.3</ele>
        <time>2015-10-11T10:36:50Z</time>
      </trkpt>
      <trkpt lat="42.67624" lon="0.12779">
        <ele>2248.2</ele>
        <time>2015-10-11T10:36:57Z</time>
      </trkpt>
      <trkpt lat="42.67622" lon="0.12783">
        <ele>2248.7</ele>
        <time>2015-10-11T10:37:04Z</time>
      </trkpt>
      <trkpt lat="42.67621" lon="0.12788">
        <ele>2250.6</ele>
        <time>2015-10-11T10:37:12Z</time>
      </trkpt>
      <trkpt lat="42.6762" lon="0.12791">
        <ele>2252.5</ele>
        <time>2015-10-11T10:37:19Z</time>
      </trkpt>
      <trkpt lat="42.67619" lon="0.12794">
        <ele>2253</ele>
        <time>2015-10-11T10:37:27Z</time>
      </trkpt>
      <trkpt lat="42.67622" lon="0.12796">
        <ele>2254.9</ele>
        <time>2015-10-11T10:37:35Z</time>
      </trkpt>
      <trkpt lat="42.67625" lon="0.12797">
        <ele>2256.8</ele>
        <time>2015-10-11T10:37:43Z</time>
      </trkpt>
      <trkpt lat="42.67627" lon="0.12799">
        <ele>2258.3</ele>
        <time>2015-10-11T10:37:52Z</time>
      </trkpt>
      <trkpt lat="42.67625" lon="0.12801">
        <ele>2259.2</ele>
        <time>2015-10-11T10:38:00Z</time>
      </trkpt>
      <trkpt lat="42.67624" lon="0.12806">
        <ele>2261.2</ele>
        <time>2015-10-11T10:38:08Z</time>
      </trkpt>
      <trkpt lat="42.67624" lon="0.12808">
        <ele>2262.1</ele>
        <time>2015-10-11T10:38:14Z</time>
      </trkpt>
      <trkpt lat="42.67623" lon="0.12812">
        <ele>2263.6</ele>
        <time>2015-10-11T10:38:22Z</time>
      </trkpt>
      <trkpt lat="42.67622" lon="0.12815">
        <ele>2265.5</ele>
        <time>2015-10-11T10:38:33Z</time>
      </trkpt>
      <trkpt lat="42.67626" lon="0.12816">
        <ele>2266.9</ele>
        <time>2015-10-11T10:38:43Z</time>
      </trkpt>
      <trkpt lat="42.67626" lon="0.12817">
        <ele>2266.9</ele>
        <time>2015-10-11T10:38:51Z</time>
      </trkpt>
      <trkpt lat="42.67628" lon="0.12817">
        <ele>2266.9</ele>
        <time>2015-10-11T10:39:07Z</time>
      </trkpt>
      <trkpt lat="42.67628" lon="0.12821">
        <ele>2266.9</ele>
        <time>2015-10-11T10:39:13Z</time>
      </trkpt>
      <trkpt lat="42.67626" lon="0.12819">
        <ele>2266.9</ele>
        <time>2015-10-11T10:39:29Z</time>
      </trkpt>
      <trkpt lat="42.67625" lon="0.12818">
        <ele>2266.9</ele>
        <time>2015-10-11T10:39:49Z</time>
      </trkpt>
      <trkpt lat="42.67626" lon="0.12816">
        <ele>2266.9</ele>
        <time>2015-10-11T10:39:56Z</time>
      </trkpt>
      <trkpt lat="42.67629" lon="0.12818">
        <ele>2268.9</ele>
        <time>2015-10-11T10:40:05Z</time>
      </trkpt>
      <trkpt lat="42.67629" lon="0.12819">
        <ele>2268.9</ele>
        <time>2015-10-11T10:40:11Z</time>
      </trkpt>
      <trkpt lat="42.67629" lon="0.12817">
        <ele>2269.3</ele>
        <time>2015-10-11T10:40:24Z</time>
      </trkpt>
      <trkpt lat="42.67631" lon="0.12817">
        <ele>2269.3</ele>
        <time>2015-10-11T10:40:36Z</time>
      </trkpt>
      <trkpt lat="42.67631" lon="0.12819">
        <ele>2269.3</ele>
        <time>2015-10-11T10:40:51Z</time>
      </trkpt>
      <trkpt lat="42.67631" lon="0.12822">
        <ele>2270.3</ele>
        <time>2015-10-11T10:40:59Z</time>
      </trkpt>
      <trkpt lat="42.67631" lon="0.12825">
        <ele>2272.2</ele>
        <time>2015-10-11T10:41:08Z</time>
      </trkpt>
      <trkpt lat="42.6763" lon="0.12827">
        <ele>2274.1</ele>
        <time>2015-10-11T10:41:14Z</time>
      </trkpt>
      <trkpt lat="42.67627" lon="0.12831">
        <ele>2275.1</ele>
        <time>2015-10-11T10:41:23Z</time>
      </trkpt>
      <trkpt lat="42.67629" lon="0.12834">
        <ele>2276.5</ele>
        <time>2015-10-11T10:41:30Z</time>
      </trkpt>
      <trkpt lat="42.67631" lon="0.12834">
        <ele>2278.5</ele>
        <time>2015-10-11T10:41:39Z</time>
      </trkpt>
      <trkpt lat="42.67634" lon="0.12838">
        <ele>2280.4</ele>
        <time>2015-10-11T10:41:48Z</time>
      </trkpt>
      <trkpt lat="42.67637" lon="0.12839">
        <ele>2281.4</ele>
        <time>2015-10-11T10:41:54Z</time>
      </trkpt>
      <trkpt lat="42.6764" lon="0.12841">
        <ele>2282.3</ele>
        <time>2015-10-11T10:42:01Z</time>
      </trkpt>
      <trkpt lat="42.67643" lon="0.12841">
        <ele>2283.8</ele>
        <time>2015-10-11T10:42:10Z</time>
      </trkpt>
      <trkpt lat="42.67646" lon="0.12844">
        <ele>2285.2</ele>
        <time>2015-10-11T10:42:17Z</time>
      </trkpt>
      <trkpt lat="42.67647" lon="0.12846">
        <ele>2286.6</ele>
        <time>2015-10-11T10:42:24Z</time>
      </trkpt>
      <trkpt lat="42.67649" lon="0.12848">
        <ele>2288.1</ele>
        <time>2015-10-11T10:42:31Z</time>
      </trkpt>
      <trkpt lat="42.67648" lon="0.1285">
        <ele>2289</ele>
        <time>2015-10-11T10:42:39Z</time>
      </trkpt>
      <trkpt lat="42.67647" lon="0.12853">
        <ele>2291</ele>
        <time>2015-10-11T10:42:45Z</time>
      </trkpt>
      <trkpt lat="42.67644" lon="0.12856">
        <ele>2291.9</ele>
        <time>2015-10-11T10:42:54Z</time>
      </trkpt>
      <trkpt lat="42.67642" lon="0.12859">
        <ele>2293.4</ele>
        <time>2015-10-11T10:43:01Z</time>
      </trkpt>
      <trkpt lat="42.6764" lon="0.12862">
        <ele>2294.8</ele>
        <time>2015-10-11T10:43:10Z</time>
      </trkpt>
      <trkpt lat="42.67638" lon="0.12867">
        <ele>2296.2</ele>
        <time>2015-10-11T10:43:19Z</time>
      </trkpt>
      <trkpt lat="42.67636" lon="0.1287">
        <ele>2298.6</ele>
        <time>2015-10-11T10:43:28Z</time>
      </trkpt>
      <trkpt lat="42.67632" lon="0.12873">
        <ele>2300.1</ele>
        <time>2015-10-11T10:43:37Z</time>
      </trkpt>
      <trkpt lat="42.67631" lon="0.12877">
        <ele>2301.5</ele>
        <time>2015-10-11T10:43:44Z</time>
      </trkpt>
      <trkpt lat="42.6763" lon="0.12879">
        <ele>2303</ele>
        <time>2015-10-11T10:43:53Z</time>
      </trkpt>
      <trkpt lat="42.67629" lon="0.12883">
        <ele>2303.9</ele>
        <time>2015-10-11T10:44:00Z</time>
      </trkpt>
      <trkpt lat="42.67628" lon="0.12884">
        <ele>2305.4</ele>
        <time>2015-10-11T10:44:05Z</time>
      </trkpt>
      <trkpt lat="42.67627" lon="0.12887">
        <ele>2306.8</ele>
        <time>2015-10-11T10:44:13Z</time>
      </trkpt>
      <trkpt lat="42.67623" lon="0.12891">
        <ele>2307.8</ele>
        <time>2015-10-11T10:44:21Z</time>
      </trkpt>
      <trkpt lat="42.67619" lon="0.12896">
        <ele>2309.7</ele>
        <time>2015-10-11T10:44:29Z</time>
      </trkpt>
      <trkpt lat="42.67617" lon="0.129">
        <ele>2310.7</ele>
        <time>2015-10-11T10:44:36Z</time>
      </trkpt>
      <trkpt lat="42.67615" lon="0.12902">
        <ele>2311.1</ele>
        <time>2015-10-11T10:44:42Z</time>
      </trkpt>
      <trkpt lat="42.67612" lon="0.12905">
        <ele>2313.1</ele>
        <time>2015-10-11T10:44:49Z</time>
      </trkpt>
      <trkpt lat="42.67608" lon="0.12908">
        <ele>2315</ele>
        <time>2015-10-11T10:44:58Z</time>
      </trkpt>
      <trkpt lat="42.67602" lon="0.12911">
        <ele>2315.9</ele>
        <time>2015-10-11T10:45:07Z</time>
      </trkpt>
      <trkpt lat="42.67598" lon="0.12913">
        <ele>2316.9</ele>
        <time>2015-10-11T10:45:14Z</time>
      </trkpt>
      <trkpt lat="42.67598" lon="0.12914">
        <ele>2316.9</ele>
        <time>2015-10-11T10:45:16Z</time>
      </trkpt>
      <trkpt lat="42.67601" lon="0.12912">
        <ele>2316.9</ele>
        <time>2015-10-11T10:45:22Z</time>
      </trkpt>
      <trkpt lat="42.67598" lon="0.12913">
        <ele>2316.9</ele>
        <time>2015-10-11T10:45:33Z</time>
      </trkpt>
      <trkpt lat="42.67589" lon="0.1292">
        <ele>2318.8</ele>
        <time>2015-10-11T10:45:42Z</time>
      </trkpt>
      <trkpt lat="42.67584" lon="0.12922">
        <ele>2319.3</ele>
        <time>2015-10-11T10:45:49Z</time>
      </trkpt>
      <trkpt lat="42.67578" lon="0.12924">
        <ele>2320.8</ele>
        <time>2015-10-11T10:45:56Z</time>
      </trkpt>
      <trkpt lat="42.6757" lon="0.12927">
        <ele>2321.2</ele>
        <time>2015-10-11T10:46:04Z</time>
      </trkpt>
      <trkpt lat="42.67564" lon="0.1293">
        <ele>2323.2</ele>
        <time>2015-10-11T10:46:13Z</time>
      </trkpt>
      <trkpt lat="42.67563" lon="0.1293">
        <ele>2323.2</ele>
        <time>2015-10-11T10:46:21Z</time>
      </trkpt>
      <trkpt lat="42.67563" lon="0.1293">
        <ele>2323.6</ele>
        <time>2015-10-11T10:46:34Z</time>
      </trkpt>
      <trkpt lat="42.67563" lon="0.12931">
        <ele>2323.6</ele>
        <time>2015-10-11T10:46:51Z</time>
      </trkpt>
      <trkpt lat="42.67558" lon="0.12933">
        <ele>2324.6</ele>
        <time>2015-10-11T10:46:58Z</time>
      </trkpt>
      <trkpt lat="42.67552" lon="0.12935">
        <ele>2325.6</ele>
        <time>2015-10-11T10:47:04Z</time>
      </trkpt>
      <trkpt lat="42.67546" lon="0.12934">
        <ele>2327.5</ele>
        <time>2015-10-11T10:47:13Z</time>
      </trkpt>
      <trkpt lat="42.67545" lon="0.12933">
        <ele>2328</ele>
        <time>2015-10-11T10:47:22Z</time>
      </trkpt>
      <trkpt lat="42.67542" lon="0.12933">
        <ele>2328.9</ele>
        <time>2015-10-11T10:47:34Z</time>
      </trkpt>
      <trkpt lat="42.67537" lon="0.12933">
        <ele>2330.4</ele>
        <time>2015-10-11T10:47:42Z</time>
      </trkpt>
      <trkpt lat="42.67533" lon="0.12934">
        <ele>2332.3</ele>
        <time>2015-10-11T10:47:50Z</time>
      </trkpt>
      <trkpt lat="42.67528" lon="0.12934">
        <ele>2334.2</ele>
        <time>2015-10-11T10:48:01Z</time>
      </trkpt>
      <trkpt lat="42.67525" lon="0.12934">
        <ele>2336.1</ele>
        <time>2015-10-11T10:48:08Z</time>
      </trkpt>
      <trkpt lat="42.67521" lon="0.12934">
        <ele>2337.1</ele>
        <time>2015-10-11T10:48:16Z</time>
      </trkpt>
      <trkpt lat="42.67518" lon="0.12935">
        <ele>2338.5</ele>
        <time>2015-10-11T10:48:25Z</time>
      </trkpt>
      <trkpt lat="42.67513" lon="0.12935">
        <ele>2340.9</ele>
        <time>2015-10-11T10:48:34Z</time>
      </trkpt>
      <trkpt lat="42.67511" lon="0.12935">
        <ele>2341.9</ele>
        <time>2015-10-11T10:48:44Z</time>
      </trkpt>
      <trkpt lat="42.67509" lon="0.12935">
        <ele>2342.4</ele>
        <time>2015-10-11T10:49:04Z</time>
      </trkpt>
      <trkpt lat="42.67505" lon="0.12935">
        <ele>2344.3</ele>
        <time>2015-10-11T10:49:13Z</time>
      </trkpt>
      <trkpt lat="42.67501" lon="0.12935">
        <ele>2345.8</ele>
        <time>2015-10-11T10:49:23Z</time>
      </trkpt>
      <trkpt lat="42.67498" lon="0.12935">
        <ele>2347.7</ele>
        <time>2015-10-11T10:49:31Z</time>
      </trkpt>
      <trkpt lat="42.67493" lon="0.12937">
        <ele>2349.1</ele>
        <time>2015-10-11T10:49:38Z</time>
      </trkpt>
      <trkpt lat="42.6749" lon="0.12937">
        <ele>2350.1</ele>
        <time>2015-10-11T10:49:44Z</time>
      </trkpt>
      <trkpt lat="42.67488" lon="0.12938">
        <ele>2351.5</ele>
        <time>2015-10-11T10:49:49Z</time>
      </trkpt>
      <trkpt lat="42.67484" lon="0.12939">
        <ele>2352.5</ele>
        <time>2015-10-11T10:49:57Z</time>
      </trkpt>
      <trkpt lat="42.67481" lon="0.12941">
        <ele>2353.4</ele>
        <time>2015-10-11T10:50:02Z</time>
      </trkpt>
      <trkpt lat="42.67479" lon="0.1294">
        <ele>2353.4</ele>
        <time>2015-10-11T10:50:06Z</time>
      </trkpt>
      <trkpt lat="42.67475" lon="0.12945">
        <ele>2353.9</ele>
        <time>2015-10-11T10:50:14Z</time>
      </trkpt>
      <trkpt lat="42.67476" lon="0.12946">
        <ele>2353.9</ele>
        <time>2015-10-11T10:50:23Z</time>
      </trkpt>
      <trkpt lat="42.67476" lon="0.12946">
        <ele>2353.9</ele>
        <time>2015-10-11T10:50:53Z</time>
      </trkpt>
      <trkpt lat="42.67476" lon="0.12946">
        <ele>2353.9</ele>
        <time>2015-10-11T10:51:21Z</time>
      </trkpt>
      <trkpt lat="42.67476" lon="0.12945">
        <ele>2354.4</ele>
        <time>2015-10-11T10:51:50Z</time>
      </trkpt>
      <trkpt lat="42.67477" lon="0.12945">
        <ele>2354.4</ele>
        <time>2015-10-11T10:52:18Z</time>
      </trkpt>
      <trkpt lat="42.67476" lon="0.12945">
        <ele>2354.4</ele>
        <time>2015-10-11T10:52:50Z</time>
      </trkpt>
      <trkpt lat="42.67476" lon="0.12945">
        <ele>2354.4</ele>
        <time>2015-10-11T10:53:16Z</time>
      </trkpt>
      <trkpt lat="42.67476" lon="0.12945">
        <ele>2354.4</ele>
        <time>2015-10-11T10:53:39Z</time>
      </trkpt>
      <trkpt lat="42.67476" lon="0.12945">
        <ele>2354.4</ele>
        <time>2015-10-11T10:54:05Z</time>
      </trkpt>
      <trkpt lat="42.67476" lon="0.12945">
        <ele>2354.9</ele>
        <time>2015-10-11T10:54:33Z</time>
      </trkpt>
      <trkpt lat="42.67476" lon="0.12945">
        <ele>2354.9</ele>
        <time>2015-10-11T10:54:52Z</time>
      </trkpt>
      <trkpt lat="42.67476" lon="0.12945">
        <ele>2354.9</ele>
        <time>2015-10-11T10:55:17Z</time>
      </trkpt>
      <trkpt lat="42.67476" lon="0.12945">
        <ele>2354.9</ele>
        <time>2015-10-11T10:55:42Z</time>
      </trkpt>
      <trkpt lat="42.67476" lon="0.12945">
        <ele>2354.9</ele>
        <time>2015-10-11T10:56:00Z</time>
      </trkpt>
      <trkpt lat="42.67476" lon="0.12945">
        <ele>2354.9</ele>
        <time>2015-10-11T10:56:31Z</time>
      </trkpt>
      <trkpt lat="42.67477" lon="0.12942">
        <ele>2354.9</ele>
        <time>2015-10-11T10:56:49Z</time>
      </trkpt>
      <trkpt lat="42.67478" lon="0.12942">
        <ele>2354.9</ele>
        <time>2015-10-11T10:57:15Z</time>
      </trkpt>
      <trkpt lat="42.67477" lon="0.12943">
        <ele>2354.9</ele>
        <time>2015-10-11T10:57:50Z</time>
      </trkpt>
      <trkpt lat="42.67477" lon="0.12943">
        <ele>2354.9</ele>
        <time>2015-10-11T10:58:20Z</time>
      </trkpt>
      <trkpt lat="42.67478" lon="0.12942">
        <ele>2354.9</ele>
        <time>2015-10-11T10:58:45Z</time>
      </trkpt>
      <trkpt lat="42.67477" lon="0.12943">
        <ele>2354.9</ele>
        <time>2015-10-11T10:59:03Z</time>
      </trkpt>
      <trkpt lat="42.67477" lon="0.12942">
        <ele>2354.9</ele>
        <time>2015-10-11T10:59:29Z</time>
      </trkpt>
      <trkpt lat="42.67477" lon="0.12943">
        <ele>2354.9</ele>
        <time>2015-10-11T10:59:50Z</time>
      </trkpt>
      <trkpt lat="42.67476" lon="0.12943">
        <ele>2354.9</ele>
        <time>2015-10-11T11:00:21Z</time>
      </trkpt>
      <trkpt lat="42.67476" lon="0.12943">
        <ele>2354.9</ele>
        <time>2015-10-11T11:00:50Z</time>
      </trkpt>
      <trkpt lat="42.67476" lon="0.12943">
        <ele>2354.9</ele>
        <time>2015-10-11T11:01:19Z</time>
      </trkpt>
      <trkpt lat="42.67476" lon="0.12944">
        <ele>2354.9</ele>
        <time>2015-10-11T11:01:43Z</time>
      </trkpt>
      <trkpt lat="42.67476" lon="0.12943">
        <ele>2354.9</ele>
        <time>2015-10-11T11:02:04Z</time>
      </trkpt>
      <trkpt lat="42.67477" lon="0.12944">
        <ele>2354.9</ele>
        <time>2015-10-11T11:02:34Z</time>
      </trkpt>
      <trkpt lat="42.67477" lon="0.12945">
        <ele>2354.9</ele>
        <time>2015-10-11T11:02:52Z</time>
      </trkpt>
      <trkpt lat="42.67476" lon="0.12945">
        <ele>2354.9</ele>
        <time>2015-10-11T11:03:20Z</time>
      </trkpt>
      <trkpt lat="42.67477" lon="0.12945">
        <ele>2354.9</ele>
        <time>2015-10-11T11:03:37Z</time>
      </trkpt>
      <trkpt lat="42.67476" lon="0.12945">
        <ele>2354.9</ele>
        <time>2015-10-11T11:03:59Z</time>
      </trkpt>
      <trkpt lat="42.67477" lon="0.12945">
        <ele>2354.9</ele>
        <time>2015-10-11T11:04:20Z</time>
      </trkpt>
      <trkpt lat="42.67476" lon="0.12945">
        <ele>2354.9</ele>
        <time>2015-10-11T11:04:41Z</time>
      </trkpt>
      <trkpt lat="42.67476" lon="0.12946">
        <ele>2355.4</ele>
        <time>2015-10-11T11:04:53Z</time>
      </trkpt>
      <trkpt lat="42.67476" lon="0.12946">
        <ele>2355.4</ele>
        <time>2015-10-11T11:05:02Z</time>
      </trkpt>
      <trkpt lat="42.67476" lon="0.12946">
        <ele>2355.4</ele>
        <time>2015-10-11T11:05:14Z</time>
      </trkpt>
      <trkpt lat="42.67476" lon="0.12945">
        <ele>2355.4</ele>
        <time>2015-10-11T11:05:24Z</time>
      </trkpt>
      <trkpt lat="42.67476" lon="0.12946">
        <ele>2355.4</ele>
        <time>2015-10-11T11:05:34Z</time>
      </trkpt>
      <trkpt lat="42.67477" lon="0.12946">
        <ele>2355.4</ele>
        <time>2015-10-11T11:05:48Z</time>
      </trkpt>
      <trkpt lat="42.67477" lon="0.12946">
        <ele>2355.4</ele>
        <time>2015-10-11T11:06:02Z</time>
      </trkpt>
      <trkpt lat="42.67474" lon="0.1295">
        <ele>2355.4</ele>
        <time>2015-10-11T11:06:12Z</time>
      </trkpt>
      <trkpt lat="42.67466" lon="0.1296">
        <ele>2353</ele>
        <time>2015-10-11T11:06:16Z</time>
      </trkpt>
      <trkpt lat="42.67456" lon="0.12975">
        <ele>2350.1</ele>
        <time>2015-10-11T11:06:20Z</time>
      </trkpt>
      <trkpt lat="42.67445" lon="0.12993">
        <ele>2349.1</ele>
        <time>2015-10-11T11:06:24Z</time>
      </trkpt>
      <trkpt lat="42.67435" lon="0.13015">
        <ele>2347.2</ele>
        <time>2015-10-11T11:06:28Z</time>
      </trkpt>
      <trkpt lat="42.67433" lon="0.1302">
        <ele>2347.2</ele>
        <time>2015-10-11T11:06:29Z</time>
      </trkpt>
      <trkpt lat="42.67424" lon="0.13034">
        <ele>2346.7</ele>
        <time>2015-10-11T11:06:33Z</time>
      </trkpt>
      <trkpt lat="42.67404" lon="0.13069">
        <ele>2343.4</ele>
        <time>2015-10-11T11:06:40Z</time>
      </trkpt>
      <trkpt lat="42.67389" lon="0.13097">
        <ele>2340.5</ele>
        <time>2015-10-11T11:06:44Z</time>
      </trkpt>
      <trkpt lat="42.67375" lon="0.13119">
        <ele>2336.6</ele>
        <time>2015-10-11T11:06:47Z</time>
      </trkpt>
      <trkpt lat="42.67372" lon="0.13124">
        <ele>2336.6</ele>
        <time>2015-10-11T11:06:48Z</time>
      </trkpt>
      <trkpt lat="42.67369" lon="0.1313">
        <ele>2335.2</ele>
        <time>2015-10-11T11:06:50Z</time>
      </trkpt>
      <trkpt lat="42.67361" lon="0.13138">
        <ele>2331.8</ele>
        <time>2015-10-11T11:06:53Z</time>
      </trkpt>
      <trkpt lat="42.6735" lon="0.13152">
        <ele>2328</ele>
        <time>2015-10-11T11:06:57Z</time>
      </trkpt>
      <trkpt lat="42.67344" lon="0.13157">
        <ele>2325.6</ele>
        <time>2015-10-11T11:07:01Z</time>
      </trkpt>
      <trkpt lat="42.67341" lon="0.13159">
        <ele>2322.7</ele>
        <time>2015-10-11T11:07:06Z</time>
      </trkpt>
      <trkpt lat="42.67339" lon="0.13158">
        <ele>2322.2</ele>
        <time>2015-10-11T11:07:12Z</time>
      </trkpt>
      <trkpt lat="42.67339" lon="0.13157">
        <ele>2321.7</ele>
        <time>2015-10-11T11:07:21Z</time>
      </trkpt>
      <trkpt lat="42.67337" lon="0.13156">
        <ele>2320.8</ele>
        <time>2015-10-11T11:07:33Z</time>
      </trkpt>
      <trkpt lat="42.67337" lon="0.13156">
        <ele>2320.3</ele>
        <time>2015-10-11T11:07:42Z</time>
      </trkpt>
      <trkpt lat="42.67336" lon="0.13154">
        <ele>2319.8</ele>
        <time>2015-10-11T11:07:57Z</time>
      </trkpt>
      <trkpt lat="42.67336" lon="0.13153">
        <ele>2319.3</ele>
        <time>2015-10-11T11:08:05Z</time>
      </trkpt>
      <trkpt lat="42.67335" lon="0.1315">
        <ele>2318.8</ele>
        <time>2015-10-11T11:08:14Z</time>
      </trkpt>
      <trkpt lat="42.67334" lon="0.1315">
        <ele>2318.4</ele>
        <time>2015-10-11T11:08:25Z</time>
      </trkpt>
      <trkpt lat="42.67333" lon="0.13154">
        <ele>2317.4</ele>
        <time>2015-10-11T11:08:32Z</time>
      </trkpt>
      <trkpt lat="42.6733" lon="0.13156">
        <ele>2315</ele>
        <time>2015-10-11T11:08:38Z</time>
      </trkpt>
      <trkpt lat="42.67329" lon="0.13156">
        <ele>2314</ele>
        <time>2015-10-11T11:08:42Z</time>
      </trkpt>
      <trkpt lat="42.67329" lon="0.1315">
        <ele>2313.6</ele>
        <time>2015-10-11T11:08:48Z</time>
      </trkpt>
      <trkpt lat="42.67327" lon="0.1315">
        <ele>2312.6</ele>
        <time>2015-10-11T11:08:54Z</time>
      </trkpt>
      <trkpt lat="42.67326" lon="0.1315">
        <ele>2311.6</ele>
        <time>2015-10-11T11:09:01Z</time>
      </trkpt>
      <trkpt lat="42.67326" lon="0.13151">
        <ele>2311.1</ele>
        <time>2015-10-11T11:09:05Z</time>
      </trkpt>
      <trkpt lat="42.6732" lon="0.13156">
        <ele>2308.7</ele>
        <time>2015-10-11T11:09:09Z</time>
      </trkpt>
      <trkpt lat="42.67313" lon="0.1316">
        <ele>2305.4</ele>
        <time>2015-10-11T11:09:12Z</time>
      </trkpt>
      <trkpt lat="42.67306" lon="0.13163">
        <ele>2302.5</ele>
        <time>2015-10-11T11:09:14Z</time>
      </trkpt>
      <trkpt lat="42.67294" lon="0.13168">
        <ele>2297.2</ele>
        <time>2015-10-11T11:09:17Z</time>
      </trkpt>
      <trkpt lat="42.67288" lon="0.13169">
        <ele>2293.8</ele>
        <time>2015-10-11T11:09:19Z</time>
      </trkpt>
      <trkpt lat="42.67282" lon="0.13172">
        <ele>2290.5</ele>
        <time>2015-10-11T11:09:21Z</time>
      </trkpt>
      <trkpt lat="42.6728" lon="0.13176">
        <ele>2289.5</ele>
        <time>2015-10-11T11:09:22Z</time>
      </trkpt>
      <trkpt lat="42.67267" lon="0.13185">
        <ele>2283.3</ele>
        <time>2015-10-11T11:09:26Z</time>
      </trkpt>
      <trkpt lat="42.67261" lon="0.13189">
        <ele>2280.9</ele>
        <time>2015-10-11T11:09:30Z</time>
      </trkpt>
      <trkpt lat="42.67259" lon="0.13189">
        <ele>2279.4</ele>
        <time>2015-10-11T11:09:31Z</time>
      </trkpt>
      <trkpt lat="42.67254" lon="0.1319">
        <ele>2276.5</ele>
        <time>2015-10-11T11:09:33Z</time>
      </trkpt>
      <trkpt lat="42.67251" lon="0.13193">
        <ele>2274.6</ele>
        <time>2015-10-11T11:09:35Z</time>
      </trkpt>
      <trkpt lat="42.67249" lon="0.13195">
        <ele>2273.2</ele>
        <time>2015-10-11T11:09:38Z</time>
      </trkpt>
      <trkpt lat="42.67247" lon="0.13196">
        <ele>2271.2</ele>
        <time>2015-10-11T11:09:42Z</time>
      </trkpt>
      <trkpt lat="42.6724" lon="0.13201">
        <ele>2266</ele>
        <time>2015-10-11T11:09:46Z</time>
      </trkpt>
      <trkpt lat="42.67237" lon="0.13204">
        <ele>2264</ele>
        <time>2015-10-11T11:09:48Z</time>
      </trkpt>
      <trkpt lat="42.67231" lon="0.13205">
        <ele>2261.2</ele>
        <time>2015-10-11T11:09:55Z</time>
      </trkpt>
      <trkpt lat="42.67228" lon="0.13206">
        <ele>2258.8</ele>
        <time>2015-10-11T11:09:59Z</time>
      </trkpt>
      <trkpt lat="42.67228" lon="0.13206">
        <ele>2258.3</ele>
        <time>2015-10-11T11:10:10Z</time>
      </trkpt>
      <trkpt lat="42.67228" lon="0.13206">
        <ele>2258.3</ele>
        <time>2015-10-11T11:10:19Z</time>
      </trkpt>
      <trkpt lat="42.67228" lon="0.13207">
        <ele>2258.3</ele>
        <time>2015-10-11T11:10:36Z</time>
      </trkpt>
      <trkpt lat="42.67226" lon="0.13209">
        <ele>2257.8</ele>
        <time>2015-10-11T11:10:41Z</time>
      </trkpt>
      <trkpt lat="42.67221" lon="0.13216">
        <ele>2253</ele>
        <time>2015-10-11T11:10:45Z</time>
      </trkpt>
      <trkpt lat="42.67218" lon="0.13221">
        <ele>2249.6</ele>
        <time>2015-10-11T11:10:47Z</time>
      </trkpt>
      <trkpt lat="42.67213" lon="0.13225">
        <ele>2246.3</ele>
        <time>2015-10-11T11:10:49Z</time>
      </trkpt>
      <trkpt lat="42.67204" lon="0.13229">
        <ele>2241.9</ele>
        <time>2015-10-11T11:10:52Z</time>
      </trkpt>
      <trkpt lat="42.67202" lon="0.13231">
        <ele>2240</ele>
        <time>2015-10-11T11:10:53Z</time>
      </trkpt>
      <trkpt lat="42.67189" lon="0.13236">
        <ele>2234.2</ele>
        <time>2015-10-11T11:10:56Z</time>
      </trkpt>
      <trkpt lat="42.6718" lon="0.13239">
        <ele>2230.4</ele>
        <time>2015-10-11T11:10:58Z</time>
      </trkpt>
      <trkpt lat="42.67172" lon="0.13241">
        <ele>2227.5</ele>
        <time>2015-10-11T11:11:00Z</time>
      </trkpt>
      <trkpt lat="42.67164" lon="0.13246">
        <ele>2224.1</ele>
        <time>2015-10-11T11:11:04Z</time>
      </trkpt>
      <trkpt lat="42.67164" lon="0.13247">
        <ele>2223.7</ele>
        <time>2015-10-11T11:11:08Z</time>
      </trkpt>
      <trkpt lat="42.67158" lon="0.13252">
        <ele>2222.2</ele>
        <time>2015-10-11T11:11:14Z</time>
      </trkpt>
      <trkpt lat="42.6715" lon="0.13255">
        <ele>2218.9</ele>
        <time>2015-10-11T11:11:19Z</time>
      </trkpt>
      <trkpt lat="42.67147" lon="0.13254">
        <ele>2218.4</ele>
        <time>2015-10-11T11:11:21Z</time>
      </trkpt>
      <trkpt lat="42.67144" lon="0.13252">
        <ele>2216</ele>
        <time>2015-10-11T11:11:24Z</time>
      </trkpt>
      <trkpt lat="42.67137" lon="0.13258">
        <ele>2211.2</ele>
        <time>2015-10-11T11:11:30Z</time>
      </trkpt>
      <trkpt lat="42.67132" lon="0.13267">
        <ele>2207.8</ele>
        <time>2015-10-11T11:11:33Z</time>
      </trkpt>
      <trkpt lat="42.67124" lon="0.13286">
        <ele>2202</ele>
        <time>2015-10-11T11:11:37Z</time>
      </trkpt>
      <trkpt lat="42.6712" lon="0.133">
        <ele>2198.2</ele>
        <time>2015-10-11T11:11:40Z</time>
      </trkpt>
      <trkpt lat="42.67118" lon="0.13303">
        <ele>2197.2</ele>
        <time>2015-10-11T11:11:41Z</time>
      </trkpt>
      <trkpt lat="42.67105" lon="0.13309">
        <ele>2192.4</ele>
        <time>2015-10-11T11:11:45Z</time>
      </trkpt>
      <trkpt lat="42.67095" lon="0.13315">
        <ele>2188.1</ele>
        <time>2015-10-11T11:11:48Z</time>
      </trkpt>
      <trkpt lat="42.67086" lon="0.13315">
        <ele>2185.2</ele>
        <time>2015-10-11T11:11:51Z</time>
      </trkpt>
      <trkpt lat="42.67083" lon="0.13315">
        <ele>2183.8</ele>
        <time>2015-10-11T11:11:52Z</time>
      </trkpt>
      <trkpt lat="42.67074" lon="0.13323">
        <ele>2179</ele>
        <time>2015-10-11T11:11:56Z</time>
      </trkpt>
      <trkpt lat="42.67066" lon="0.13329">
        <ele>2174.6</ele>
        <time>2015-10-11T11:11:59Z</time>
      </trkpt>
      <trkpt lat="42.67063" lon="0.13337">
        <ele>2171.8</ele>
        <time>2015-10-11T11:12:01Z</time>
      </trkpt>
      <trkpt lat="42.67054" lon="0.13349">
        <ele>2166.9</ele>
        <time>2015-10-11T11:12:04Z</time>
      </trkpt>
      <trkpt lat="42.67047" lon="0.13359">
        <ele>2162.6</ele>
        <time>2015-10-11T11:12:06Z</time>
      </trkpt>
      <trkpt lat="42.67036" lon="0.1337">
        <ele>2156.9</ele>
        <time>2015-10-11T11:12:09Z</time>
      </trkpt>
      <trkpt lat="42.67029" lon="0.13377">
        <ele>2154</ele>
        <time>2015-10-11T11:12:11Z</time>
      </trkpt>
      <trkpt lat="42.67024" lon="0.1338">
        <ele>2151.1</ele>
        <time>2015-10-11T11:12:13Z</time>
      </trkpt>
      <trkpt lat="42.67016" lon="0.13384">
        <ele>2147.7</ele>
        <time>2015-10-11T11:12:18Z</time>
      </trkpt>
      <trkpt lat="42.67016" lon="0.13383">
        <ele>2148.7</ele>
        <time>2015-10-11T11:12:21Z</time>
      </trkpt>
      <trkpt lat="42.67016" lon="0.13384">
        <ele>2148.2</ele>
        <time>2015-10-11T11:12:36Z</time>
      </trkpt>
      <trkpt lat="42.67015" lon="0.13383">
        <ele>2148.2</ele>
        <time>2015-10-11T11:12:57Z</time>
      </trkpt>
      <trkpt lat="42.67016" lon="0.13383">
        <ele>2148.2</ele>
        <time>2015-10-11T11:13:13Z</time>
      </trkpt>
      <trkpt lat="42.67014" lon="0.13383">
        <ele>2148.2</ele>
        <time>2015-10-11T11:13:28Z</time>
      </trkpt>
      <trkpt lat="42.67013" lon="0.13383">
        <ele>2148.2</ele>
        <time>2015-10-11T11:13:43Z</time>
      </trkpt>
      <trkpt lat="42.67006" lon="0.13394">
        <ele>2144.8</ele>
        <time>2015-10-11T11:13:48Z</time>
      </trkpt>
      <trkpt lat="42.67002" lon="0.13408">
        <ele>2142.4</ele>
        <time>2015-10-11T11:13:51Z</time>
      </trkpt>
      <trkpt lat="42.66999" lon="0.13429">
        <ele>2139.1</ele>
        <time>2015-10-11T11:13:55Z</time>
      </trkpt>
      <trkpt lat="42.66988" lon="0.13449">
        <ele>2133.8</ele>
        <time>2015-10-11T11:14:00Z</time>
      </trkpt>
      <trkpt lat="42.66985" lon="0.13455">
        <ele>2133.3</ele>
        <time>2015-10-11T11:14:01Z</time>
      </trkpt>
      <trkpt lat="42.66972" lon="0.13485">
        <ele>2129.9</ele>
        <time>2015-10-11T11:14:06Z</time>
      </trkpt>
      <trkpt lat="42.66961" lon="0.13507">
        <ele>2128</ele>
        <time>2015-10-11T11:14:11Z</time>
      </trkpt>
      <trkpt lat="42.6696" lon="0.13526">
        <ele>2125.1</ele>
        <time>2015-10-11T11:14:14Z</time>
      </trkpt>
      <trkpt lat="42.66964" lon="0.13567">
        <ele>2120.3</ele>
        <time>2015-10-11T11:14:18Z</time>
      </trkpt>
      <trkpt lat="42.66966" lon="0.13584">
        <ele>2119.4</ele>
        <time>2015-10-11T11:14:20Z</time>
      </trkpt>
      <trkpt lat="42.6697" lon="0.13615">
        <ele>2116.5</ele>
        <time>2015-10-11T11:14:24Z</time>
      </trkpt>
      <trkpt lat="42.66976" lon="0.13658">
        <ele>2114.1</ele>
        <time>2015-10-11T11:14:30Z</time>
      </trkpt>
      <trkpt lat="42.66976" lon="0.13699">
        <ele>2110.2</ele>
        <time>2015-10-11T11:14:34Z</time>
      </trkpt>
      <trkpt lat="42.66973" lon="0.13741">
        <ele>2108.8</ele>
        <time>2015-10-11T11:14:38Z</time>
      </trkpt>
      <trkpt lat="42.66971" lon="0.13761">
        <ele>2108.3</ele>
        <time>2015-10-11T11:14:40Z</time>
      </trkpt>
      <trkpt lat="42.6696" lon="0.13787">
        <ele>2106.9</ele>
        <time>2015-10-11T11:14:44Z</time>
      </trkpt>
      <trkpt lat="42.66958" lon="0.13794">
        <ele>2104</ele>
        <time>2015-10-11T11:14:48Z</time>
      </trkpt>
      <trkpt lat="42.66959" lon="0.13792">
        <ele>2104.9</ele>
        <time>2015-10-11T11:14:59Z</time>
      </trkpt>
      <trkpt lat="42.66959" lon="0.13792">
        <ele>2104.9</ele>
        <time>2015-10-11T11:15:03Z</time>
      </trkpt>
      <trkpt lat="42.66957" lon="0.13801">
        <ele>2103.5</ele>
        <time>2015-10-11T11:15:07Z</time>
      </trkpt>
      <trkpt lat="42.66955" lon="0.13818">
        <ele>2100.6</ele>
        <time>2015-10-11T11:15:11Z</time>
      </trkpt>
      <trkpt lat="42.66953" lon="0.13837">
        <ele>2095.3</ele>
        <time>2015-10-11T11:15:14Z</time>
      </trkpt>
      <trkpt lat="42.66953" lon="0.13844">
        <ele>2093.4</ele>
        <time>2015-10-11T11:15:15Z</time>
      </trkpt>
      <trkpt lat="42.66952" lon="0.13865">
        <ele>2088.1</ele>
        <time>2015-10-11T11:15:18Z</time>
      </trkpt>
      <trkpt lat="42.66949" lon="0.13881">
        <ele>2084.3</ele>
        <time>2015-10-11T11:15:20Z</time>
      </trkpt>
      <trkpt lat="42.6694" lon="0.13909">
        <ele>2075.6</ele>
        <time>2015-10-11T11:15:25Z</time>
      </trkpt>
      <trkpt lat="42.66936" lon="0.13922">
        <ele>2071.3</ele>
        <time>2015-10-11T11:15:28Z</time>
      </trkpt>
      <trkpt lat="42.66935" lon="0.13929">
        <ele>2068.9</ele>
        <time>2015-10-11T11:15:30Z</time>
      </trkpt>
      <trkpt lat="42.66931" lon="0.13942">
        <ele>2064.6</ele>
        <time>2015-10-11T11:15:35Z</time>
      </trkpt>
      <trkpt lat="42.66926" lon="0.13948">
        <ele>2063.1</ele>
        <time>2015-10-11T11:15:38Z</time>
      </trkpt>
      <trkpt lat="42.66922" lon="0.13952">
        <ele>2061.2</ele>
        <time>2015-10-11T11:15:41Z</time>
      </trkpt>
      <trkpt lat="42.66923" lon="0.13961">
        <ele>2058.3</ele>
        <time>2015-10-11T11:15:45Z</time>
      </trkpt>
      <trkpt lat="42.66929" lon="0.13975">
        <ele>2054.5</ele>
        <time>2015-10-11T11:15:49Z</time>
      </trkpt>
      <trkpt lat="42.66926" lon="0.13987">
        <ele>2049.7</ele>
        <time>2015-10-11T11:15:52Z</time>
      </trkpt>
      <trkpt lat="42.66919" lon="0.13996">
        <ele>2045.8</ele>
        <time>2015-10-11T11:15:54Z</time>
      </trkpt>
      <trkpt lat="42.66912" lon="0.14005">
        <ele>2042.5</ele>
        <time>2015-10-11T11:15:56Z</time>
      </trkpt>
      <trkpt lat="42.66903" lon="0.14015">
        <ele>2037.7</ele>
        <time>2015-10-11T11:15:58Z</time>
      </trkpt>
      <trkpt lat="42.66899" lon="0.14019">
        <ele>2035.7</ele>
        <time>2015-10-11T11:15:59Z</time>
      </trkpt>
      <trkpt lat="42.66885" lon="0.14029">
        <ele>2030.4</ele>
        <time>2015-10-11T11:16:02Z</time>
      </trkpt>
      <trkpt lat="42.6688" lon="0.14033">
        <ele>2027.6</ele>
        <time>2015-10-11T11:16:03Z</time>
      </trkpt>
      <trkpt lat="42.66868" lon="0.14043">
        <ele>2022.8</ele>
        <time>2015-10-11T11:16:05Z</time>
      </trkpt>
      <trkpt lat="42.66853" lon="0.14061">
        <ele>2015.5</ele>
        <time>2015-10-11T11:16:08Z</time>
      </trkpt>
      <trkpt lat="42.66848" lon="0.14067">
        <ele>2012.7</ele>
        <time>2015-10-11T11:16:09Z</time>
      </trkpt>
      <trkpt lat="42.66839" lon="0.14087">
        <ele>2007.4</ele>
        <time>2015-10-11T11:16:12Z</time>
      </trkpt>
      <trkpt lat="42.66836" lon="0.14096">
        <ele>2004</ele>
        <time>2015-10-11T11:16:13Z</time>
      </trkpt>
      <trkpt lat="42.6683" lon="0.14111">
        <ele>1999.7</ele>
        <time>2015-10-11T11:16:15Z</time>
      </trkpt>
      <trkpt lat="42.66824" lon="0.14128">
        <ele>1996.3</ele>
        <time>2015-10-11T11:16:17Z</time>
      </trkpt>
      <trkpt lat="42.66809" lon="0.14155">
        <ele>1990.6</ele>
        <time>2015-10-11T11:16:20Z</time>
      </trkpt>
      <trkpt lat="42.66794" lon="0.1418">
        <ele>1985.7</ele>
        <time>2015-10-11T11:16:23Z</time>
      </trkpt>
      <trkpt lat="42.6679" lon="0.14188">
        <ele>1984.3</ele>
        <time>2015-10-11T11:16:24Z</time>
      </trkpt>
      <trkpt lat="42.6678" lon="0.14211">
        <ele>1982.4</ele>
        <time>2015-10-11T11:16:27Z</time>
      </trkpt>
      <trkpt lat="42.66775" lon="0.14227">
        <ele>1980</ele>
        <time>2015-10-11T11:16:29Z</time>
      </trkpt>
      <trkpt lat="42.66763" lon="0.14257">
        <ele>1975.2</ele>
        <time>2015-10-11T11:16:32Z</time>
      </trkpt>
      <trkpt lat="42.66752" lon="0.14276">
        <ele>1972.3</ele>
        <time>2015-10-11T11:16:34Z</time>
      </trkpt>
      <trkpt lat="42.66736" lon="0.14304">
        <ele>1970.8</ele>
        <time>2015-10-11T11:16:37Z</time>
      </trkpt>
      <trkpt lat="42.66726" lon="0.1432">
        <ele>1969.4</ele>
        <time>2015-10-11T11:16:39Z</time>
      </trkpt>
      <trkpt lat="42.66702" lon="0.14353">
        <ele>1966</ele>
        <time>2015-10-11T11:16:43Z</time>
      </trkpt>
      <trkpt lat="42.66695" lon="0.14369">
        <ele>1965.6</ele>
        <time>2015-10-11T11:16:45Z</time>
      </trkpt>
      <trkpt lat="42.66688" lon="0.14383">
        <ele>1965.1</ele>
        <time>2015-10-11T11:16:47Z</time>
      </trkpt>
      <trkpt lat="42.66685" lon="0.14389">
        <ele>1966</ele>
        <time>2015-10-11T11:16:48Z</time>
      </trkpt>
      <trkpt lat="42.66683" lon="0.14393">
        <ele>1965.6</ele>
        <time>2015-10-11T11:16:49Z</time>
      </trkpt>
      <trkpt lat="42.6668" lon="0.14397">
        <ele>1965.6</ele>
        <time>2015-10-11T11:16:50Z</time>
      </trkpt>
      <trkpt lat="42.66677" lon="0.14402">
        <ele>1965.6</ele>
        <time>2015-10-11T11:16:51Z</time>
      </trkpt>
      <trkpt lat="42.66662" lon="0.14423">
        <ele>1966</ele>
        <time>2015-10-11T11:16:58Z</time>
      </trkpt>
      <trkpt lat="42.66655" lon="0.14438">
        <ele>1967</ele>
        <time>2015-10-11T11:17:04Z</time>
      </trkpt>
      <trkpt lat="42.66649" lon="0.1445">
        <ele>1967.5</ele>
        <time>2015-10-11T11:17:11Z</time>
      </trkpt>
      <trkpt lat="42.66643" lon="0.14464">
        <ele>1968.9</ele>
        <time>2015-10-11T11:17:19Z</time>
      </trkpt>
      <trkpt lat="42.66638" lon="0.14476">
        <ele>1970.4</ele>
        <time>2015-10-11T11:17:26Z</time>
      </trkpt>
      <trkpt lat="42.66634" lon="0.14489">
        <ele>1971.8</ele>
        <time>2015-10-11T11:17:33Z</time>
      </trkpt>
      <trkpt lat="42.6663" lon="0.14506">
        <ele>1973.7</ele>
        <time>2015-10-11T11:17:42Z</time>
      </trkpt>
      <trkpt lat="42.66627" lon="0.14518">
        <ele>1975.7</ele>
        <time>2015-10-11T11:17:49Z</time>
      </trkpt>
      <trkpt lat="42.66625" lon="0.14529">
        <ele>1977.6</ele>
        <time>2015-10-11T11:17:55Z</time>
      </trkpt>
      <trkpt lat="42.66623" lon="0.14541">
        <ele>1979</ele>
        <time>2015-10-11T11:18:02Z</time>
      </trkpt>
      <trkpt lat="42.66626" lon="0.14554">
        <ele>1980.9</ele>
        <time>2015-10-11T11:18:10Z</time>
      </trkpt>
      <trkpt lat="42.66627" lon="0.14565">
        <ele>1981.9</ele>
        <time>2015-10-11T11:18:17Z</time>
      </trkpt>
      <trkpt lat="42.66627" lon="0.14571">
        <ele>1983.3</ele>
        <time>2015-10-11T11:18:21Z</time>
      </trkpt>
      <trkpt lat="42.66627" lon="0.14573">
        <ele>1983.3</ele>
        <time>2015-10-11T11:18:22Z</time>
      </trkpt>
      <trkpt lat="42.66627" lon="0.14574">
        <ele>1983.8</ele>
        <time>2015-10-11T11:18:23Z</time>
      </trkpt>
      <trkpt lat="42.66627" lon="0.14576">
        <ele>1983.8</ele>
        <time>2015-10-11T11:18:24Z</time>
      </trkpt>
      <trkpt lat="42.66627" lon="0.14578">
        <ele>1984.3</ele>
        <time>2015-10-11T11:18:25Z</time>
      </trkpt>
      <trkpt lat="42.66627" lon="0.1458">
        <ele>1984.3</ele>
        <time>2015-10-11T11:18:26Z</time>
      </trkpt>
      <trkpt lat="42.66627" lon="0.14581">
        <ele>1984.3</ele>
        <time>2015-10-11T11:18:27Z</time>
      </trkpt>
      <trkpt lat="42.66628" lon="0.14584">
        <ele>1984.3</ele>
        <time>2015-10-11T11:18:28Z</time>
      </trkpt>
      <trkpt lat="42.66628" lon="0.14586">
        <ele>1984.8</ele>
        <time>2015-10-11T11:18:29Z</time>
      </trkpt>
      <trkpt lat="42.6663" lon="0.14606">
        <ele>1986.2</ele>
        <time>2015-10-11T11:18:38Z</time>
      </trkpt>
      <trkpt lat="42.66632" lon="0.14628">
        <ele>1987.7</ele>
        <time>2015-10-11T11:18:47Z</time>
      </trkpt>
      <trkpt lat="42.66634" lon="0.14648">
        <ele>1988.1</ele>
        <time>2015-10-11T11:18:55Z</time>
      </trkpt>
      <trkpt lat="42.66634" lon="0.14661">
        <ele>1988.6</ele>
        <time>2015-10-11T11:19:01Z</time>
      </trkpt>
      <trkpt lat="42.66634" lon="0.14677">
        <ele>1989.1</ele>
        <time>2015-10-11T11:19:07Z</time>
      </trkpt>
      <trkpt lat="42.66631" lon="0.14697">
        <ele>1989.6</ele>
        <time>2015-10-11T11:19:14Z</time>
      </trkpt>
      <trkpt lat="42.66629" lon="0.14704">
        <ele>1989.6</ele>
        <time>2015-10-11T11:19:21Z</time>
      </trkpt>
      <trkpt lat="42.66627" lon="0.14703">
        <ele>1989.6</ele>
        <time>2015-10-11T11:19:25Z</time>
      </trkpt>
      <trkpt lat="42.66624" lon="0.14697">
        <ele>1989.6</ele>
        <time>2015-10-11T11:19:29Z</time>
      </trkpt>
      <trkpt lat="42.66626" lon="0.14701">
        <ele>1989.1</ele>
        <time>2015-10-11T11:19:46Z</time>
      </trkpt>
      <trkpt lat="42.66627" lon="0.14703">
        <ele>1989.1</ele>
        <time>2015-10-11T11:20:00Z</time>
      </trkpt>
      <trkpt lat="42.66628" lon="0.14703">
        <ele>1989.1</ele>
        <time>2015-10-11T11:20:17Z</time>
      </trkpt>
      <trkpt lat="42.66628" lon="0.14703">
        <ele>1989.1</ele>
        <time>2015-10-11T11:20:43Z</time>
      </trkpt>
      <trkpt lat="42.66628" lon="0.14703">
        <ele>1989.1</ele>
        <time>2015-10-11T11:21:00Z</time>
      </trkpt>
      <trkpt lat="42.66627" lon="0.14703">
        <ele>1988.6</ele>
        <time>2015-10-11T11:21:17Z</time>
      </trkpt>
      <trkpt lat="42.66627" lon="0.14702">
        <ele>1988.6</ele>
        <time>2015-10-11T11:21:25Z</time>
      </trkpt>
      <trkpt lat="42.66624" lon="0.147">
        <ele>1988.6</ele>
        <time>2015-10-11T11:21:32Z</time>
      </trkpt>
      <trkpt lat="42.66625" lon="0.14702">
        <ele>1988.6</ele>
        <time>2015-10-11T11:21:45Z</time>
      </trkpt>
      <trkpt lat="42.66626" lon="0.14702">
        <ele>1988.6</ele>
        <time>2015-10-11T11:22:02Z</time>
      </trkpt>
      <trkpt lat="42.66627" lon="0.14702">
        <ele>1988.6</ele>
        <time>2015-10-11T11:22:20Z</time>
      </trkpt>
      <trkpt lat="42.66628" lon="0.14703">
        <ele>1988.1</ele>
        <time>2015-10-11T11:22:38Z</time>
      </trkpt>
      <trkpt lat="42.66628" lon="0.14703">
        <ele>1988.1</ele>
        <time>2015-10-11T11:23:04Z</time>
      </trkpt>
      <trkpt lat="42.66629" lon="0.14703">
        <ele>1988.1</ele>
        <time>2015-10-11T11:23:21Z</time>
      </trkpt>
      <trkpt lat="42.66629" lon="0.14703">
        <ele>1988.1</ele>
        <time>2015-10-11T11:23:39Z</time>
      </trkpt>
      <trkpt lat="42.66629" lon="0.14703">
        <ele>1987.7</ele>
        <time>2015-10-11T11:23:55Z</time>
      </trkpt>
      <trkpt lat="42.66629" lon="0.14703">
        <ele>1987.7</ele>
        <time>2015-10-11T11:24:09Z</time>
      </trkpt>
      <trkpt lat="42.6663" lon="0.14703">
        <ele>1987.7</ele>
        <time>2015-10-11T11:24:25Z</time>
      </trkpt>
      <trkpt lat="42.66629" lon="0.14703">
        <ele>1988.1</ele>
        <time>2015-10-11T11:24:34Z</time>
      </trkpt>
      <trkpt lat="42.6663" lon="0.14703">
        <ele>1988.1</ele>
        <time>2015-10-11T11:24:50Z</time>
      </trkpt>
      <trkpt lat="42.6663" lon="0.14703">
        <ele>1988.1</ele>
        <time>2015-10-11T11:25:01Z</time>
      </trkpt>
      <trkpt lat="42.6663" lon="0.14703">
        <ele>1987.7</ele>
        <time>2015-10-11T11:25:16Z</time>
      </trkpt>
      <trkpt lat="42.6663" lon="0.14703">
        <ele>1987.7</ele>
        <time>2015-10-11T11:25:21Z</time>
      </trkpt>
      <trkpt lat="42.66624" lon="0.14721">
        <ele>1985.7</ele>
        <time>2015-10-11T11:25:27Z</time>
      </trkpt>
      <trkpt lat="42.66622" lon="0.14726">
        <ele>1984.8</ele>
        <time>2015-10-11T11:25:28Z</time>
      </trkpt>
      <trkpt lat="42.66608" lon="0.1473">
        <ele>1981.9</ele>
        <time>2015-10-11T11:25:31Z</time>
      </trkpt>
      <trkpt lat="42.66593" lon="0.14742">
        <ele>1976.6</ele>
        <time>2015-10-11T11:25:35Z</time>
      </trkpt>
      <trkpt lat="42.66582" lon="0.1476">
        <ele>1974.2</ele>
        <time>2015-10-11T11:25:38Z</time>
      </trkpt>
      <trkpt lat="42.66569" lon="0.14778">
        <ele>1970.4</ele>
        <time>2015-10-11T11:25:42Z</time>
      </trkpt>
      <trkpt lat="42.66564" lon="0.14783">
        <ele>1968.9</ele>
        <time>2015-10-11T11:25:43Z</time>
      </trkpt>
      <trkpt lat="42.66549" lon="0.14797">
        <ele>1965.1</ele>
        <time>2015-10-11T11:25:47Z</time>
      </trkpt>
      <trkpt lat="42.66533" lon="0.14815">
        <ele>1959.8</ele>
        <time>2015-10-11T11:25:51Z</time>
      </trkpt>
      <trkpt lat="42.66521" lon="0.1483">
        <ele>1955.9</ele>
        <time>2015-10-11T11:25:54Z</time>
      </trkpt>
      <trkpt lat="42.66506" lon="0.14852">
        <ele>1952.1</ele>
        <time>2015-10-11T11:25:58Z</time>
      </trkpt>
      <trkpt lat="42.66497" lon="0.14858">
        <ele>1950.7</ele>
        <time>2015-10-11T11:26:00Z</time>
      </trkpt>
      <trkpt lat="42.66482" lon="0.14862">
        <ele>1950.2</ele>
        <time>2015-10-11T11:26:03Z</time>
      </trkpt>
      <trkpt lat="42.66455" lon="0.14877">
        <ele>1943</ele>
        <time>2015-10-11T11:26:08Z</time>
      </trkpt>
      <trkpt lat="42.66444" lon="0.14901">
        <ele>1938.2</ele>
        <time>2015-10-11T11:26:11Z</time>
      </trkpt>
      <trkpt lat="42.66442" lon="0.14913">
        <ele>1936.2</ele>
        <time>2015-10-11T11:26:12Z</time>
      </trkpt>
      <trkpt lat="42.66436" lon="0.14974">
        <ele>1929.5</ele>
        <time>2015-10-11T11:26:17Z</time>
      </trkpt>
      <trkpt lat="42.66429" lon="0.15">
        <ele>1929</ele>
        <time>2015-10-11T11:26:20Z</time>
      </trkpt>
      <trkpt lat="42.66422" lon="0.15027">
        <ele>1926.6</ele>
        <time>2015-10-11T11:26:24Z</time>
      </trkpt>
      <trkpt lat="42.66411" lon="0.15075">
        <ele>1921.8</ele>
        <time>2015-10-11T11:26:29Z</time>
      </trkpt>
      <trkpt lat="42.66404" lon="0.15107">
        <ele>1919.4</ele>
        <time>2015-10-11T11:26:32Z</time>
      </trkpt>
      <trkpt lat="42.66396" lon="0.15132">
        <ele>1915.6</ele>
        <time>2015-10-11T11:26:35Z</time>
      </trkpt>
      <trkpt lat="42.66378" lon="0.15168">
        <ele>1909.3</ele>
        <time>2015-10-11T11:26:40Z</time>
      </trkpt>
      <trkpt lat="42.66366" lon="0.15189">
        <ele>1905.5</ele>
        <time>2015-10-11T11:26:43Z</time>
      </trkpt>
      <trkpt lat="42.66358" lon="0.15219">
        <ele>1900.2</ele>
        <time>2015-10-11T11:26:47Z</time>
      </trkpt>
      <trkpt lat="42.66358" lon="0.15242">
        <ele>1897.3</ele>
        <time>2015-10-11T11:26:50Z</time>
      </trkpt>
      <trkpt lat="42.6636" lon="0.15269">
        <ele>1895.4</ele>
        <time>2015-10-11T11:26:54Z</time>
      </trkpt>
      <trkpt lat="42.66362" lon="0.1528">
        <ele>1894.9</ele>
        <time>2015-10-11T11:26:56Z</time>
      </trkpt>
      <trkpt lat="42.66364" lon="0.1529">
        <ele>1894.4</ele>
        <time>2015-10-11T11:26:59Z</time>
      </trkpt>
      <trkpt lat="42.66369" lon="0.15305">
        <ele>1893</ele>
        <time>2015-10-11T11:27:03Z</time>
      </trkpt>
      <trkpt lat="42.66364" lon="0.15315">
        <ele>1889.6</ele>
        <time>2015-10-11T11:27:09Z</time>
      </trkpt>
      <trkpt lat="42.66364" lon="0.15313">
        <ele>1889.1</ele>
        <time>2015-10-11T11:27:26Z</time>
      </trkpt>
      <trkpt lat="42.66361" lon="0.15316">
        <ele>1888.2</ele>
        <time>2015-10-11T11:27:45Z</time>
      </trkpt>
      <trkpt lat="42.66355" lon="0.15325">
        <ele>1884.3</ele>
        <time>2015-10-11T11:27:48Z</time>
      </trkpt>
      <trkpt lat="42.6635" lon="0.15335">
        <ele>1881</ele>
        <time>2015-10-11T11:27:50Z</time>
      </trkpt>
      <trkpt lat="42.66344" lon="0.15356">
        <ele>1875.7</ele>
        <time>2015-10-11T11:27:54Z</time>
      </trkpt>
      <trkpt lat="42.66339" lon="0.15369">
        <ele>1872.8</ele>
        <time>2015-10-11T11:27:56Z</time>
      </trkpt>
      <trkpt lat="42.66337" lon="0.15378">
        <ele>1870.4</ele>
        <time>2015-10-11T11:27:57Z</time>
      </trkpt>
      <trkpt lat="42.66331" lon="0.1541">
        <ele>1864.1</ele>
        <time>2015-10-11T11:28:00Z</time>
      </trkpt>
      <trkpt lat="42.66329" lon="0.15419">
        <ele>1861.7</ele>
        <time>2015-10-11T11:28:01Z</time>
      </trkpt>
      <trkpt lat="42.66321" lon="0.15434">
        <ele>1856.9</ele>
        <time>2015-10-11T11:28:03Z</time>
      </trkpt>
      <trkpt lat="42.66311" lon="0.15464">
        <ele>1848.8</ele>
        <time>2015-10-11T11:28:06Z</time>
      </trkpt>
      <trkpt lat="42.66305" lon="0.15489">
        <ele>1844.4</ele>
        <time>2015-10-11T11:28:08Z</time>
      </trkpt>
      <trkpt lat="42.66301" lon="0.15502">
        <ele>1843.5</ele>
        <time>2015-10-11T11:28:09Z</time>
      </trkpt>
      <trkpt lat="42.66292" lon="0.15532">
        <ele>1844.9</ele>
        <time>2015-10-11T11:28:12Z</time>
      </trkpt>
      <trkpt lat="42.66284" lon="0.15551">
        <ele>1845.9</ele>
        <time>2015-10-11T11:28:16Z</time>
      </trkpt>
      <trkpt lat="42.6628" lon="0.15568">
        <ele>1846.3</ele>
        <time>2015-10-11T11:28:20Z</time>
      </trkpt>
      <trkpt lat="42.66275" lon="0.15586">
        <ele>1843</ele>
        <time>2015-10-11T11:28:24Z</time>
      </trkpt>
      <trkpt lat="42.66268" lon="0.15597">
        <ele>1840.6</ele>
        <time>2015-10-11T11:28:26Z</time>
      </trkpt>
      <trkpt lat="42.6625" lon="0.15622">
        <ele>1833.4</ele>
        <time>2015-10-11T11:28:29Z</time>
      </trkpt>
      <trkpt lat="42.66243" lon="0.15631">
        <ele>1831</ele>
        <time>2015-10-11T11:28:30Z</time>
      </trkpt>
      <trkpt lat="42.66215" lon="0.15651">
        <ele>1824.7</ele>
        <time>2015-10-11T11:28:34Z</time>
      </trkpt>
      <trkpt lat="42.66194" lon="0.15669">
        <ele>1818.5</ele>
        <time>2015-10-11T11:28:38Z</time>
      </trkpt>
      <trkpt lat="42.66172" lon="0.15683">
        <ele>1815.1</ele>
        <time>2015-10-11T11:28:41Z</time>
      </trkpt>
      <trkpt lat="42.66165" lon="0.15686">
        <ele>1814.6</ele>
        <time>2015-10-11T11:28:42Z</time>
      </trkpt>
      <trkpt lat="42.66159" lon="0.15688">
        <ele>1814.6</ele>
        <time>2015-10-11T11:28:45Z</time>
      </trkpt>
      <trkpt lat="42.66158" lon="0.15687">
        <ele>1814.6</ele>
        <time>2015-10-11T11:28:51Z</time>
      </trkpt>
      <trkpt lat="42.66158" lon="0.15687">
        <ele>1814.6</ele>
        <time>2015-10-11T11:29:00Z</time>
      </trkpt>
      <trkpt lat="42.6615" lon="0.15681">
        <ele>1812.7</ele>
        <time>2015-10-11T11:29:04Z</time>
      </trkpt>
      <trkpt lat="42.66145" lon="0.15676">
        <ele>1810.8</ele>
        <time>2015-10-11T11:29:06Z</time>
      </trkpt>
      <trkpt lat="42.66137" lon="0.15666">
        <ele>1808.4</ele>
        <time>2015-10-11T11:29:10Z</time>
      </trkpt>
      <trkpt lat="42.66135" lon="0.15657">
        <ele>1806</ele>
        <time>2015-10-11T11:29:15Z</time>
      </trkpt>
      <trkpt lat="42.6613" lon="0.15666">
        <ele>1805</ele>
        <time>2015-10-11T11:29:18Z</time>
      </trkpt>
      <trkpt lat="42.66127" lon="0.1567">
        <ele>1804.5</ele>
        <time>2015-10-11T11:29:19Z</time>
      </trkpt>
      <trkpt lat="42.66125" lon="0.15673">
        <ele>1803.6</ele>
        <time>2015-10-11T11:29:20Z</time>
      </trkpt>
      <trkpt lat="42.66115" lon="0.15686">
        <ele>1802.6</ele>
        <time>2015-10-11T11:29:23Z</time>
      </trkpt>
      <trkpt lat="42.66114" lon="0.15688">
        <ele>1802.1</ele>
        <time>2015-10-11T11:29:27Z</time>
      </trkpt>
      <trkpt lat="42.66113" lon="0.15688">
        <ele>1802.6</ele>
        <time>2015-10-11T11:29:39Z</time>
      </trkpt>
      <trkpt lat="42.6611" lon="0.15691">
        <ele>1802.6</ele>
        <time>2015-10-11T11:29:42Z</time>
      </trkpt>
      <trkpt lat="42.6611" lon="0.15692">
        <ele>1802.6</ele>
        <time>2015-10-11T11:29:43Z</time>
      </trkpt>
      <trkpt lat="42.66108" lon="0.15693">
        <ele>1802.1</ele>
        <time>2015-10-11T11:29:44Z</time>
      </trkpt>
      <trkpt lat="42.66106" lon="0.15693">
        <ele>1802.1</ele>
        <time>2015-10-11T11:29:45Z</time>
      </trkpt>
      <trkpt lat="42.66103" lon="0.15692">
        <ele>1802.1</ele>
        <time>2015-10-11T11:29:46Z</time>
      </trkpt>
      <trkpt lat="42.66101" lon="0.1569">
        <ele>1801.2</ele>
        <time>2015-10-11T11:29:47Z</time>
      </trkpt>
      <trkpt lat="42.66099" lon="0.15687">
        <ele>1800.7</ele>
        <time>2015-10-11T11:29:48Z</time>
      </trkpt>
      <trkpt lat="42.66099" lon="0.15683">
        <ele>1800.7</ele>
        <time>2015-10-11T11:29:49Z</time>
      </trkpt>
      <trkpt lat="42.66099" lon="0.1568">
        <ele>1800.7</ele>
        <time>2015-10-11T11:29:50Z</time>
      </trkpt>
      <trkpt lat="42.661" lon="0.15677">
        <ele>1800.2</ele>
        <time>2015-10-11T11:29:51Z</time>
      </trkpt>
      <trkpt lat="42.66101" lon="0.15674">
        <ele>1799.7</ele>
        <time>2015-10-11T11:29:52Z</time>
      </trkpt>
      <trkpt lat="42.66102" lon="0.15671">
        <ele>1799.2</ele>
        <time>2015-10-11T11:29:53Z</time>
      </trkpt>
      <trkpt lat="42.66104" lon="0.15666">
        <ele>1798.8</ele>
        <time>2015-10-11T11:29:54Z</time>
      </trkpt>
      <trkpt lat="42.66105" lon="0.15662">
        <ele>1798.8</ele>
        <time>2015-10-11T11:29:55Z</time>
      </trkpt>
      <trkpt lat="42.66105" lon="0.15657">
        <ele>1798.3</ele>
        <time>2015-10-11T11:29:56Z</time>
      </trkpt>
      <trkpt lat="42.66105" lon="0.15653">
        <ele>1797.3</ele>
        <time>2015-10-11T11:29:57Z</time>
      </trkpt>
      <trkpt lat="42.66105" lon="0.1564">
        <ele>1795.4</ele>
        <time>2015-10-11T11:29:59Z</time>
      </trkpt>
      <trkpt lat="42.66106" lon="0.15633">
        <ele>1794.4</ele>
        <time>2015-10-11T11:30:00Z</time>
      </trkpt>
      <trkpt lat="42.66107" lon="0.15625">
        <ele>1794</ele>
        <time>2015-10-11T11:30:01Z</time>
      </trkpt>
      <trkpt lat="42.66109" lon="0.15617">
        <ele>1792.5</ele>
        <time>2015-10-11T11:30:02Z</time>
      </trkpt>
      <trkpt lat="42.66111" lon="0.15609">
        <ele>1791.6</ele>
        <time>2015-10-11T11:30:03Z</time>
      </trkpt>
      <trkpt lat="42.66112" lon="0.15601">
        <ele>1790.6</ele>
        <time>2015-10-11T11:30:04Z</time>
      </trkpt>
      <trkpt lat="42.66115" lon="0.15574">
        <ele>1787.2</ele>
        <time>2015-10-11T11:30:07Z</time>
      </trkpt>
      <trkpt lat="42.66116" lon="0.15567">
        <ele>1785.8</ele>
        <time>2015-10-11T11:30:08Z</time>
      </trkpt>
      <trkpt lat="42.66116" lon="0.15558">
        <ele>1784.8</ele>
        <time>2015-10-11T11:30:09Z</time>
      </trkpt>
      <trkpt lat="42.66116" lon="0.1555">
        <ele>1783.4</ele>
        <time>2015-10-11T11:30:10Z</time>
      </trkpt>
      <trkpt lat="42.66116" lon="0.15543">
        <ele>1781.9</ele>
        <time>2015-10-11T11:30:11Z</time>
      </trkpt>
      <trkpt lat="42.66115" lon="0.15537">
        <ele>1781</ele>
        <time>2015-10-11T11:30:12Z</time>
      </trkpt>
      <trkpt lat="42.66114" lon="0.15517">
        <ele>1778.6</ele>
        <time>2015-10-11T11:30:16Z</time>
      </trkpt>
      <trkpt lat="42.66114" lon="0.15513">
        <ele>1777.6</ele>
        <time>2015-10-11T11:30:17Z</time>
      </trkpt>
      <trkpt lat="42.66113" lon="0.15496">
        <ele>1775.2</ele>
        <time>2015-10-11T11:30:21Z</time>
      </trkpt>
      <trkpt lat="42.66113" lon="0.15479">
        <ele>1773.3</ele>
        <time>2015-10-11T11:30:24Z</time>
      </trkpt>
      <trkpt lat="42.66112" lon="0.15474">
        <ele>1772.3</ele>
        <time>2015-10-11T11:30:25Z</time>
      </trkpt>
      <trkpt lat="42.66112" lon="0.15471">
        <ele>1771.8</ele>
        <time>2015-10-11T11:30:26Z</time>
      </trkpt>
      <trkpt lat="42.66112" lon="0.15468">
        <ele>1771.4</ele>
        <time>2015-10-11T11:30:27Z</time>
      </trkpt>
      <trkpt lat="42.66112" lon="0.15465">
        <ele>1771.4</ele>
        <time>2015-10-11T11:30:28Z</time>
      </trkpt>
      <trkpt lat="42.66111" lon="0.15461">
        <ele>1770.9</ele>
        <time>2015-10-11T11:30:29Z</time>
      </trkpt>
      <trkpt lat="42.66109" lon="0.15446">
        <ele>1769.4</ele>
        <time>2015-10-11T11:30:32Z</time>
      </trkpt>
      <trkpt lat="42.66105" lon="0.15425">
        <ele>1767.5</ele>
        <time>2015-10-11T11:30:35Z</time>
      </trkpt>
      <trkpt lat="42.66103" lon="0.15416">
        <ele>1765.6</ele>
        <time>2015-10-11T11:30:36Z</time>
      </trkpt>
      <trkpt lat="42.661" lon="0.15408">
        <ele>1764.6</ele>
        <time>2015-10-11T11:30:37Z</time>
      </trkpt>
      <trkpt lat="42.66096" lon="0.15395">
        <ele>1762.2</ele>
        <time>2015-10-11T11:30:39Z</time>
      </trkpt>
      <trkpt lat="42.66095" lon="0.15387">
        <ele>1760.8</ele>
        <time>2015-10-11T11:30:40Z</time>
      </trkpt>
      <trkpt lat="42.66094" lon="0.1537">
        <ele>1759.3</ele>
        <time>2015-10-11T11:30:42Z</time>
      </trkpt>
      <trkpt lat="42.66093" lon="0.15361">
        <ele>1757.9</ele>
        <time>2015-10-11T11:30:43Z</time>
      </trkpt>
      <trkpt lat="42.66093" lon="0.15343">
        <ele>1755.5</ele>
        <time>2015-10-11T11:30:46Z</time>
      </trkpt>
      <trkpt lat="42.66093" lon="0.15334">
        <ele>1753.6</ele>
        <time>2015-10-11T11:30:50Z</time>
      </trkpt>
      <trkpt lat="42.66093" lon="0.15326">
        <ele>1753.1</ele>
        <time>2015-10-11T11:30:53Z</time>
      </trkpt>
      <trkpt lat="42.66094" lon="0.15323">
        <ele>1752.6</ele>
        <time>2015-10-11T11:30:59Z</time>
      </trkpt>
      <trkpt lat="42.66093" lon="0.15318">
        <ele>1752.6</ele>
        <time>2015-10-11T11:31:05Z</time>
      </trkpt>
      <trkpt lat="42.66092" lon="0.15313">
        <ele>1752.1</ele>
        <time>2015-10-11T11:31:12Z</time>
      </trkpt>
      <trkpt lat="42.66091" lon="0.15305">
        <ele>1750.7</ele>
        <time>2015-10-11T11:31:17Z</time>
      </trkpt>
      <trkpt lat="42.66092" lon="0.15299">
        <ele>1749.7</ele>
        <time>2015-10-11T11:31:24Z</time>
      </trkpt>
      <trkpt lat="42.66091" lon="0.15296">
        <ele>1748.8</ele>
        <time>2015-10-11T11:31:28Z</time>
      </trkpt>
      <trkpt lat="42.6609" lon="0.15293">
        <ele>1748.8</ele>
        <time>2015-10-11T11:31:29Z</time>
      </trkpt>
      <trkpt lat="42.66084" lon="0.15282">
        <ele>1745.9</ele>
        <time>2015-10-11T11:31:32Z</time>
      </trkpt>
      <trkpt lat="42.66084" lon="0.15269">
        <ele>1744</ele>
        <time>2015-10-11T11:31:35Z</time>
      </trkpt>
      <trkpt lat="42.66077" lon="0.15255">
        <ele>1741.1</ele>
        <time>2015-10-11T11:31:39Z</time>
      </trkpt>
      <trkpt lat="42.66074" lon="0.15252">
        <ele>1740.6</ele>
        <time>2015-10-11T11:31:40Z</time>
      </trkpt>
      <trkpt lat="42.66057" lon="0.15226">
        <ele>1735.3</ele>
        <time>2015-10-11T11:31:46Z</time>
      </trkpt>
      <trkpt lat="42.66054" lon="0.1522">
        <ele>1734.4</ele>
        <time>2015-10-11T11:31:47Z</time>
      </trkpt>
      <trkpt lat="42.66039" lon="0.15196">
        <ele>1729.1</ele>
        <time>2015-10-11T11:31:51Z</time>
      </trkpt>
      <trkpt lat="42.66032" lon="0.15183">
        <ele>1725.7</ele>
        <time>2015-10-11T11:31:53Z</time>
      </trkpt>
      <trkpt lat="42.66027" lon="0.15166">
        <ele>1721.9</ele>
        <time>2015-10-11T11:31:56Z</time>
      </trkpt>
      <trkpt lat="42.66025" lon="0.15158">
        <ele>1721.4</ele>
        <time>2015-10-11T11:31:57Z</time>
      </trkpt>
      <trkpt lat="42.66009" lon="0.15111">
        <ele>1716.1</ele>
        <time>2015-10-11T11:32:03Z</time>
      </trkpt>
      <trkpt lat="42.66005" lon="0.15102">
        <ele>1714.2</ele>
        <time>2015-10-11T11:32:04Z</time>
      </trkpt>
      <trkpt lat="42.65998" lon="0.15072">
        <ele>1709.4</ele>
        <time>2015-10-11T11:32:07Z</time>
      </trkpt>
      <trkpt lat="42.65996" lon="0.15055">
        <ele>1707</ele>
        <time>2015-10-11T11:32:09Z</time>
      </trkpt>
      <trkpt lat="42.65996" lon="0.15049">
        <ele>1705.5</ele>
        <time>2015-10-11T11:32:10Z</time>
      </trkpt>
      <trkpt lat="42.65996" lon="0.15041">
        <ele>1705</ele>
        <time>2015-10-11T11:32:12Z</time>
      </trkpt>
      <trkpt lat="42.65996" lon="0.15039">
        <ele>1705</ele>
        <time>2015-10-11T11:32:13Z</time>
      </trkpt>
      <trkpt lat="42.6599" lon="0.15028">
        <ele>1702.6</ele>
        <time>2015-10-11T11:32:19Z</time>
      </trkpt>
      <trkpt lat="42.65986" lon="0.1502">
        <ele>1700.7</ele>
        <time>2015-10-11T11:32:27Z</time>
      </trkpt>
      <trkpt lat="42.65985" lon="0.15016">
        <ele>1700.7</ele>
        <time>2015-10-11T11:32:39Z</time>
      </trkpt>
      <trkpt lat="42.65984" lon="0.15013">
        <ele>1700.2</ele>
        <time>2015-10-11T11:33:00Z</time>
      </trkpt>
      <trkpt lat="42.65977" lon="0.15003">
        <ele>1698.3</ele>
        <time>2015-10-11T11:33:06Z</time>
      </trkpt>
      <trkpt lat="42.6597" lon="0.14989">
        <ele>1694</ele>
        <time>2015-10-11T11:33:10Z</time>
      </trkpt>
      <trkpt lat="42.65967" lon="0.14988">
        <ele>1693</ele>
        <time>2015-10-11T11:33:11Z</time>
      </trkpt>
      <trkpt lat="42.6596" lon="0.14987">
        <ele>1691.6</ele>
        <time>2015-10-11T11:33:13Z</time>
      </trkpt>
      <trkpt lat="42.65956" lon="0.14988">
        <ele>1690.6</ele>
        <time>2015-10-11T11:33:15Z</time>
      </trkpt>
      <trkpt lat="42.65954" lon="0.14989">
        <ele>1690.6</ele>
        <time>2015-10-11T11:33:16Z</time>
      </trkpt>
      <trkpt lat="42.6595" lon="0.1499">
        <ele>1690.1</ele>
        <time>2015-10-11T11:33:17Z</time>
      </trkpt>
      <trkpt lat="42.65946" lon="0.14991">
        <ele>1689.2</ele>
        <time>2015-10-11T11:33:18Z</time>
      </trkpt>
      <trkpt lat="42.65941" lon="0.1499">
        <ele>1687.7</ele>
        <time>2015-10-11T11:33:19Z</time>
      </trkpt>
      <trkpt lat="42.65937" lon="0.14992">
        <ele>1686.8</ele>
        <time>2015-10-11T11:33:20Z</time>
      </trkpt>
      <trkpt lat="42.65933" lon="0.14994">
        <ele>1686.3</ele>
        <time>2015-10-11T11:33:21Z</time>
      </trkpt>
      <trkpt lat="42.6593" lon="0.14995">
        <ele>1685.3</ele>
        <time>2015-10-11T11:33:22Z</time>
      </trkpt>
      <trkpt lat="42.65927" lon="0.14995">
        <ele>1684.8</ele>
        <time>2015-10-11T11:33:23Z</time>
      </trkpt>
      <trkpt lat="42.65924" lon="0.14996">
        <ele>1683.9</ele>
        <time>2015-10-11T11:33:24Z</time>
      </trkpt>
      <trkpt lat="42.65923" lon="0.14997">
        <ele>1683.4</ele>
        <time>2015-10-11T11:33:25Z</time>
      </trkpt>
      <trkpt lat="42.65921" lon="0.14998">
        <ele>1682.9</ele>
        <time>2015-10-11T11:33:30Z</time>
      </trkpt>
      <trkpt lat="42.6592" lon="0.14999">
        <ele>1682.9</ele>
        <time>2015-10-11T11:33:41Z</time>
      </trkpt>
      <trkpt lat="42.65919" lon="0.14999">
        <ele>1682</ele>
        <time>2015-10-11T11:33:51Z</time>
      </trkpt>
      <trkpt lat="42.65916" lon="0.15">
        <ele>1681.5</ele>
        <time>2015-10-11T11:33:58Z</time>
      </trkpt>
      <trkpt lat="42.65915" lon="0.14999">
        <ele>1681.5</ele>
        <time>2015-10-11T11:34:11Z</time>
      </trkpt>
      <trkpt lat="42.65911" lon="0.15001">
        <ele>1680</ele>
        <time>2015-10-11T11:34:21Z</time>
      </trkpt>
      <trkpt lat="42.65906" lon="0.15006">
        <ele>1677.6</ele>
        <time>2015-10-11T11:34:25Z</time>
      </trkpt>
      <trkpt lat="42.65905" lon="0.15008">
        <ele>1676.7</ele>
        <time>2015-10-11T11:34:26Z</time>
      </trkpt>
      <trkpt lat="42.65897" lon="0.15017">
        <ele>1672.8</ele>
        <time>2015-10-11T11:34:30Z</time>
      </trkpt>
      <trkpt lat="42.65895" lon="0.15018">
        <ele>1672.8</ele>
        <time>2015-10-11T11:34:31Z</time>
      </trkpt>
      <trkpt lat="42.65887" lon="0.15023">
        <ele>1668.5</ele>
        <time>2015-10-11T11:34:34Z</time>
      </trkpt>
      <trkpt lat="42.65881" lon="0.1501">
        <ele>1664.2</ele>
        <time>2015-10-11T11:34:39Z</time>
      </trkpt>
      <trkpt lat="42.65869" lon="0.15014">
        <ele>1659.8</ele>
        <time>2015-10-11T11:34:43Z</time>
      </trkpt>
      <trkpt lat="42.65865" lon="0.15021">
        <ele>1658.4</ele>
        <time>2015-10-11T11:34:44Z</time>
      </trkpt>
      <trkpt lat="42.65863" lon="0.15027">
        <ele>1657.4</ele>
        <time>2015-10-11T11:34:45Z</time>
      </trkpt>
      <trkpt lat="42.65861" lon="0.15033">
        <ele>1657</ele>
        <time>2015-10-11T11:34:46Z</time>
      </trkpt>
      <trkpt lat="42.6586" lon="0.1504">
        <ele>1656.5</ele>
        <time>2015-10-11T11:34:47Z</time>
      </trkpt>
      <trkpt lat="42.65861" lon="0.15047">
        <ele>1656</ele>
        <time>2015-10-11T11:34:48Z</time>
      </trkpt>
      <trkpt lat="42.65862" lon="0.15053">
        <ele>1654.1</ele>
        <time>2015-10-11T11:34:49Z</time>
      </trkpt>
      <trkpt lat="42.65862" lon="0.1506">
        <ele>1652.2</ele>
        <time>2015-10-11T11:34:50Z</time>
      </trkpt>
      <trkpt lat="42.65862" lon="0.15068">
        <ele>1651.2</ele>
        <time>2015-10-11T11:34:51Z</time>
      </trkpt>
      <trkpt lat="42.65864" lon="0.15073">
        <ele>1650.2</ele>
        <time>2015-10-11T11:34:52Z</time>
      </trkpt>
      <trkpt lat="42.65866" lon="0.15079">
        <ele>1649.3</ele>
        <time>2015-10-11T11:34:53Z</time>
      </trkpt>
      <trkpt lat="42.65868" lon="0.15086">
        <ele>1647.8</ele>
        <time>2015-10-11T11:34:54Z</time>
      </trkpt>
      <trkpt lat="42.65869" lon="0.15093">
        <ele>1646.4</ele>
        <time>2015-10-11T11:34:55Z</time>
      </trkpt>
      <trkpt lat="42.65869" lon="0.15098">
        <ele>1645.9</ele>
        <time>2015-10-11T11:34:56Z</time>
      </trkpt>
      <trkpt lat="42.6587" lon="0.15101">
        <ele>1645.9</ele>
        <time>2015-10-11T11:34:57Z</time>
      </trkpt>
      <trkpt lat="42.6587" lon="0.15105">
        <ele>1644.9</ele>
        <time>2015-10-11T11:34:58Z</time>
      </trkpt>
      <trkpt lat="42.6587" lon="0.15107">
        <ele>1644.5</ele>
        <time>2015-10-11T11:34:59Z</time>
      </trkpt>
      <trkpt lat="42.65869" lon="0.15108">
        <ele>1643.5</ele>
        <time>2015-10-11T11:35:00Z</time>
      </trkpt>
      <trkpt lat="42.65868" lon="0.15112">
        <ele>1642.6</ele>
        <time>2015-10-11T11:35:01Z</time>
      </trkpt>
      <trkpt lat="42.65864" lon="0.15113">
        <ele>1640.2</ele>
        <time>2015-10-11T11:35:03Z</time>
      </trkpt>
      <trkpt lat="42.65858" lon="0.15107">
        <ele>1638.2</ele>
        <time>2015-10-11T11:35:06Z</time>
      </trkpt>
      <trkpt lat="42.65853" lon="0.15104">
        <ele>1637.3</ele>
        <time>2015-10-11T11:35:12Z</time>
      </trkpt>
      <trkpt lat="42.65852" lon="0.15105">
        <ele>1637.3</ele>
        <time>2015-10-11T11:35:14Z</time>
      </trkpt>
      <trkpt lat="42.65851" lon="0.15111">
        <ele>1636.8</ele>
        <time>2015-10-11T11:35:20Z</time>
      </trkpt>
      <trkpt lat="42.65848" lon="0.15117">
        <ele>1636.8</ele>
        <time>2015-10-11T11:35:34Z</time>
      </trkpt>
      <trkpt lat="42.65848" lon="0.15117">
        <ele>1639.2</ele>
        <time>2019-07-21T11:13:24Z</time>
      </trkpt>
      <trkpt lat="42.65856" lon="0.15139">
        <ele>1638.7</ele>
        <time>2019-07-21T11:13:35Z</time>
      </trkpt>
      <trkpt lat="42.65866" lon="0.15156">
        <ele>1637.3</ele>
        <time>2019-07-21T11:13:38Z</time>
      </trkpt>
      <trkpt lat="42.65864" lon="0.15173">
        <ele>1633.4</ele>
        <time>2019-07-21T11:13:42Z</time>
      </trkpt>
      <trkpt lat="42.65861" lon="0.15178">
        <ele>1630.1</ele>
        <time>2019-07-21T11:13:45Z</time>
      </trkpt>
      <trkpt lat="42.65862" lon="0.15182">
        <ele>1629.1</ele>
        <time>2019-07-21T11:13:47Z</time>
      </trkpt>
      <trkpt lat="42.65864" lon="0.15187">
        <ele>1628.1</ele>
        <time>2019-07-21T11:13:59Z</time>
      </trkpt>
      <trkpt lat="42.65864" lon="0.15187">
        <ele>1628.1</ele>
        <time>2019-07-21T11:14:00Z</time>
      </trkpt>
      <trkpt lat="42.65863" lon="0.15189">
        <ele>1628.1</ele>
        <time>2019-07-21T11:14:02Z</time>
      </trkpt>
      <trkpt lat="42.65867" lon="0.15204">
        <ele>1627.2</ele>
        <time>2019-07-21T11:14:08Z</time>
      </trkpt>
      <trkpt lat="42.65863" lon="0.15216">
        <ele>1622.4</ele>
        <time>2019-07-21T11:14:13Z</time>
      </trkpt>
      <trkpt lat="42.65858" lon="0.15222">
        <ele>1620.4</ele>
        <time>2019-07-21T11:14:16Z</time>
      </trkpt>
      <trkpt lat="42.65853" lon="0.15227">
        <ele>1619.5</ele>
        <time>2019-07-21T11:14:18Z</time>
      </trkpt>
      <trkpt lat="42.65851" lon="0.15228">
        <ele>1618.5</ele>
        <time>2019-07-21T11:14:28Z</time>
      </trkpt>
      <trkpt lat="42.65843" lon="0.15246">
        <ele>1618.5</ele>
        <time>2019-07-21T11:14:34Z</time>
      </trkpt>
      <trkpt lat="42.65828" lon="0.15256">
        <ele>1615.6</ele>
        <time>2019-07-21T11:14:40Z</time>
      </trkpt>
      <trkpt lat="42.6582" lon="0.1526">
        <ele>1611.8</ele>
        <time>2019-07-21T11:14:43Z</time>
      </trkpt>
      <trkpt lat="42.65816" lon="0.15264">
        <ele>1608.9</ele>
        <time>2019-07-21T11:14:45Z</time>
      </trkpt>
      <trkpt lat="42.65814" lon="0.15268">
        <ele>1605.5</ele>
        <time>2019-07-21T11:14:47Z</time>
      </trkpt>
      <trkpt lat="42.65806" lon="0.1527">
        <ele>1601.2</ele>
        <time>2019-07-21T11:14:52Z</time>
      </trkpt>
      <trkpt lat="42.65803" lon="0.1527">
        <ele>1600.7</ele>
        <time>2019-07-21T11:14:54Z</time>
      </trkpt>
      <trkpt lat="42.65797" lon="0.15267">
        <ele>1600.7</ele>
        <time>2019-07-21T11:14:58Z</time>
      </trkpt>
      <trkpt lat="42.6579" lon="0.15269">
        <ele>1600.2</ele>
        <time>2019-07-21T11:15:03Z</time>
      </trkpt>
      <trkpt lat="42.65784" lon="0.15266">
        <ele>1596.4</ele>
        <time>2019-07-21T11:15:07Z</time>
      </trkpt>
      <trkpt lat="42.65781" lon="0.15265">
        <ele>1592.6</ele>
        <time>2019-07-21T11:15:10Z</time>
      </trkpt>
      <trkpt lat="42.65781" lon="0.15266">
        <ele>1591.1</ele>
        <time>2019-07-21T11:15:12Z</time>
      </trkpt>
      <trkpt lat="42.65781" lon="0.15266">
        <ele>1589.7</ele>
        <time>2019-07-21T11:15:14Z</time>
      </trkpt>
      <trkpt lat="42.65781" lon="0.15266">
        <ele>1593</ele>
        <time>2019-07-21T11:15:22Z</time>
      </trkpt>
      <trkpt lat="42.65781" lon="0.15266">
        <ele>1593</ele>
        <time>2019-07-21T11:15:50Z</time>
      </trkpt>
      <trkpt lat="42.6578" lon="0.15265">
        <ele>1593</ele>
        <time>2019-07-21T11:16:03Z</time>
      </trkpt>
      <trkpt lat="42.65775" lon="0.15261">
        <ele>1591.6</ele>
        <time>2019-07-21T11:16:08Z</time>
      </trkpt>
      <trkpt lat="42.65773" lon="0.15262">
        <ele>1590.6</ele>
        <time>2019-07-21T11:16:10Z</time>
      </trkpt>
      <trkpt lat="42.6577" lon="0.15264">
        <ele>1588.7</ele>
        <time>2019-07-21T11:16:12Z</time>
      </trkpt>
      <trkpt lat="42.65764" lon="0.15264">
        <ele>1583.9</ele>
        <time>2019-07-21T11:16:16Z</time>
      </trkpt>
      <trkpt lat="42.65763" lon="0.15263">
        <ele>1580.5</ele>
        <time>2019-07-21T11:16:19Z</time>
      </trkpt>
      <trkpt lat="42.65763" lon="0.15262">
        <ele>1584.4</ele>
        <time>2019-07-21T11:16:30Z</time>
      </trkpt>
      <trkpt lat="42.65762" lon="0.15262">
        <ele>1584.9</ele>
        <time>2019-07-21T11:16:42Z</time>
      </trkpt>
      <trkpt lat="42.65755" lon="0.15268">
        <ele>1582.9</ele>
        <time>2019-07-21T11:16:46Z</time>
      </trkpt>
      <trkpt lat="42.65753" lon="0.15269">
        <ele>1583.4</ele>
        <time>2019-07-21T11:16:47Z</time>
      </trkpt>
      <trkpt lat="42.6573" lon="0.15292">
        <ele>1580.1</ele>
        <time>2019-07-21T11:16:57Z</time>
      </trkpt>
      <trkpt lat="42.65727" lon="0.153">
        <ele>1577.7</ele>
        <time>2019-07-21T11:16:59Z</time>
      </trkpt>
      <trkpt lat="42.65722" lon="0.15318">
        <ele>1572.4</ele>
        <time>2019-07-21T11:17:03Z</time>
      </trkpt>
      <trkpt lat="42.65717" lon="0.15332">
        <ele>1569.5</ele>
        <time>2019-07-21T11:17:06Z</time>
      </trkpt>
      <trkpt lat="42.65713" lon="0.15352">
        <ele>1565.6</ele>
        <time>2019-07-21T11:17:13Z</time>
      </trkpt>
      <trkpt lat="42.65713" lon="0.15353">
        <ele>1566.1</ele>
        <time>2019-07-21T11:17:30Z</time>
      </trkpt>
      <trkpt lat="42.65715" lon="0.15358">
        <ele>1567.1</ele>
        <time>2019-07-21T11:17:37Z</time>
      </trkpt>
      <trkpt lat="42.65715" lon="0.15364">
        <ele>1567.1</ele>
        <time>2019-07-21T11:17:49Z</time>
      </trkpt>
      <trkpt lat="42.65716" lon="0.15375">
        <ele>1565.6</ele>
        <time>2019-07-21T11:18:01Z</time>
      </trkpt>
      <trkpt lat="42.65716" lon="0.15377">
        <ele>1565.2</ele>
        <time>2019-07-21T11:18:02Z</time>
      </trkpt>
      <trkpt lat="42.65712" lon="0.15387">
        <ele>1561.3</ele>
        <time>2019-07-21T11:18:07Z</time>
      </trkpt>
      <trkpt lat="42.6571" lon="0.15392">
        <ele>1557.9</ele>
        <time>2019-07-21T11:18:09Z</time>
      </trkpt>
      <trkpt lat="42.65709" lon="0.15399">
        <ele>1554.6</ele>
        <time>2019-07-21T11:18:11Z</time>
      </trkpt>
      <trkpt lat="42.65707" lon="0.15405">
        <ele>1551.7</ele>
        <time>2019-07-21T11:18:13Z</time>
      </trkpt>
      <trkpt lat="42.65701" lon="0.15413">
        <ele>1548.3</ele>
        <time>2019-07-21T11:18:18Z</time>
      </trkpt>
      <trkpt lat="42.65697" lon="0.15427">
        <ele>1548.8</ele>
        <time>2019-07-21T11:18:24Z</time>
      </trkpt>
      <trkpt lat="42.65695" lon="0.15437">
        <ele>1548.3</ele>
        <time>2019-07-21T11:18:27Z</time>
      </trkpt>
      <trkpt lat="42.6569" lon="0.15445">
        <ele>1544</ele>
        <time>2019-07-21T11:18:32Z</time>
      </trkpt>
      <trkpt lat="42.65684" lon="0.15442">
        <ele>1538.7</ele>
        <time>2019-07-21T11:18:36Z</time>
      </trkpt>
      <trkpt lat="42.65678" lon="0.15434">
        <ele>1535.8</ele>
        <time>2019-07-21T11:18:40Z</time>
      </trkpt>
      <trkpt lat="42.65664" lon="0.15418">
        <ele>1533</ele>
        <time>2019-07-21T11:18:46Z</time>
      </trkpt>
      <trkpt lat="42.65653" lon="0.1541">
        <ele>1529.1</ele>
        <time>2019-07-21T11:18:50Z</time>
      </trkpt>
      <trkpt lat="42.65646" lon="0.15409">
        <ele>1525.8</ele>
        <time>2019-07-21T11:18:53Z</time>
      </trkpt>
      <trkpt lat="42.65639" lon="0.15405">
        <ele>1522.4</ele>
        <time>2019-07-21T11:18:56Z</time>
      </trkpt>
      <trkpt lat="42.65625" lon="0.15394">
        <ele>1519</ele>
        <time>2019-07-21T11:19:02Z</time>
      </trkpt>
      <trkpt lat="42.65607" lon="0.15394">
        <ele>1518.5</ele>
        <time>2019-07-21T11:19:13Z</time>
      </trkpt>
      <trkpt lat="42.65602" lon="0.15396">
        <ele>1518.5</ele>
        <time>2019-07-21T11:19:17Z</time>
      </trkpt>
      <trkpt lat="42.65569" lon="0.15426">
        <ele>1518.5</ele>
        <time>2019-07-21T11:19:35Z</time>
      </trkpt>
      <trkpt lat="42.65535" lon="0.15449">
        <ele>1518.1</ele>
        <time>2019-07-21T11:19:50Z</time>
      </trkpt>
      <trkpt lat="42.65521" lon="0.1546">
        <ele>1514.2</ele>
        <time>2019-07-21T11:19:56Z</time>
      </trkpt>
      <trkpt lat="42.65514" lon="0.15461">
        <ele>1508.4</ele>
        <time>2019-07-21T11:20:00Z</time>
      </trkpt>
      <trkpt lat="42.65514" lon="0.15461">
        <ele>1505.1</ele>
        <time>2019-07-21T11:20:04Z</time>
      </trkpt>
      <trkpt lat="42.65513" lon="0.15462">
        <ele>1508.9</ele>
        <time>2019-07-21T11:20:11Z</time>
      </trkpt>
      <trkpt lat="42.65511" lon="0.15463">
        <ele>1509.4</ele>
        <time>2019-07-21T11:20:23Z</time>
      </trkpt>
      <trkpt lat="42.65508" lon="0.15464">
        <ele>1508.9</ele>
        <time>2019-07-21T11:20:29Z</time>
      </trkpt>
      <trkpt lat="42.65501" lon="0.15465">
        <ele>1506.5</ele>
        <time>2019-07-21T11:20:33Z</time>
      </trkpt>
      <trkpt lat="42.65495" lon="0.15471">
        <ele>1501.2</ele>
        <time>2019-07-21T11:20:37Z</time>
      </trkpt>
      <trkpt lat="42.65487" lon="0.15474">
        <ele>1496.4</ele>
        <time>2019-07-21T11:20:41Z</time>
      </trkpt>
      <trkpt lat="42.65477" lon="0.15488">
        <ele>1491.6</ele>
        <time>2019-07-21T11:20:46Z</time>
      </trkpt>
      <trkpt lat="42.65476" lon="0.15493">
        <ele>1491.1</ele>
        <time>2019-07-21T11:20:47Z</time>
      </trkpt>
      <trkpt lat="42.6547" lon="0.15517">
        <ele>1486.8</ele>
        <time>2019-07-21T11:20:53Z</time>
      </trkpt>
      <trkpt lat="42.65465" lon="0.15534">
        <ele>1483.4</ele>
        <time>2019-07-21T11:20:58Z</time>
      </trkpt>
      <trkpt lat="42.65463" lon="0.15541">
        <ele>1481.5</ele>
        <time>2019-07-21T11:21:00Z</time>
      </trkpt>
      <trkpt lat="42.65458" lon="0.15556">
        <ele>1477.7</ele>
        <time>2019-07-21T11:21:04Z</time>
      </trkpt>
      <trkpt lat="42.65454" lon="0.15571">
        <ele>1474.3</ele>
        <time>2019-07-21T11:21:07Z</time>
      </trkpt>
      <trkpt lat="42.65449" lon="0.15582">
        <ele>1470.9</ele>
        <time>2019-07-21T11:21:10Z</time>
      </trkpt>
      <trkpt lat="42.65439" lon="0.15581">
        <ele>1466.2</ele>
        <time>2019-07-21T11:21:14Z</time>
      </trkpt>
      <trkpt lat="42.65426" lon="0.15575">
        <ele>1462.8</ele>
        <time>2019-07-21T11:21:18Z</time>
      </trkpt>
      <trkpt lat="42.65423" lon="0.15574">
        <ele>1462.3</ele>
        <time>2019-07-21T11:21:19Z</time>
      </trkpt>
      <trkpt lat="42.65399" lon="0.15599">
        <ele>1460.4</ele>
        <time>2019-07-21T11:21:27Z</time>
      </trkpt>
      <trkpt lat="42.65382" lon="0.15607">
        <ele>1459.4</ele>
        <time>2019-07-21T11:21:31Z</time>
      </trkpt>
      <trkpt lat="42.65367" lon="0.15608">
        <ele>1458.5</ele>
        <time>2019-07-21T11:21:37Z</time>
      </trkpt>
      <trkpt lat="42.65367" lon="0.15607">
        <ele>1450.8</ele>
        <time>2019-07-21T11:58:49Z</time>
      </trkpt>
      <trkpt lat="42.65373" lon="0.15585">
        <ele>1449.3</ele>
        <time>2019-07-21T11:58:58Z</time>
      </trkpt>
      <trkpt lat="42.65388" lon="0.15565">
        <ele>1446</ele>
        <time>2019-07-21T11:59:07Z</time>
      </trkpt>
      <trkpt lat="42.65389" lon="0.15564">
        <ele>1442.1</ele>
        <time>2019-07-21T11:59:13Z</time>
      </trkpt>
      <trkpt lat="42.65389" lon="0.15563">
        <ele>1444</ele>
        <time>2019-07-21T11:59:31Z</time>
      </trkpt>
      <trkpt lat="42.65389" lon="0.15563">
        <ele>1444</ele>
        <time>2019-07-21T11:59:53Z</time>
      </trkpt>
      <trkpt lat="42.65389" lon="0.15563">
        <ele>1444</ele>
        <time>2019-07-21T12:00:13Z</time>
      </trkpt>
      <trkpt lat="42.65389" lon="0.15563">
        <ele>1444</ele>
        <time>2019-07-21T12:00:33Z</time>
      </trkpt>
      <trkpt lat="42.65389" lon="0.15563">
        <ele>1444</ele>
        <time>2019-07-21T12:01:10Z</time>
      </trkpt>
      <trkpt lat="42.65389" lon="0.15562">
        <ele>1444</ele>
        <time>2019-07-21T12:01:59Z</time>
      </trkpt>
      <trkpt lat="42.65389" lon="0.15563">
        <ele>1444</ele>
        <time>2019-07-21T12:02:21Z</time>
      </trkpt>
      <trkpt lat="42.65389" lon="0.15562">
        <ele>1444</ele>
        <time>2019-07-21T12:02:36Z</time>
      </trkpt>
      <trkpt lat="42.6539" lon="0.15561">
        <ele>1444</ele>
        <time>2019-07-21T12:02:56Z</time>
      </trkpt>
      <trkpt lat="42.6539" lon="0.15561">
        <ele>1444</ele>
        <time>2019-07-21T12:03:16Z</time>
      </trkpt>
      <trkpt lat="42.6539" lon="0.15561">
        <ele>1444</ele>
        <time>2019-07-21T12:03:31Z</time>
      </trkpt>
      <trkpt lat="42.65394" lon="0.15532">
        <ele>1444.5</ele>
        <time>2019-07-21T12:03:41Z</time>
      </trkpt>
      <trkpt lat="42.65403" lon="0.15482">
        <ele>1447.4</ele>
        <time>2019-07-21T12:03:56Z</time>
      </trkpt>
      <trkpt lat="42.65423" lon="0.15423">
        <ele>1450.8</ele>
        <time>2019-07-21T12:04:14Z</time>
      </trkpt>
      <trkpt lat="42.65445" lon="0.15363">
        <ele>1453.7</ele>
        <time>2019-07-21T12:04:32Z</time>
      </trkpt>
      <trkpt lat="42.65456" lon="0.15344">
        <ele>1457</ele>
        <time>2019-07-21T12:04:39Z</time>
      </trkpt>
      <trkpt lat="42.6546" lon="0.15332">
        <ele>1460.4</ele>
        <time>2019-07-21T12:04:43Z</time>
      </trkpt>
      <trkpt lat="42.65463" lon="0.15317">
        <ele>1461.8</ele>
        <time>2019-07-21T12:04:48Z</time>
      </trkpt>
      <trkpt lat="42.65463" lon="0.15297">
        <ele>1461.3</ele>
        <time>2019-07-21T12:04:51Z</time>
      </trkpt>
      <trkpt lat="42.65462" lon="0.15282">
        <ele>1458</ele>
        <time>2019-07-21T12:04:54Z</time>
      </trkpt>
      <trkpt lat="42.6546" lon="0.15278">
        <ele>1454.6</ele>
        <time>2019-07-21T12:04:57Z</time>
      </trkpt>
      <trkpt lat="42.6546" lon="0.15279">
        <ele>1456.1</ele>
        <time>2019-07-21T12:05:06Z</time>
      </trkpt>
      <trkpt lat="42.65461" lon="0.15281">
        <ele>1457</ele>
        <time>2019-07-21T12:05:08Z</time>
      </trkpt>
      <trkpt lat="42.65461" lon="0.15284">
        <ele>1458</ele>
        <time>2019-07-21T12:05:17Z</time>
      </trkpt>
      <trkpt lat="42.6545" lon="0.15269">
        <ele>1458</ele>
        <time>2019-07-21T12:05:22Z</time>
      </trkpt>
      <trkpt lat="42.65448" lon="0.15265">
        <ele>1452.2</ele>
        <time>2019-07-21T12:08:23Z</time>
      </trkpt>
      <trkpt lat="42.65448" lon="0.15263">
        <ele>1452.7</ele>
        <time>2019-07-21T12:08:35Z</time>
      </trkpt>
      <trkpt lat="42.65448" lon="0.15257">
        <ele>1452.7</ele>
        <time>2019-07-21T12:08:49Z</time>
      </trkpt>
      <trkpt lat="42.65448" lon="0.15257">
        <ele>1451.2</ele>
        <time>2019-07-21T12:09:11Z</time>
      </trkpt>
      <trkpt lat="42.65448" lon="0.15257">
        <ele>1451.2</ele>
        <time>2019-07-21T12:09:43Z</time>
      </trkpt>
      <trkpt lat="42.65447" lon="0.15256">
        <ele>1451.2</ele>
        <time>2019-07-21T12:10:28Z</time>
      </trkpt>
      <trkpt lat="42.65447" lon="0.15256">
        <ele>1451.2</ele>
        <time>2019-07-21T12:11:08Z</time>
      </trkpt>
      <trkpt lat="42.65447" lon="0.15256">
        <ele>1450.8</ele>
        <time>2019-07-21T12:11:45Z</time>
      </trkpt>
      <trkpt lat="42.65447" lon="0.15256">
        <ele>1450.8</ele>
        <time>2019-07-21T12:12:02Z</time>
      </trkpt>
      <trkpt lat="42.65447" lon="0.15255">
        <ele>1450.3</ele>
        <time>2019-07-21T12:12:10Z</time>
      </trkpt>
      <trkpt lat="42.65454" lon="0.15223">
        <ele>1451.7</ele>
        <time>2019-07-21T12:12:25Z</time>
      </trkpt>
      <trkpt lat="42.65455" lon="0.15212">
        <ele>1452.2</ele>
        <time>2019-07-21T12:12:30Z</time>
      </trkpt>
      <trkpt lat="42.65477" lon="0.15195">
        <ele>1453.2</ele>
        <time>2019-07-21T12:12:41Z</time>
      </trkpt>
      <trkpt lat="42.65488" lon="0.15197">
        <ele>1453.2</ele>
        <time>2019-07-21T12:12:48Z</time>
      </trkpt>
      <trkpt lat="42.65488" lon="0.15194">
        <ele>1453.2</ele>
        <time>2019-07-21T12:12:58Z</time>
      </trkpt>
      <trkpt lat="42.65488" lon="0.15194">
        <ele>1453.2</ele>
        <time>2019-07-21T12:13:00Z</time>
      </trkpt>
      <trkpt lat="42.65484" lon="0.15183">
        <ele>1453.2</ele>
        <time>2019-07-21T12:13:05Z</time>
      </trkpt>
      <trkpt lat="42.65481" lon="0.15178">
        <ele>1451.7</ele>
        <time>2019-07-21T12:13:07Z</time>
      </trkpt>
      <trkpt lat="42.65478" lon="0.15176">
        <ele>1451.7</ele>
        <time>2019-07-21T12:13:09Z</time>
      </trkpt>
      <trkpt lat="42.65468" lon="0.15171">
        <ele>1446.9</ele>
        <time>2019-07-21T12:13:13Z</time>
      </trkpt>
      <trkpt lat="42.6546" lon="0.15167">
        <ele>1443.1</ele>
        <time>2019-07-21T12:13:16Z</time>
      </trkpt>
      <trkpt lat="42.6545" lon="0.15161">
        <ele>1439.7</ele>
        <time>2019-07-21T12:13:19Z</time>
      </trkpt>
      <trkpt lat="42.65439" lon="0.15147">
        <ele>1436.3</ele>
        <time>2019-07-21T12:13:23Z</time>
      </trkpt>
      <trkpt lat="42.65424" lon="0.15124">
        <ele>1433</ele>
        <time>2019-07-21T12:13:30Z</time>
      </trkpt>
      <trkpt lat="42.65409" lon="0.15101">
        <ele>1430.1</ele>
        <time>2019-07-21T12:13:37Z</time>
      </trkpt>
      <trkpt lat="42.65404" lon="0.15095">
        <ele>1426.2</ele>
        <time>2019-07-21T12:13:41Z</time>
      </trkpt>
      <trkpt lat="42.65404" lon="0.15095">
        <ele>1425.8</ele>
        <time>2019-07-21T12:13:42Z</time>
      </trkpt>
      <trkpt lat="42.65404" lon="0.15095">
        <ele>1425.3</ele>
        <time>2019-07-21T12:13:56Z</time>
      </trkpt>
      <trkpt lat="42.65404" lon="0.15094">
        <ele>1425.3</ele>
        <time>2019-07-21T12:14:09Z</time>
      </trkpt>
      <trkpt lat="42.65404" lon="0.15094">
        <ele>1425.8</ele>
        <time>2019-07-21T12:14:11Z</time>
      </trkpt>
      <trkpt lat="42.654" lon="0.15086">
        <ele>1425.8</ele>
        <time>2019-07-21T12:14:15Z</time>
      </trkpt>
      <trkpt lat="42.65394" lon="0.15081">
        <ele>1425.8</ele>
        <time>2019-07-21T12:14:18Z</time>
      </trkpt>
      <trkpt lat="42.6539" lon="0.15067">
        <ele>1425.8</ele>
        <time>2019-07-21T12:14:22Z</time>
      </trkpt>
      <trkpt lat="42.65381" lon="0.15047">
        <ele>1422.9</ele>
        <time>2019-07-21T12:14:26Z</time>
      </trkpt>
      <trkpt lat="42.65372" lon="0.15028">
        <ele>1417.1</ele>
        <time>2019-07-21T12:14:30Z</time>
      </trkpt>
      <trkpt lat="42.65371" lon="0.15024">
        <ele>1415.2</ele>
        <time>2019-07-21T12:14:31Z</time>
      </trkpt>
      <trkpt lat="42.65369" lon="0.15012">
        <ele>1412.3</ele>
        <time>2019-07-21T12:14:33Z</time>
      </trkpt>
      <trkpt lat="42.65369" lon="0.14991">
        <ele>1407</ele>
        <time>2019-07-21T12:14:37Z</time>
      </trkpt>
      <trkpt lat="42.65371" lon="0.14971">
        <ele>1405.1</ele>
        <time>2019-07-21T12:14:44Z</time>
      </trkpt>
      <trkpt lat="42.6537" lon="0.14969">
        <ele>1406.1</ele>
        <time>2019-07-21T12:14:45Z</time>
      </trkpt>
      <trkpt lat="42.6536" lon="0.14934">
        <ele>1409.9</ele>
        <time>2019-07-21T12:14:57Z</time>
      </trkpt>
      <trkpt lat="42.65354" lon="0.14902">
        <ele>1408.5</ele>
        <time>2019-07-21T12:15:07Z</time>
      </trkpt>
      <trkpt lat="42.65343" lon="0.14877">
        <ele>1404.1</ele>
        <time>2019-07-21T12:15:12Z</time>
      </trkpt>
      <trkpt lat="42.65338" lon="0.14863">
        <ele>1400.3</ele>
        <time>2019-07-21T12:15:15Z</time>
      </trkpt>
      <trkpt lat="42.65333" lon="0.14851">
        <ele>1398.9</ele>
        <time>2019-07-21T12:15:17Z</time>
      </trkpt>
      <trkpt lat="42.65328" lon="0.14834">
        <ele>1396.9</ele>
        <time>2019-07-21T12:15:20Z</time>
      </trkpt>
      <trkpt lat="42.65324" lon="0.14788">
        <ele>1396</ele>
        <time>2019-07-21T12:15:27Z</time>
      </trkpt>
      <trkpt lat="42.65326" lon="0.14762">
        <ele>1395.5</ele>
        <time>2019-07-21T12:15:32Z</time>
      </trkpt>
      <trkpt lat="42.65325" lon="0.14702">
        <ele>1393.6</ele>
        <time>2019-07-21T12:15:43Z</time>
      </trkpt>
      <trkpt lat="42.65322" lon="0.14682">
        <ele>1391.7</ele>
        <time>2019-07-21T12:15:47Z</time>
      </trkpt>
      <trkpt lat="42.65314" lon="0.14659">
        <ele>1386.8</ele>
        <time>2019-07-21T12:15:51Z</time>
      </trkpt>
      <trkpt lat="42.65313" lon="0.14653">
        <ele>1385.9</ele>
        <time>2019-07-21T12:15:52Z</time>
      </trkpt>
      <trkpt lat="42.65311" lon="0.14628">
        <ele>1381.1</ele>
        <time>2019-07-21T12:15:57Z</time>
      </trkpt>
      <trkpt lat="42.65309" lon="0.14618">
        <ele>1381.6</ele>
        <time>2019-07-21T12:15:59Z</time>
      </trkpt>
      <trkpt lat="42.65315" lon="0.14573">
        <ele>1381.1</ele>
        <time>2019-07-21T12:16:07Z</time>
      </trkpt>
      <trkpt lat="42.65324" lon="0.14548">
        <ele>1377.2</ele>
        <time>2019-07-21T12:16:11Z</time>
      </trkpt>
      <trkpt lat="42.65333" lon="0.14537">
        <ele>1374.3</ele>
        <time>2019-07-21T12:16:13Z</time>
      </trkpt>
      <trkpt lat="42.65341" lon="0.14526">
        <ele>1371</ele>
        <time>2019-07-21T12:16:15Z</time>
      </trkpt>
      <trkpt lat="42.65345" lon="0.14521">
        <ele>1369.1</ele>
        <time>2019-07-21T12:16:16Z</time>
      </trkpt>
      <trkpt lat="42.65355" lon="0.14506">
        <ele>1366.2</ele>
        <time>2019-07-21T12:16:19Z</time>
      </trkpt>
      <trkpt lat="42.65358" lon="0.14502">
        <ele>1364.2</ele>
        <time>2019-07-21T12:16:20Z</time>
      </trkpt>
      <trkpt lat="42.65374" lon="0.14476">
        <ele>1363.3</ele>
        <time>2019-07-21T12:16:24Z</time>
      </trkpt>
      <trkpt lat="42.65389" lon="0.14432">
        <ele>1358.5</ele>
        <time>2019-07-21T12:16:32Z</time>
      </trkpt>
      <trkpt lat="42.65395" lon="0.14413">
        <ele>1355.1</ele>
        <time>2019-07-21T12:16:35Z</time>
      </trkpt>
      <trkpt lat="42.65402" lon="0.14389">
        <ele>1351.8</ele>
        <time>2019-07-21T12:16:39Z</time>
      </trkpt>
      <trkpt lat="42.65403" lon="0.14383">
        <ele>1351.3</ele>
        <time>2019-07-21T12:16:40Z</time>
      </trkpt>
      <trkpt lat="42.65404" lon="0.14377">
        <ele>1351.8</ele>
        <time>2019-07-21T12:16:41Z</time>
      </trkpt>
      <trkpt lat="42.65405" lon="0.14328">
        <ele>1351.8</ele>
        <time>2019-07-21T12:16:48Z</time>
      </trkpt>
      <trkpt lat="42.65406" lon="0.14314">
        <ele>1351.8</ele>
        <time>2019-07-21T12:16:50Z</time>
      </trkpt>
      <trkpt lat="42.65404" lon="0.1429">
        <ele>1348.4</ele>
        <time>2019-07-21T12:16:53Z</time>
      </trkpt>
      <trkpt lat="42.65403" lon="0.14269">
        <ele>1343.1</ele>
        <time>2019-07-21T12:16:56Z</time>
      </trkpt>
      <trkpt lat="42.65402" lon="0.14263">
        <ele>1341.2</ele>
        <time>2019-07-21T12:16:57Z</time>
      </trkpt>
      <trkpt lat="42.65399" lon="0.14245">
        <ele>1335.4</ele>
        <time>2019-07-21T12:17:00Z</time>
      </trkpt>
      <trkpt lat="42.65401" lon="0.14236">
        <ele>1334</ele>
        <time>2019-07-21T12:17:01Z</time>
      </trkpt>
      <trkpt lat="42.65402" lon="0.14211">
        <ele>1331.6</ele>
        <time>2019-07-21T12:17:04Z</time>
      </trkpt>
      <trkpt lat="42.65401" lon="0.14186">
        <ele>1332</ele>
        <time>2019-07-21T12:17:07Z</time>
      </trkpt>
      <trkpt lat="42.65402" lon="0.14169">
        <ele>1332</ele>
        <time>2019-07-21T12:17:09Z</time>
      </trkpt>
      <trkpt lat="42.65401" lon="0.14113">
        <ele>1335.4</ele>
        <time>2019-07-21T12:17:20Z</time>
      </trkpt>
      <trkpt lat="42.65405" lon="0.14083">
        <ele>1335.4</ele>
        <time>2019-07-21T12:17:29Z</time>
      </trkpt>
      <trkpt lat="42.65403" lon="0.14072">
        <ele>1335.4</ele>
        <time>2019-07-21T12:17:32Z</time>
      </trkpt>
      <trkpt lat="42.65404" lon="0.1405">
        <ele>1335.4</ele>
        <time>2019-07-21T12:17:37Z</time>
      </trkpt>
      <trkpt lat="42.65403" lon="0.14023">
        <ele>1334</ele>
        <time>2019-07-21T12:17:41Z</time>
      </trkpt>
      <trkpt lat="42.65392" lon="0.13993">
        <ele>1329.6</ele>
        <time>2019-07-21T12:17:46Z</time>
      </trkpt>
      <trkpt lat="42.65392" lon="0.13982">
        <ele>1325.8</ele>
        <time>2019-07-21T12:17:49Z</time>
      </trkpt>
      <trkpt lat="42.65385" lon="0.13964">
        <ele>1321.9</ele>
        <time>2019-07-21T12:17:53Z</time>
      </trkpt>
      <trkpt lat="42.65385" lon="0.13959">
        <ele>1321.9</ele>
        <time>2019-07-21T12:17:54Z</time>
      </trkpt>
      <trkpt lat="42.65384" lon="0.13915">
        <ele>1322.4</ele>
        <time>2019-07-21T12:18:01Z</time>
      </trkpt>
      <trkpt lat="42.65389" lon="0.139">
        <ele>1322.4</ele>
        <time>2019-07-21T12:18:03Z</time>
      </trkpt>
      <trkpt lat="42.65384" lon="0.13876">
        <ele>1318.6</ele>
        <time>2019-07-21T12:18:08Z</time>
      </trkpt>
      <trkpt lat="42.6538" lon="0.13876">
        <ele>1317.6</ele>
        <time>2019-07-21T12:18:09Z</time>
      </trkpt>
      <trkpt lat="42.65358" lon="0.13872">
        <ele>1310.9</ele>
        <time>2019-07-21T12:18:14Z</time>
      </trkpt>
      <trkpt lat="42.65348" lon="0.13875">
        <ele>1307.1</ele>
        <time>2019-07-21T12:18:17Z</time>
      </trkpt>
      <trkpt lat="42.65339" lon="0.13883">
        <ele>1303.2</ele>
        <time>2019-07-21T12:18:20Z</time>
      </trkpt>
      <trkpt lat="42.65336" lon="0.13885">
        <ele>1302.2</ele>
        <time>2019-07-21T12:18:21Z</time>
      </trkpt>
      <trkpt lat="42.65317" lon="0.13886">
        <ele>1299.8</ele>
        <time>2019-07-21T12:18:25Z</time>
      </trkpt>
      <trkpt lat="42.65306" lon="0.13886">
        <ele>1298.9</ele>
        <time>2019-07-21T12:18:27Z</time>
      </trkpt>
      <trkpt lat="42.65283" lon="0.13881">
        <ele>1294.6</ele>
        <time>2019-07-21T12:18:32Z</time>
      </trkpt>
      <trkpt lat="42.65277" lon="0.13882">
        <ele>1294.1</ele>
        <time>2019-07-21T12:18:33Z</time>
      </trkpt>
      <trkpt lat="42.65266" lon="0.13882">
        <ele>1292.2</ele>
        <time>2019-07-21T12:18:35Z</time>
      </trkpt>
      <trkpt lat="42.65251" lon="0.13887">
        <ele>1288.3</ele>
        <time>2019-07-21T12:18:38Z</time>
      </trkpt>
      <trkpt lat="42.65234" lon="0.13888">
        <ele>1282.5</ele>
        <time>2019-07-21T12:18:42Z</time>
      </trkpt>
      <trkpt lat="42.65224" lon="0.13884">
        <ele>1279.7</ele>
        <time>2019-07-21T12:18:45Z</time>
      </trkpt>
      <trkpt lat="42.65206" lon="0.13877">
        <ele>1276.3</ele>
        <time>2019-07-21T12:18:50Z</time>
      </trkpt>
      <trkpt lat="42.65192" lon="0.13863">
        <ele>1273.4</ele>
        <time>2019-07-21T12:18:59Z</time>
      </trkpt>
      <trkpt lat="42.65179" lon="0.13882">
        <ele>1273.4</ele>
        <time>2019-07-21T12:19:07Z</time>
      </trkpt>
      <trkpt lat="42.65171" lon="0.13906">
        <ele>1274.8</ele>
        <time>2019-07-21T12:19:13Z</time>
      </trkpt>
      <trkpt lat="42.65161" lon="0.13937">
        <ele>1274.4</ele>
        <time>2019-07-21T12:19:26Z</time>
      </trkpt>
      <trkpt lat="42.65162" lon="0.13936">
        <ele>1274.4</ele>
        <time>2019-07-21T12:19:39Z</time>
      </trkpt>
      <trkpt lat="42.65162" lon="0.13937">
        <ele>1274.4</ele>
        <time>2019-07-21T12:19:42Z</time>
      </trkpt>
      <trkpt lat="42.65162" lon="0.13982">
        <ele>1274.4</ele>
        <time>2019-07-21T12:19:54Z</time>
      </trkpt>
      <trkpt lat="42.65174" lon="0.14066">
        <ele>1274.4</ele>
        <time>2019-07-21T12:20:09Z</time>
      </trkpt>
      <trkpt lat="42.65174" lon="0.14072">
        <ele>1274.4</ele>
        <time>2019-07-21T12:20:10Z</time>
      </trkpt>
      <trkpt lat="42.65174" lon="0.14084">
        <ele>1273.4</ele>
        <time>2019-07-21T12:20:12Z</time>
      </trkpt>
      <trkpt lat="42.65174" lon="0.14205">
        <ele>1270.5</ele>
        <time>2019-07-21T12:20:28Z</time>
      </trkpt>
    </trkseg>
  </trk>
</gpx>